[[{"header":{"parameterUnit":"m.s-1","parameterCategory":1,"la1":30.6,"la2":29.2853,"lo1":-89.7004,"lo2":-87.6739,"dy":0.0162,"dx":0.0183,"nx":112,"ny":82,"refTime":"2023-07-23T18:00:00:Z","depth":0,"parameterNumber":2,"parameterNumberName":"U-component_of_WINDS"},"data":[0.0,0.0,0.0,0.0,0.0,0.0,0.0,0.0,0.0,0.0,0.0,0.0,0.0,0.0,0.0,0.0,0.0,0.0,0.0,0.0,0.0,0.0,0.0,0.0,0.0,0.0,0.0,0.0,0.0,0.0,0.0,0.0,0.0,0.0,0.0,0.0,0.0,0.0,0.0,0.0,0.0,0.0,0.0,0.0,0.0,0.0,0.0,0.0,0.0,0.0,0.0,0.0,0.0,0.0,0.0,0.0,0.0,0.0,0.0,0.0,0.0,0.0,0.0,0.0,0.0,0.0,0.0,0.0,0.0,0.0,0.0,0.0,0.0,0.0,0.0,0.0,0.0,0.0,0.0,0.0,0.0,0.0,0.0,0.0,0.0,0.0,0.0,0.0,0.0,0.0,1.4498,1.4715,1.6304,1.7635,1.8375,1.9169,1.8943,1.732,0.0,0.0,0.0,0.0,0.0,0.0,0.0,0.0,0.0,0.0,0.0,0.0,0.0,0.0,0.0,0.0,0.0,0.0,0.0,0.0,0.0,0.0,0.0,0.0,0.0,0.0,0.0,0.0,0.0,0.0,0.0,0.0,0.0,0.0,0.0,0.0,0.0,0.0,0.0,0.0,0.0,0.0,0.0,0.0,0.0,0.0,0.0,0.0,0.0,0.0,0.0,0.0,0.0,0.0,0.0,0.0,0.0,0.0,0.0,0.0,0.0,0.0,0.0,0.0,0.0,0.0,0.0,0.0,0.0,0.0,0.0,0.0,0.0,0.0,0.0,0.0,0.0,0.0,0.0,0.0,0.0,0.0,0.0,0.0,0.0,0.0,0.0,0.0,0.0,0.0,0.0,0.0,0.0,0.0,0.0,0.0,0.0,0.0,0.0,0.0,0.0,0.0,0.0,0.0,1.4846,1.5768,1.6819,1.7549,1.7737,1.7888,1.751,1.6451,0.0,0.0,0.0,0.0,0.0,0.0,0.0,0.0,0.0,0.0,0.0,0.0,0.0,0.0,0.0,0.0,0.0,0.0,0.0,0.0,0.0,0.0,0.0,0.0,0.0,0.0,0.0,0.0,0.0,0.0,0.0,0.0,0.0,0.0,0.0,0.0,0.0,0.0,0.0,0.0,0.0,0.0,0.0,0.0,0.0,0.0,0.0,0.0,0.0,0.0,0.0,0.0,0.0,0.0,0.0,0.0,0.0,0.0,0.0,0.0,0.0,0.0,0.0,0.0,0.0,0.0,0.0,0.0,0.0,0.0,0.0,0.0,0.0,0.0,0.0,0.0,0.0,0.0,0.0,0.0,0.0,0.0,0.0,0.0,0.0,0.0,0.0,0.0,0.0,0.0,0.0,0.0,0.0,0.0,0.0,0.0,0.0,0.0,0.0,0.0,0.0,0.0,0.0,1.4497,1.4714,1.5278,1.6176,1.6772,1.6837,1.6872,1.671,1.6278,1.6536,0.0,0.0,0.0,0.0,0.0,0.0,0.0,0.0,0.0,0.0,0.0,0.0,0.0,0.0,0.0,0.0,0.0,0.0,0.0,0.0,0.0,0.0,0.0,0.0,0.0,0.0,0.0,0.0,0.0,0.0,0.0,0.0,0.0,0.0,0.0,0.0,0.0,0.0,0.0,0.0,0.0,0.0,0.0,0.0,0.0,0.0,0.0,0.0,0.0,0.0,0.0,0.0,0.0,0.0,0.0,0.0,0.0,0.0,0.0,0.0,0.0,0.0,0.0,0.0,0.0,0.0,0.0,0.0,0.0,0.0,0.0,0.0,0.0,0.0,0.0,0.0,0.0,0.0,0.0,0.0,0.0,0.0,0.0,0.0,0.0,0.0,0.0,0.0,0.0,0.0,0.0,0.0,0.0,0.0,0.0,0.0,0.0,0.0,0.0,0.0,0.0,0.0,1.4522,1.4565,1.4693,1.5534,1.6036,1.5912,1.6142,1.6213,1.6009,1.6134,0.0,0.0,0.0,0.0,0.0,0.0,0.0,0.0,0.0,0.0,0.0,0.0,0.0,0.0,0.0,0.0,0.0,0.0,0.0,0.0,0.0,0.0,0.0,0.0,0.0,0.0,0.0,0.0,0.0,0.0,0.0,0.0,0.0,0.0,0.0,0.0,0.0,0.0,0.0,0.0,0.0,0.0,0.0,0.0,0.0,0.0,0.0,0.0,0.0,0.0,0.0,0.0,0.0,0.0,0.0,0.0,0.0,0.0,0.0,0.0,0.0,0.0,0.0,0.0,0.0,0.0,0.0,0.0,0.0,0.0,0.0,0.0,0.0,0.0,0.0,0.0,0.0,0.0,0.0,0.0,0.0,0.0,0.0,0.0,0.0,0.0,0.0,0.0,0.0,0.0,0.0,0.0,0.0,0.0,0.0,0.0,0.0,0.0,0.0,0.0,0.0,0.0,1.4589,1.4612,1.4697,1.5536,1.58,1.5048,1.5805,1.5952,1.5141,1.5854,0.0,0.0,0.0,0.0,0.0,0.0,0.0,0.0,0.0,0.0,0.0,0.0,0.0,0.0,0.0,0.0,0.0,0.0,0.0,0.0,0.0,0.0,0.0,0.0,0.0,0.0,0.0,0.0,0.0,0.0,0.0,0.0,0.0,0.0,0.0,0.0,0.0,0.0,0.0,0.0,0.0,0.0,0.0,0.0,0.0,0.0,0.0,0.0,0.0,0.0,0.0,0.0,0.0,0.0,0.0,0.0,0.0,0.0,0.0,0.0,0.0,0.0,0.0,0.0,0.0,0.0,0.0,0.0,0.0,0.0,0.0,0.0,0.0,0.0,0.0,0.0,0.0,0.0,0.0,0.0,0.0,0.0,0.0,0.0,0.0,0.0,0.0,0.0,0.0,0.0,0.0,0.0,0.0,0.0,0.0,0.0,0.0,0.0,0.0,0.0,0.0,0.0,1.46,1.4611,1.4634,1.5038,1.5169,1.4865,1.5277,1.539,1.5017,0.0,0.0,0.0,0.0,0.0,0.0,0.0,0.0,0.0,0.0,0.0,0.0,0.0,0.0,0.0,0.0,0.0,0.0,0.0,0.0,0.0,0.0,0.0,0.0,0.0,0.0,0.0,0.0,0.0,0.0,0.0,0.0,0.0,0.0,0.0,0.0,0.0,0.0,0.0,0.0,0.0,0.0,0.0,0.0,0.0,0.0,0.0,0.0,0.0,0.0,0.0,0.0,0.0,0.0,0.0,0.0,0.0,0.0,0.0,0.0,0.0,0.0,0.0,0.0,0.0,0.0,0.0,0.0,0.0,0.0,0.0,0.0,0.0,0.0,0.0,0.0,0.0,0.0,0.0,0.0,0.0,0.0,0.0,0.0,0.0,0.0,0.0,0.0,0.0,0.0,0.0,0.0,0.0,0.0,0.0,0.0,0.0,0.0,0.0,0.0,0.0,0.0,1.4742,1.4631,1.4622,1.4602,1.4738,1.4821,1.4803,1.4975,1.52,1.5429,0.0,0.0,0.0,0.0,0.0,0.0,0.0,0.0,0.0,0.0,0.0,0.0,0.0,0.0,0.0,0.0,0.0,0.0,0.0,0.0,0.0,0.0,0.0,0.0,0.0,0.0,0.0,0.0,0.0,0.0,0.0,0.0,0.0,0.0,0.0,0.0,0.0,0.0,0.0,0.0,0.0,0.0,0.0,0.0,0.0,0.0,0.0,0.0,0.0,0.0,0.0,0.0,0.0,0.0,0.0,0.0,0.0,0.0,0.0,0.0,0.0,0.0,0.0,0.0,0.0,0.0,0.0,0.0,0.0,0.0,0.0,0.0,0.0,0.0,0.0,0.0,0.0,0.0,0.0,0.0,0.0,0.0,0.0,0.0,0.0,0.0,0.0,0.0,0.0,0.0,0.0,0.0,0.0,0.0,0.0,0.0,0.0,0.0,0.0,0.0,0.0,0.0,1.4822,1.471,1.4672,1.4623,1.4776,1.4876,1.4803,1.4973,1.5471,0.0,0.0,0.0,0.0,0.0,0.0,0.0,0.0,0.0,0.0,0.0,0.0,0.0,0.0,0.0,0.0,0.0,0.0,0.0,0.0,0.0,0.0,0.0,0.0,0.0,0.0,0.0,0.0,0.0,0.0,0.0,0.0,0.0,0.0,0.0,0.0,0.0,0.0,0.0,0.0,0.0,0.0,0.0,0.0,0.0,0.0,0.0,0.0,0.0,0.0,0.0,0.0,0.0,0.0,0.0,0.0,0.0,0.0,0.0,0.0,0.0,0.0,0.0,0.0,0.0,0.0,0.0,0.0,0.0,0.0,0.0,0.0,0.0,0.0,0.0,0.0,0.0,0.0,0.0,0.0,0.0,0.0,0.0,0.0,0.0,0.0,0.0,0.0,0.0,0.0,0.0,0.0,0.0,0.0,0.0,0.0,0.0,0.0,0.0,0.0,0.0,0.0,0.0,1.5583,1.5045,1.4915,1.5457,1.5062,1.4776,1.4803,1.4906,1.5112,1.5459,0.0,0.0,0.0,0.0,0.0,0.0,0.0,0.0,0.0,0.0,0.0,0.0,0.0,0.0,0.0,0.0,0.0,0.0,0.0,0.0,0.0,0.0,0.0,0.0,0.0,0.0,0.0,0.0,0.0,0.0,0.0,0.0,0.0,0.0,0.0,0.0,0.0,0.0,0.0,0.0,0.0,0.0,0.0,0.0,0.0,0.0,0.0,0.0,0.0,0.0,0.0,0.0,0.0,0.0,0.0,0.0,0.0,0.0,0.0,0.0,0.0,0.0,0.0,0.0,0.0,0.0,0.0,0.0,0.0,0.0,0.0,0.0,0.0,0.0,0.0,0.0,0.0,0.0,0.0,0.0,0.0,0.0,0.0,0.0,0.0,0.0,0.0,0.0,0.0,0.0,0.0,0.0,0.0,0.0,0.0,0.0,0.0,0.0,0.0,0.0,0.0,0.0,1.5936,1.5768,1.5731,1.5923,1.5479,1.5074,1.4822,1.4863,1.5091,1.5549,0.0,0.0,0.0,0.0,0.0,0.0,0.0,0.0,0.0,0.0,0.0,0.0,0.0,0.0,0.0,0.0,0.0,0.0,0.0,0.0,0.0,0.0,0.0,0.0,0.0,0.0,0.0,0.0,0.0,0.0,0.0,0.0,0.0,0.0,0.0,0.0,0.0,0.0,0.0,0.0,0.0,0.0,0.0,0.0,0.0,0.0,0.0,0.0,0.0,0.0,0.0,0.0,0.0,0.0,0.0,0.0,0.0,0.0,0.0,0.0,0.0,0.0,0.0,0.0,0.0,0.0,0.0,0.0,0.0,0.0,0.0,0.0,0.0,0.0,0.0,0.0,0.0,0.0,0.0,0.0,0.0,0.0,0.0,0.0,0.0,0.0,0.0,0.0,0.0,0.0,0.0,0.0,0.0,0.0,0.0,0.0,0.0,0.0,0.0,0.0,0.0,0.0,1.6205,1.6694,1.6876,1.6289,1.6019,1.562,1.4982,1.4901,1.5258,1.6118,0.0,0.0,0.0,0.0,0.0,0.0,0.0,0.0,0.0,0.0,0.0,0.0,0.0,0.0,0.0,0.0,0.0,0.0,0.0,0.0,0.0,0.0,0.0,0.0,0.0,0.0,0.0,0.0,0.0,0.0,0.0,0.0,0.0,0.0,0.0,0.0,0.0,0.0,0.0,0.0,0.0,0.0,0.0,0.0,0.0,0.0,0.0,0.0,0.0,0.0,0.0,0.0,0.0,0.0,0.0,0.0,0.0,0.0,0.0,0.0,1.7666,0.0,0.0,0.0,0.0,0.0,0.0,0.0,0.0,0.0,0.0,0.0,0.0,0.0,0.0,0.0,0.0,0.0,0.0,0.0,0.0,0.0,0.0,0.0,0.0,0.0,0.0,0.0,0.0,0.0,0.0,0.0,0.0,0.0,0.0,0.0,0.0,0.0,0.0,0.0,0.0,0.0,1.7736,1.7399,1.7303,1.7828,1.6659,1.5813,1.5828,1.5207,1.4956,1.5264,1.5928,0.0,0.0,0.0,0.0,0.0,0.0,0.0,0.0,0.0,0.0,0.0,0.0,0.0,0.0,0.0,0.0,0.0,0.0,0.0,0.0,0.0,0.0,0.0,0.0,0.0,0.0,0.0,0.0,0.0,0.0,0.0,0.0,0.0,0.0,0.0,0.0,0.0,0.0,0.0,0.0,0.0,0.0,0.0,0.0,0.0,0.0,0.0,0.0,0.0,0.0,0.0,0.0,0.0,0.0,0.0,0.0,0.0,0.0,0.0,0.0,1.8573,0.0,0.0,0.0,0.0,0.0,0.0,0.0,0.0,0.0,0.0,0.0,0.0,0.0,0.0,0.0,0.0,0.0,0.0,0.0,0.0,0.0,0.0,0.0,0.0,0.0,0.0,0.0,0.0,0.0,0.0,0.0,0.0,0.0,0.0,0.0,0.0,0.0,0.0,0.0,0.0,1.8289,1.8284,1.8306,1.8426,1.7213,1.6278,1.6029,1.5234,1.4803,1.4896,1.5386,0.0,0.0,0.0,0.0,0.0,0.0,0.0,0.0,0.0,0.0,0.0,0.0,0.0,0.0,0.0,0.0,0.0,0.0,0.0,0.0,0.0,0.0,0.0,0.0,0.0,0.0,0.0,0.0,0.0,0.0,0.0,0.0,0.0,0.0,0.0,0.0,0.0,0.0,0.0,0.0,0.0,0.0,0.0,0.0,0.0,0.0,0.0,0.0,0.0,0.0,0.0,0.0,0.0,1.8778,1.908,1.966,1.966,1.9897,2.0278,1.9221,1.857,1.8301,1.857,0.0,0.0,0.0,0.0,0.0,0.0,0.0,0.0,0.0,0.0,0.0,0.0,0.0,0.0,0.0,0.0,0.0,0.0,0.0,0.0,0.0,0.0,1.9282,1.9344,1.9317,1.9277,1.9282,0.0,0.0,0.0,0.0,0.0,0.0,0.0,0.0,0.0,0.0,0.0,1.8597,1.9137,1.93,1.8774,1.768,1.6769,1.6178,1.5248,1.4718,1.4785,1.5054,1.595,0.0,0.0,0.0,0.0,0.0,0.0,0.0,0.0,0.0,0.0,0.0,0.0,0.0,0.0,0.0,0.0,0.0,0.0,0.0,0.0,0.0,0.0,0.0,0.0,0.0,0.0,0.0,0.0,0.0,0.0,0.0,0.0,1.9476,1.9031,0.0,0.0,0.0,0.0,0.0,0.0,0.0,0.0,0.0,0.0,0.0,0.0,0.0,1.881,1.9438,1.923,1.9458,2.0148,1.9918,1.9847,1.9949,1.9949,1.9975,2.0035,1.989,0.0,1.9016,1.8429,0.0,0.0,0.0,0.0,0.0,0.0,0.0,0.0,0.0,0.0,0.0,0.0,0.0,0.0,0.0,0.0,0.0,0.0,0.0,0.0,0.0,0.0,1.9141,1.92,1.9226,1.92,1.9209,1.9488,1.9699,1.9611,1.9713,1.9804,0.0,0.0,0.0,0.0,0.0,0.0,1.9453,1.9476,1.9518,1.9538,1.8018,1.7012,1.7034,1.5604,1.4698,1.4708,1.5554,1.6509,1.757,1.8403,0.0,0.0,0.0,0.0,0.0,0.0,0.0,0.0,0.0,0.0,0.0,0.0,0.0,0.0,0.0,0.0,0.0,0.0,0.0,0.0,0.0,0.0,0.0,0.0,0.0,0.0,0.0,0.0,0.0,1.9656,1.9443,1.9317,1.9998,2.0675,0.0,0.0,0.0,0.0,0.0,0.0,0.0,0.0,0.0,1.8955,1.9216,1.9505,1.9822,1.9713,1.9836,2.0168,2.0052,2.023,2.067,2.067,2.0906,2.126,2.0856,2.0535,2.0252,1.9169,1.8529,1.829,0.0,0.0,0.0,0.0,1.8757,1.9105,1.8943,1.8913,1.9007,1.9402,0.0,0.0,0.0,0.0,0.0,0.0,0.0,1.93,0.0,0.0,1.9615,1.9642,1.9713,1.9665,1.9277,1.9314,1.9414,1.9375,1.9869,2.0127,1.9671,1.9518,0.0,0.0,0.0,1.9508,1.9446,1.944,1.947,1.9532,1.8426,1.771,1.7808,1.673,1.6051,1.6055,1.6532,1.7236,1.8175,1.8722,1.9364,0.0,0.0,0.0,0.0,0.0,0.0,0.0,0.0,0.0,0.0,0.0,0.0,0.0,0.0,0.0,0.0,0.0,0.0,0.0,0.0,0.0,0.0,0.0,0.0,0.0,0.0,0.0,0.0,1.969,1.9607,1.9564,2.0163,2.0857,0.0,0.0,0.0,0.0,0.0,0.0,2.0336,1.9878,1.9598,1.9556,1.9887,2.0128,2.034,2.0323,2.039,2.0584,2.0489,2.0827,2.1473,2.1311,2.1586,2.2155,2.1491,2.1175,2.0995,1.987,1.909,1.8598,1.8806,1.8852,1.8826,1.8869,1.9234,1.9659,1.947,1.9447,1.9528,1.9812,1.9634,1.933,1.9575,0.0,0.0,0.0,0.0,1.9777,2.0807,2.0702,2.0322,2.032,2.0415,2.0291,1.96,1.9503,1.9497,1.9255,1.9819,2.0153,1.9544,1.9323,0.0,1.9518,1.9446,1.9366,1.9317,1.9335,1.936,1.9399,1.8682,1.8236,1.8281,1.7562,1.7102,1.7099,1.7393,1.7908,1.8645,1.9038,1.951,2.0117,0.0,0.0,0.0,0.0,0.0,0.0,0.0,0.0,0.0,0.0,0.0,0.0,0.0,0.0,0.0,0.0,0.0,0.0,0.0,0.0,0.0,0.0,0.0,0.0,0.0,0.0,0.0,0.0,0.0,1.9472,2.0453,0.0,0.0,0.0,0.0,2.2445,2.1653,2.1316,2.1761,2.0984,2.0443,2.0266,2.0211,2.0518,2.1241,2.1171,2.1481,2.2164,2.1874,2.1899,2.2223,2.1574,2.1491,2.1819,2.1452,2.1098,2.0699,2.0168,1.9942,1.9908,1.9908,1.9933,1.9933,1.9933,1.9959,1.9993,1.9959,1.9959,2.0103,2.102,2.1492,2.1753,2.1891,2.1483,0.0,0.0,2.1039,2.1003,2.1001,2.1119,2.1227,2.1227,2.1236,2.1039,2.0318,2.0192,2.0043,0.0,1.9294,1.9359,1.9323,0.0,1.9323,1.9405,1.9347,1.9308,1.9298,1.9251,1.9257,1.9399,1.8682,1.8227,1.8289,1.7553,1.7108,1.7099,1.7879,1.8418,1.8602,1.9413,1.9963,2.0192,2.0238,0.0,0.0,0.0,0.0,0.0,0.0,0.0,0.0,0.0,0.0,0.0,0.0,0.0,0.0,0.0,0.0,0.0,0.0,0.0,0.0,0.0,0.0,0.0,0.0,0.0,0.0,0.0,0.0,2.0001,2.0762,0.0,2.1712,2.1835,2.195,2.2149,2.1256,2.0746,2.0932,2.1088,2.1152,2.1079,2.1299,2.1501,2.1678,2.1479,2.1486,2.1661,2.1532,2.1524,2.1661,2.1401,2.137,2.1462,2.1362,2.1224,2.107,2.0927,2.0522,2.0002,2.0002,2.0002,2.0002,2.0002,2.034,2.0771,2.0771,2.0832,2.0867,2.0787,2.0832,2.0967,2.1083,2.0973,2.0894,2.1463,2.1278,2.1127,2.2101,2.2109,2.1872,2.1836,2.1878,2.1601,2.0338,2.009,1.9876,1.9084,1.9069,1.9173,1.918,1.9058,1.9043,1.9241,1.9184,1.9086,1.9045,1.907,1.9095,1.9144,1.8954,1.8898,1.9007,1.8828,1.8688,1.8656,1.9013,1.9248,1.9236,1.9709,1.9936,1.9873,2.0594,2.109,0.0,0.0,0.0,0.0,0.0,0.0,0.0,0.0,0.0,0.0,0.0,0.0,0.0,0.0,0.0,0.0,0.0,0.0,0.0,0.0,0.0,0.0,0.0,0.0,0.0,1.984,2.0055,2.0763,2.1257,2.1711,2.2124,2.1866,2.1732,2.1914,2.1227,2.0903,2.1152,2.1576,2.1806,2.1806,2.1953,2.199,2.189,2.1637,2.1485,2.1471,2.1245,2.1206,2.1362,2.1087,2.1023,2.1127,2.1023,2.1031,2.1119,2.1119,2.0869,2.0433,2.0433,2.0523,2.0612,2.0612,2.1029,2.1558,2.1585,2.1674,2.1695,2.1267,2.1145,2.1194,2.134,2.1331,2.1435,2.2133,2.1952,2.1835,2.2896,2.2885,2.2629,2.2584,2.2629,2.2348,2.1054,2.0791,2.046,1.9413,1.9111,1.9034,1.9008,1.8896,1.8878,1.906,1.9001,1.8923,1.8905,1.9165,1.9345,1.9398,1.9712,1.996,2.0111,2.0007,1.9919,1.9876,1.9727,1.9627,1.9636,1.9826,2.0038,2.0245,2.1541,2.2169,2.2083,0.0,0.0,0.0,0.0,0.0,0.0,0.0,0.0,0.0,0.0,0.0,0.0,0.0,0.0,0.0,0.0,0.0,0.0,0.0,0.0,0.0,0.0,0.0,2.0482,2.0907,2.1329,2.1675,2.1899,2.183,2.1394,2.096,2.0996,2.1779,2.1709,2.1962,2.2651,2.2515,2.2413,2.2386,2.2061,2.189,2.189,2.1615,2.1593,2.1759,2.1103,2.1039,2.1432,2.0654,2.0467,2.0769,2.0433,2.0467,2.0794,2.0794,2.0974,2.1268,2.13,2.1493,2.1781,2.1781,2.1991,2.231,2.2349,2.2432,2.2506,2.2587,2.2641,2.2703,2.2859,2.2816,2.2764,2.3011,2.3086,2.3144,2.3265,2.3392,2.3494,2.3494,2.3485,2.3294,2.2464,2.2294,2.183,2.0296,1.9396,1.8878,1.8797,1.8788,1.8815,1.8878,1.8816,0.0,1.8905,1.9549,2.004,2.0209,2.0877,2.1339,2.1498,2.0964,2.0634,2.0634,1.9963,1.9606,1.9716,1.9788,2.0282,2.1278,2.2913,2.3698,2.36,0.0,0.0,0.0,0.0,0.0,0.0,0.0,0.0,0.0,0.0,0.0,0.0,0.0,0.0,0.0,0.0,0.0,0.0,0.0,0.0,0.0,2.0446,2.0468,2.0442,2.0952,2.156,2.213,2.2252,2.2398,2.2713,2.2635,2.2566,2.2597,2.2555,2.2522,2.247,2.2432,2.2304,2.213,2.1878,2.1615,2.1329,2.1253,2.1047,2.072,2.062,2.0587,2.0613,2.0399,2.0339,2.0433,2.0339,2.0339,2.0441,2.0441,2.0494,2.0613,2.1111,2.137,2.1432,2.1432,2.1683,2.2023,2.2073,2.2307,2.2579,2.2659,2.2685,2.272,2.2729,2.279,2.2859,2.2936,2.3095,2.3256,2.3289,2.3392,2.3439,2.3265,2.336,2.3216,2.2232,2.2,2.1542,2.0012,1.9383,1.9005,1.864,1.8591,1.8563,1.8489,1.8382,0.0,1.9172,1.953,1.9944,2.0572,2.1037,2.1329,2.1414,2.1325,2.126,2.126,2.1059,2.0709,2.0158,2.0346,2.0675,2.115,2.2126,2.2965,0.0,0.0,0.0,0.0,0.0,0.0,0.0,0.0,0.0,0.0,0.0,0.0,0.0,0.0,0.0,0.0,0.0,0.0,0.0,0.0,0.0,0.0,2.1045,2.1361,2.1325,2.1638,2.2123,2.2828,2.2776,2.2831,2.3173,2.3052,2.2893,2.266,2.2589,2.2463,2.2231,2.2163,2.204,2.1869,2.1639,2.1533,2.1512,2.1158,2.0911,2.0748,2.037,2.028,2.0421,2.0076,2.0056,2.029,2.0025,1.9912,1.9912,1.9912,1.9912,0.0,0.0,0.0,0.0,0.0,2.1515,2.1764,2.1911,2.2121,2.2315,2.2381,2.2417,2.2409,2.2436,2.2509,2.2589,2.2686,2.2842,2.2969,2.3019,2.3102,2.3126,2.2969,2.3044,2.2986,2.2375,2.2255,2.1864,2.0636,2.0264,0.0,1.8836,1.8475,1.8339,1.831,1.8447,1.8646,1.89,1.9787,2.0467,2.062,2.1379,2.191,2.1932,2.1834,0.0,0.0,0.0,2.1325,2.0895,2.106,0.0,0.0,0.0,2.2922,2.3435,0.0,0.0,0.0,2.4851,2.4892,0.0,0.0,0.0,0.0,0.0,0.0,0.0,0.0,0.0,0.0,0.0,0.0,0.0,0.0,0.0,0.0,2.1906,2.2724,2.2803,2.2736,2.2896,2.3482,2.3368,2.3182,2.307,2.2738,2.2446,2.2322,2.2192,2.2068,2.1895,2.1796,0.0,0.0,0.0,2.1576,2.1967,2.1221,2.097,2.1152,2.0261,2.0039,2.0452,1.9738,1.9715,2.0156,1.9619,1.942,1.942,1.942,1.942,1.9457,2.0053,2.0467,2.0786,2.1245,2.1454,2.1515,2.1764,0.0,0.0,2.1969,2.199,2.201,2.2068,2.2116,2.2181,2.2428,2.2526,2.2544,2.2669,2.2695,2.2695,2.2642,2.266,2.2695,2.2642,2.2634,2.2418,2.1601,2.1421,2.0875,1.9218,1.8478,1.8151,1.8187,1.871,1.891,1.8456,2.0164,2.1156,2.0564,0.0,0.0,2.2625,2.2303,2.2112,2.2166,2.1779,2.1625,2.1776,2.1753,2.1826,2.1992,2.2817,2.3263,2.3316,2.4094,2.4482,2.4517,2.4741,2.4809,0.0,0.0,0.0,0.0,0.0,0.0,0.0,0.0,0.0,0.0,0.0,0.0,0.0,0.0,0.0,2.3198,2.3304,2.3454,2.4061,2.3894,2.3594,2.3315,2.3739,2.3727,2.2868,2.2703,2.2545,2.2322,2.2275,2.1968,2.1321,2.1738,2.1804,2.1303,2.1701,2.1647,2.1043,2.1095,2.0704,1.9854,0.0,0.0,1.9708,1.9553,1.9494,1.9553,1.9435,1.942,1.942,1.942,1.942,1.945,1.994,2.0177,2.0273,2.0745,2.1135,2.1448,2.1471,2.1705,2.199,2.1998,2.199,2.201,2.2068,2.2172,0.0,2.2455,2.2571,2.2677,2.2695,2.2695,2.2634,2.2366,2.251,2.2642,2.2375,2.2284,2.2063,2.1324,2.1002,2.0481,1.9266,1.8707,1.8257,1.7742,1.8029,1.8496,1.8968,2.0055,2.0855,2.1114,2.1533,2.195,2.2271,2.2189,2.2227,2.2556,2.2092,2.1975,2.2336,2.1731,2.1779,2.2612,2.2804,2.3263,2.4017,2.4183,2.4339,2.45,2.4556,2.458,0.0,0.0,0.0,0.0,0.0,0.0,0.0,0.0,0.0,0.0,0.0,2.1184,2.1622,0.0,2.2916,2.4046,2.3955,2.3985,2.4664,2.4278,2.3684,2.3029,2.3137,2.302,2.2445,2.2281,2.2113,2.1857,2.1857,2.1582,2.0975,2.1545,2.1666,2.1226,2.1773,2.1873,2.1348,2.147,2.0986,1.9915,2.0035,1.9915,1.9589,1.9642,1.9762,1.9948,1.9948,1.9728,1.9379,1.9056,1.901,1.9085,1.9566,1.9775,1.9889,2.0452,2.0786,2.0974,2.1269,2.1479,2.1653,2.1653,2.1683,2.1713,2.1811,2.192,2.2019,2.2121,2.2206,2.2262,2.2262,2.2262,2.2206,2.2056,2.2141,2.2198,2.2056,2.199,2.1852,2.1292,2.1088,2.0652,1.9575,1.9098,1.8675,1.8173,1.8563,1.8898,1.8948,1.9973,2.0511,2.0058,2.0406,2.079,2.0977,2.1562,2.2037,2.2386,2.2332,2.2439,2.2785,2.2033,2.1929,2.2647,2.2685,2.3002,2.3594,2.3989,2.4293,2.45,2.45,2.4517,0.0,0.0,0.0,0.0,0.0,0.0,0.0,0.0,2.0598,2.0708,2.1411,2.2183,2.286,2.3396,2.3968,2.4652,2.4559,2.4524,2.4873,2.4468,2.3723,2.256,2.2349,2.2194,2.1915,2.1645,2.1386,2.1206,2.1182,2.1023,2.062,2.1284,2.1512,2.1151,2.1864,2.2126,2.1894,2.1931,2.1404,2.0406,2.025,2.0078,1.9946,1.9838,2.0064,2.0479,2.0479,2.0196,1.9605,1.8993,1.8818,1.8952,1.922,1.9347,1.9508,2.0323,2.0654,2.0688,2.1116,2.1287,2.1263,2.1119,2.1135,2.1222,2.1433,2.1534,2.1617,2.1759,2.1789,2.1789,2.1789,2.1759,2.17,2.17,2.1639,2.1609,2.1609,2.1609,2.1518,2.1246,2.1183,2.0895,1.9972,1.9564,1.922,1.8759,1.9201,1.9406,1.8848,1.9901,2.0222,1.9006,1.9429,1.9822,1.9885,2.0889,2.1677,2.1992,2.2322,2.2686,2.3086,2.2487,2.2299,2.2689,2.2758,2.2892,2.3134,2.3794,2.422,2.4393,2.4393,2.4438,1.783,1.7979,1.8426,2.0057,1.9869,1.9668,0.0,0.0,2.1552,2.1566,2.2721,2.3771,2.3911,2.4506,2.5239,2.5965,2.5777,2.5325,2.4714,2.4869,2.4172,2.1738,2.2164,2.2263,2.1316,2.0854,2.0573,2.0449,2.0408,2.0261,1.9854,2.0971,2.1444,2.105,2.2206,2.2483,2.183,2.1924,2.1604,2.0848,2.0324,2.0346,2.0743,2.016,2.0117,2.0479,2.0479,2.0528,2.0506,1.9919,1.9662,1.9645,1.9202,1.9062,1.9233,2.0606,2.1119,2.1111,2.1183,2.1219,2.1111,2.052,2.0421,2.0563,2.0942,2.115,2.1324,2.17,2.1789,2.1789,2.1789,2.1579,2.1348,2.1348,2.1119,2.0917,2.0917,2.0917,2.0885,2.086,2.086,2.0689,2.0218,2.0093,1.9762,1.8762,1.8999,1.9202,1.9085,1.9772,2.0093,1.965,1.9667,1.9846,2.0135,2.0616,2.1142,2.1715,2.1803,2.2211,2.3052,2.2998,2.31,2.3374,2.3405,2.3459,2.3629,2.3711,2.3858,2.4056,2.4056,2.4219,1.7256,1.811,1.906,1.983,2.0551,2.125,2.1936,2.2591,2.3041,2.3033,2.3928,2.4816,2.5251,2.5409,2.5601,2.5902,2.5303,2.4584,2.4041,2.3358,2.2467,2.1207,2.1124,2.1065,2.0788,2.0607,2.0439,2.0261,2.0227,2.007,1.9718,2.0527,2.1003,2.0988,2.1902,2.2221,2.191,2.2316,2.199,2.0976,2.1148,2.1133,2.0976,2.1084,2.1362,2.1791,2.1361,2.1154,2.1198,2.0562,2.0124,1.9839,1.9613,1.9565,1.9689,2.0146,2.0313,2.0341,2.0548,2.0619,2.0565,2.0385,2.0387,2.0566,2.1161,2.1423,2.1515,2.1705,2.1738,2.1649,2.1295,2.1111,2.099,2.0909,2.0803,2.0671,2.0671,2.0638,2.0563,2.041,2.0376,2.0281,1.9897,1.9889,1.9693,1.8981,1.9242,1.95,1.9458,1.9523,1.9258,1.8491,1.8644,1.8823,1.8951,1.9882,2.0548,2.0805,2.1221,2.171,2.2267,2.2475,2.2781,2.3265,2.3265,2.3403,2.3692,2.3692,2.3795,2.3996,2.3996,2.4084,1.6989,1.8202,1.9383,1.9838,2.1126,2.2304,2.2513,2.3334,2.4032,2.4049,2.4684,2.5365,2.5845,2.5688,2.543,2.5296,2.458,2.3816,2.3161,2.2149,2.1223,2.0518,2.0286,2.0078,1.9946,2.0058,2.0062,1.9737,1.9737,1.9565,1.9184,1.9752,2.0266,2.0584,2.124,2.1661,2.1825,2.2274,2.2031,2.1119,2.1425,2.1411,2.1133,2.1713,2.2238,2.2622,2.215,2.1942,2.1929,2.1305,2.0844,2.0479,2.0298,2.028,2.0324,2.0144,2.0072,2.0102,2.0338,2.0411,2.0417,2.0358,2.0533,2.087,2.1551,2.1791,2.1854,2.1945,2.1839,2.1587,2.1148,2.0821,2.0579,2.0504,2.0361,2.0258,2.0258,2.0216,2.0154,1.9925,1.9818,1.9675,1.9435,1.9354,1.9236,1.8974,1.9199,1.9384,1.9384,1.9124,1.865,1.785,1.8149,1.8375,1.8375,1.9418,2.0112,2.0174,2.0689,2.1206,2.1685,2.1928,2.2358,2.2977,2.3061,2.323,2.3526,2.3602,2.3728,2.3852,2.3852,2.3852,1.731,1.8087,1.9067,2.0504,2.138,2.2147,2.306,2.369,2.4123,2.418,2.4735,2.5195,2.5211,2.5112,2.482,2.4225,2.3994,2.3452,2.2128,2.1967,2.131,1.9483,1.9857,1.9817,0.0,1.8986,1.9131,1.8577,1.8539,1.8344,1.7868,1.8474,1.9116,1.9629,2.0293,2.0886,2.1431,2.1458,2.1452,2.1356,2.0752,2.0779,2.1411,2.1799,2.207,2.2231,2.2576,2.2797,2.2815,2.2229,2.1953,2.1866,2.122,2.0966,2.0966,2.0944,2.0978,2.0978,2.0978,2.0978,2.0876,2.0377,2.0759,2.1443,2.1933,2.2126,2.227,2.2595,2.2209,2.1697,2.1673,2.0911,2.01,2.0108,1.9762,1.945,1.945,1.945,1.9413,1.9413,1.9101,1.8853,1.8893,1.8602,1.839,1.8507,1.8546,1.8546,1.8546,1.8546,1.85,1.8479,1.8838,1.9072,1.9072,1.9457,1.9846,2.0174,2.0208,2.0682,2.1655,2.1715,2.2042,2.2695,2.2977,2.3111,2.3111,2.3383,2.3508,2.3517,2.3517,2.3517,1.7441,1.8717,2.0065,2.134,2.2514,2.3493,2.4033,2.4527,2.4792,2.4754,2.4249,2.377,2.3673,2.3323,2.2797,2.2139,2.2298,2.2134,2.1064,2.0847,2.0326,1.9031,1.9481,0.0,0.0,0.0,0.0,1.8546,1.8507,1.8305,1.7834,1.8391,1.8854,1.9051,1.9985,2.0602,2.086,2.1233,2.1417,2.1417,2.1172,2.1179,2.1417,2.152,2.163,2.1677,2.1827,2.1867,2.1901,2.2091,2.1856,2.1437,2.1217,2.137,2.1606,2.1269,2.137,2.154,2.0698,2.0661,2.0935,2.0467,2.0803,2.1558,2.2277,2.2526,2.2395,2.1826,2.1487,2.1035,1.9877,1.9323,1.8983,1.8803,1.8907,1.8981,1.8905,1.8822,1.8822,1.886,1.8563,1.8348,1.838,1.8401,1.8351,1.8068,1.8305,1.839,1.8068,1.8028,1.7915,1.7673,1.7988,1.8351,1.8669,1.9049,1.9457,1.9846,2.0077,2.033,2.0682,2.1158,2.1628,2.2022,2.233,2.2712,2.3086,2.3193,2.3321,2.3494,2.3494,2.3494,1.7661,1.9123,2.0512,2.1502,2.2735,2.3815,2.4058,2.4382,2.4562,2.4287,2.335,2.2498,2.2168,2.1611,2.0975,2.0321,2.0379,2.0289,1.971,1.9215,1.8748,1.832,1.8636,1.868,0.0,0.0,0.0,1.8266,1.8108,1.7828,1.7345,1.7899,1.8352,1.8563,1.945,2.0043,2.0309,2.0653,2.0832,2.0832,2.0832,2.0832,2.0832,2.1035,2.1133,2.1133,2.1321,2.1417,2.1424,2.1772,2.1678,2.1264,2.1264,2.1461,2.1754,2.1408,2.1507,2.1709,2.1001,2.0941,2.111,2.0879,2.1191,2.1751,2.2538,2.2656,2.233,2.1602,2.1128,2.0502,1.9178,1.8576,1.8323,1.8145,1.8291,1.8429,1.8351,1.8266,1.8266,1.8312,1.804,1.7827,1.7881,1.7974,1.7915,1.7632,1.7834,1.7915,1.7639,1.7598,1.7475,1.724,1.7557,1.7995,1.8468,1.886,1.928,1.9682,1.9917,2.0077,2.0216,2.0663,2.1055,2.1376,2.1803,2.2211,2.259,2.2833,2.3102,2.3369,2.3369,2.3415,1.8026,1.9319,2.05,2.1184,2.2189,2.3024,2.3128,2.3288,2.3268,2.275,2.2042,2.1304,0.0,0.0,1.9375,1.8796,1.8446,1.8229,1.8222,1.7341,1.6909,0.0,0.0,0.0,0.0,0.0,0.0,1.7787,1.7441,1.7002,1.6559,1.7112,1.7664,1.8185,1.8769,1.929,1.9754,1.9786,1.9805,1.9805,1.9805,1.9805,1.9798,2.0283,2.0534,2.061,2.1057,2.1293,2.1321,2.1369,2.1369,2.1369,2.1335,2.1342,2.141,2.1335,2.1348,2.1438,2.1869,2.172,2.144,2.1545,2.177,2.213,2.2663,2.2483,2.2045,2.1939,2.1084,2.007,1.9453,1.8676,1.802,1.802,1.7888,1.7787,1.7787,1.7754,1.7754,1.7787,1.7489,1.7319,1.7434,1.7317,1.7199,1.7199,1.7199,1.7199,1.7199,1.7199,1.7199,1.7199,1.7557,1.7955,1.8429,1.8822,1.9243,1.9646,1.9682,1.9846,2.0174,2.0174,2.0387,2.0753,2.1376,2.1693,2.1685,2.2375,2.2807,2.3086,2.3086,2.3241,1.8891,1.987,2.072,2.1675,2.1815,2.1856,2.2171,2.1708,2.1152,2.0903,1.9684,1.8451,1.7827,1.7533,1.7411,1.7529,1.8036,0.0,1.8692,1.8302,0.0,1.8215,0.0,1.8191,1.8075,1.8154,0.0,0.0,1.731,1.7177,1.7181,1.7695,1.806,1.8198,1.912,1.9484,1.9227,1.961,1.9805,1.9805,1.9805,1.9805,1.9786,1.9554,1.9636,1.9984,1.9735,1.9829,2.0245,2.0646,2.0802,2.0756,2.0375,2.0703,2.1315,2.05,2.0771,2.1575,2.1675,2.1619,2.1496,2.1241,2.152,2.203,2.2235,2.1949,2.132,2.0511,1.9763,1.8932,1.7896,1.7464,1.7221,1.7109,1.7256,1.7442,1.7442,1.738,1.7352,1.7407,1.7102,1.6911,1.7122,1.708,1.7038,1.7038,1.7157,1.7199,1.7199,1.7199,1.7199,1.7199,1.7275,1.7516,1.7955,1.839,1.8815,1.925,1.9537,1.9754,1.9818,2.0085,2.0243,2.0353,2.1047,2.1485,2.1685,2.2127,2.2483,2.2807,2.3003,2.3144,1.9315,1.995,2.042,2.0767,2.0889,2.0854,2.0606,2.0274,1.9854,1.9224,1.8098,1.7008,1.6421,1.6022,1.5872,0.0,0.0,0.0,1.762,1.7682,1.7772,0.0,1.7915,0.0,1.7834,1.7754,1.7623,1.7473,1.7364,1.7301,1.7414,1.7909,1.8317,1.8555,1.9371,1.9666,1.9371,1.9654,1.9805,1.9805,1.9572,1.9466,1.9453,1.9158,1.9183,1.9459,1.9397,1.9535,1.9798,2.0105,2.0258,2.0226,1.9911,2.0168,2.0644,2.004,2.0292,2.0927,2.097,2.1026,2.1126,2.1097,2.122,2.1465,2.1732,2.1444,2.0912,2.0234,1.9489,1.8635,1.7741,1.7238,1.696,1.684,1.6989,1.7131,1.7131,1.7067,1.6996,1.7018,1.6869,1.6761,1.6918,1.696,1.696,1.7002,1.708,1.7122,1.7199,1.7199,1.7199,1.7199,1.7199,1.7358,1.7754,1.8028,1.8468,1.9064,1.9317,1.9501,1.9682,1.9882,1.998,1.998,2.0522,2.0983,2.1323,2.165,2.2039,2.2483,2.2625,2.2764,1.9564,1.9924,2.006,1.9488,1.9757,1.9936,1.894,1.8892,1.8786,1.7722,1.693,1.6277,1.5739,1.5182,1.4851,1.4924,0.0,1.5799,1.6143,1.6561,1.691,1.7181,1.7199,1.7199,1.7199,1.7174,1.7273,1.7689,1.7643,1.7647,1.7595,1.8053,1.8568,1.9114,1.9572,1.9805,1.9805,1.9736,1.9736,1.9792,1.9202,1.8908,1.902,1.8826,1.8888,1.8995,1.9428,1.9666,1.9805,1.9805,1.9805,1.9792,1.9723,1.9742,1.9792,1.9723,1.9806,2.0042,2.0131,2.0347,2.0562,2.099,2.0941,2.0799,2.118,2.0986,2.0562,2.0362,1.9594,1.8669,1.8083,1.7469,1.7002,1.7002,1.6918,1.6882,1.6882,1.6803,1.6682,1.6682,1.6739,1.6807,1.6852,1.694,1.6965,1.6973,1.696,1.7038,1.7157,1.7199,1.7199,1.7199,1.7199,1.7358,1.7673,1.7754,1.8108,1.8867,1.8981,1.9206,1.961,1.961,1.9646,1.9682,2.0015,2.0353,2.072,2.1119,2.1562,2.2079,2.2164,2.2375,2.0043,2.0513,2.0897,1.9806,1.9252,1.8878,1.8398,1.7283,0.0,1.6364,1.5611,1.4915,1.4822,1.484,1.4958,1.5121,1.6,1.6674,1.6732,1.7109,1.7321,0.0,1.7199,1.7199,1.7199,1.793,0.0,0.0,1.8446,1.8835,1.8744,1.8832,1.9127,1.9648,1.9754,1.9805,1.9805,1.9378,1.9378,1.9792,1.8819,1.8587,1.8945,1.8078,1.8166,1.8958,1.8637,0.0,1.9805,1.9805,1.9805,1.9761,1.9328,1.9422,1.9754,1.9321,1.9497,2.0042,2.0131,2.0347,2.0511,2.0705,2.0755,2.0705,2.0799,2.0427,1.9826,1.9311,1.8701,1.8063,1.7385,1.7122,1.7002,1.6918,1.6924,1.6882,1.6882,1.6803,1.6682,1.6682,1.7011,1.7182,1.6801,1.708,1.7263,1.6824,1.6882,1.7002,1.696,1.7122,1.7199,1.7199,1.7199,1.724,1.7317,1.7598,1.7875,1.8028,1.839,1.8777,1.9176,1.9206,1.9362,1.9682,2.0015,2.0243,2.0319,2.0966,2.1332,2.1479,2.1973,2.222,1.9782,1.9873,1.9891,1.9086,1.8501,1.7961,1.7145,0.0,0.0,1.5209,1.4904,1.4654,1.4574,1.462,1.47,1.4721,1.5523,1.6241,1.6444,1.7014,1.7436,1.7544,1.7447,1.7358,1.7358,1.7926,1.8261,1.8235,1.8831,1.9119,1.9026,1.9284,1.9541,1.9792,1.9805,1.9805,1.9805,1.929,1.929,1.9786,1.8719,1.8342,1.8593,1.8348,1.8367,1.8618,1.8907,1.9328,1.9805,1.9805,1.9805,1.9773,1.9528,1.9585,1.9773,1.9331,1.9348,1.961,1.9656,1.9714,1.9726,1.9939,2.0347,2.0649,2.0429,2.0134,1.975,1.8974,1.8339,1.7801,1.7175,1.6779,1.6577,1.6534,1.662,1.6775,1.7148,1.6958,1.6672,1.6665,1.6803,1.6798,1.63,1.6648,1.691,1.672,1.6761,1.6882,1.6918,1.7038,1.7122,1.7122,1.7157,1.7199,1.7199,1.7399,1.7598,1.7794,1.7988,1.8429,1.9064,1.9101,1.9288,1.9682,1.9854,2.0015,2.0208,2.0556,2.0934,2.1317,2.1593,2.1815,1.9634,1.9464,1.9201,1.8616,1.8054,1.74,1.6236,1.5612,1.5157,1.4675,1.4825,1.5026,1.5035,1.5017,1.4918,0.0,1.528,1.5855,1.6104,1.6823,1.7449,1.7848,1.77,0.0,1.7523,1.7912,0.0,1.8648,1.9147,1.9289,1.9196,1.9472,1.9685,1.9805,1.9805,1.9805,1.9805,1.929,1.929,1.9786,1.8719,1.8267,1.8392,1.8706,1.8681,1.8424,1.9108,1.9486,1.9598,1.9482,1.943,1.9423,1.9482,1.9534,1.9482,1.9356,1.9251,1.9186,1.918,1.9133,1.9093,1.9316,1.9881,2.0341,1.9959,1.985,1.9679,1.882,1.8283,1.7793,1.7223,1.673,1.6386,1.6341,1.6424,1.6663,1.7167,1.6902,1.647,1.6452,1.6387,1.6198,1.573,1.6118,1.6517,1.651,1.6633,1.6761,1.6918,1.696,1.7002,1.7002,1.7122,1.7199,1.7199,1.7199,1.7317,1.7632,1.7673,1.8068,1.8943,1.8981,1.9206,1.9682,1.9682,1.9818,2.0077,2.0174,2.0488,2.1079,2.1214,2.1433,2.038,2.0527,2.0479,1.9521,1.8429,1.7428,1.6676,0.0,1.4987,1.5457,1.5686,1.5962,1.6557,1.663,1.6411,1.5844,0.0,1.6501,1.6309,1.686,1.7449,1.7848,0.0,0.0,1.7516,1.8505,1.9054,1.8727,1.9455,1.9857,1.9729,1.9328,1.9315,1.9786,1.9805,1.9805,1.9805,1.929,1.929,1.9786,1.8719,1.8468,1.8889,1.8486,1.8524,1.8902,1.8464,1.8576,0.0,1.8477,1.8255,1.8309,1.8519,1.8632,1.8632,1.8928,1.9046,1.904,1.9186,1.918,1.9192,1.9362,1.9466,1.9519,1.9473,1.9466,1.9297,1.8682,1.8492,1.8221,1.7412,1.7141,1.7057,1.6814,1.668,1.6599,1.6645,1.6257,1.5868,1.5861,1.5921,1.5794,1.5268,1.597,1.6433,1.5955,1.6349,1.6725,1.6718,1.6882,1.7002,1.7002,1.7122,1.7199,1.7199,1.7199,1.724,1.724,1.7282,1.7632,1.8507,1.8546,1.8929,1.9682,1.9682,1.9726,1.9754,2.0042,2.0243,2.0311,2.0974,2.1317,1.9197,1.9369,1.9286,1.8521,1.7779,1.7029,1.6308,0.0,1.5387,1.5551,1.6093,1.6563,1.6532,1.6862,1.6812,0.0,0.0,0.0,1.6536,1.6816,1.7267,1.8164,1.8163,1.8036,0.0,1.8417,1.8895,1.9219,1.9574,1.9824,1.9907,1.9661,1.9585,1.9792,1.9805,1.9654,1.934,1.88,1.8592,1.8784,1.8044,1.7769,1.7977,1.8084,1.8073,1.7995,1.824,1.8395,0.0,1.8363,1.8363,1.8363,1.8471,1.8643,1.8815,1.8774,1.8608,1.8488,1.85,1.8446,1.8292,1.8195,1.8366,1.8673,1.8946,1.8893,1.8549,1.7752,1.7445,1.7122,1.6463,1.6277,1.6327,1.6378,1.6333,1.6418,1.6922,1.6585,1.6077,1.5908,1.5862,1.5599,1.4821,1.5479,1.6035,1.5818,1.6244,1.662,1.6803,1.6882,1.7002,1.7122,1.7157,1.7199,1.7199,1.7199,1.7199,1.7199,1.7199,1.7475,1.8028,1.8351,1.8769,1.9317,1.9574,1.9682,1.9682,1.9846,2.0015,2.0208,2.0488,2.0869,1.8144,1.8179,1.8019,1.7764,1.7255,1.668,0.0,0.0,1.5741,1.5935,1.6676,1.7319,1.7258,1.7482,1.7412,0.0,0.0,1.6225,1.6725,1.6909,1.7367,1.8391,0.0,1.8282,1.8202,1.8369,1.8819,1.9667,1.9732,1.9827,2.0112,2.0022,1.9856,1.9805,1.9708,1.9482,1.9013,1.8419,1.8154,1.8186,1.7606,1.7428,1.7682,1.804,1.8005,1.7687,1.8153,1.8255,0.0,1.8104,1.8104,1.8153,1.8213,1.8387,1.8619,1.8512,1.8284,1.8116,1.8078,1.7981,1.776,1.7441,1.7554,1.7843,1.7946,1.8061,1.7938,1.7198,1.6786,1.6499,1.6111,1.5972,1.5972,1.6125,1.6324,1.6558,1.7168,1.6945,1.6598,1.6182,1.5954,1.5552,1.4734,1.5181,1.5617,1.5788,1.6064,1.6429,1.6833,1.6882,1.696,1.7199,1.7199,1.7199,1.7199,1.7199,1.7199,1.7199,1.7199,1.7399,1.7794,1.8266,1.8707,1.9101,1.9508,1.9682,1.9682,1.9682,1.9818,2.0042,2.0139,2.0597,1.7727,1.7483,1.716,1.7741,1.7144,1.6456,1.665,1.6181,1.5962,1.6885,1.7624,1.836,1.9294,1.8976,1.8429,1.7959,0.0,0.0,1.6824,1.7327,1.7899,0.0,1.8517,1.8439,1.8242,1.8508,1.9094,2.0033,1.9958,0.0,2.0479,2.029,2.0067,1.9798,1.9565,1.9257,1.8981,1.8291,1.8123,1.8513,1.7775,1.7798,1.8513,1.8465,1.8465,1.8459,1.8201,1.8093,0.0,1.7534,1.7262,1.7245,1.7595,1.7711,1.7767,1.8035,1.809,1.809,1.809,1.809,1.803,1.7374,1.7196,1.7085,1.6353,1.6888,1.7656,1.7296,1.7022,1.6807,1.6802,1.6581,1.6363,1.6426,1.6775,1.7185,1.7191,1.73,1.7226,1.6725,1.6213,1.5712,1.5194,1.5108,1.5277,1.575,1.5788,1.6058,1.6791,1.6882,1.696,1.7199,1.7199,1.7199,1.7199,1.7199,1.7199,1.7199,1.7199,1.7399,1.7794,1.8266,1.8707,1.9101,1.9508,1.9682,1.9682,1.9682,1.9682,1.9718,2.005,2.0597,1.7364,1.7427,1.7216,1.6954,1.6789,1.6592,1.6218,1.6085,1.6307,1.7192,1.7911,1.8586,1.9231,1.9401,1.911,1.8116,1.7937,0.0,0.0,0.0,1.8325,1.8925,1.869,1.8439,1.8242,1.8632,1.9099,1.9514,1.984,2.018,2.0479,2.0461,2.029,2.0074,1.9978,1.9743,1.9265,1.9027,1.848,1.763,1.7706,1.7514,1.712,1.7461,1.7617,1.7617,1.7744,1.7689,1.7512,1.754,1.754,1.754,1.7651,1.7584,1.739,1.744,1.7218,1.6882,1.6754,1.6933,1.7113,1.6442,1.6443,1.665,1.6161,1.6114,1.6255,1.6171,1.6363,1.6545,1.6545,1.6488,1.6379,1.6379,1.654,1.6637,1.6637,1.6699,1.6577,1.6091,1.5883,1.567,1.5188,1.5361,1.5623,1.5788,1.6064,1.6429,1.6833,1.6882,1.696,1.7199,1.7199,1.7199,1.7199,1.7199,1.7199,1.7199,1.7199,1.7282,1.7399,1.7794,1.8226,1.8669,1.9087,1.9435,1.9682,1.9682,1.9682,1.9726,2.0042,2.0319,0.0,1.6816,1.6744,1.6375,1.648,1.6557,1.6251,1.6262,1.6565,1.7415,1.7901,1.8473,1.9413,1.9429,1.9163,1.8741,1.8705,0.0,0.0,0.0,1.9019,1.92,1.8929,1.8651,1.8354,1.8608,1.89,1.9165,1.9644,2.0053,2.0352,2.0286,2.0187,2.0075,2.0067,1.9851,1.9396,1.9145,1.8623,1.7894,1.7888,1.7636,1.7176,1.7483,1.7523,1.7423,1.77,1.7755,0.0,1.7755,1.77,1.7518,1.7518,1.739,1.7202,1.7202,1.7045,1.6832,1.6714,1.6826,1.684,1.6203,1.6022,1.598,1.5757,1.5812,1.5931,1.5961,1.6144,1.6379,1.6379,1.6379,1.6379,1.6379,1.6409,1.6441,1.6441,1.6488,1.6404,1.6108,1.6092,1.5998,1.5674,1.5712,1.5882,1.6064,1.6207,1.6429,1.6833,1.6918,1.7002,1.7199,1.7199,1.7199,1.7199,1.7199,1.7199,1.7199,1.7199,1.7199,1.7199,1.7598,1.7955,1.8226,1.8784,1.9213,1.9464,1.9617,1.9682,1.9726,2.0042,2.0208,0.0,1.597,1.5978,1.6095,1.6289,1.6444,1.6623,1.6641,0.0,1.7583,1.7769,1.8238,1.9773,1.9252,1.8902,1.971,1.9601,1.936,0.0,1.9733,1.9894,1.9259,1.9214,1.9058,1.8525,1.8528,1.8677,1.9003,1.9346,1.9714,2.0033,1.9877,1.9795,1.9795,1.9786,1.9628,1.9364,1.8717,1.8576,1.8925,1.8174,1.8007,1.828,1.8261,1.8073,0.0,1.7946,1.8056,1.809,1.8044,1.776,1.7257,1.7257,1.7207,1.7146,1.7146,1.734,1.754,1.754,1.7362,1.7016,1.643,1.5801,1.5235,1.5235,1.5768,1.6322,1.6322,1.6374,1.6379,1.6379,1.6379,1.6379,1.6379,1.6396,1.6466,1.6466,1.6501,1.6573,1.6485,1.65,1.6457,1.6424,1.6064,1.597,1.638,1.6207,1.6256,1.684,1.696,1.7038,1.7199,1.7199,1.7199,1.7199,1.7199,1.7199,1.7199,1.7199,1.7199,1.7199,1.7557,1.7754,1.7794,1.8662,1.9101,1.9101,1.9501,1.9682,1.9726,2.0015,2.0174,1.6825,0.0,1.6336,1.6501,1.6562,1.6641,0.0,1.7035,1.7237,1.814,0.0,1.8828,2.027,2.0078,1.9857,2.0267,2.0431,2.0432,2.0132,2.0336,2.005,1.8872,1.9246,1.9272,1.8506,1.8677,1.897,1.9339,1.9225,1.9291,1.9694,1.9683,1.9644,1.9644,1.9489,1.9269,1.9014,1.9288,1.9156,1.8526,1.8393,1.8229,1.807,1.8111,1.809,1.8012,1.7672,1.7783,1.8056,1.772,1.7676,1.7909,1.7909,1.7507,1.6877,1.6877,1.6487,1.5931,1.5806,1.5979,1.6161,1.5946,1.572,1.5551,1.5536,1.5662,1.5851,1.5851,1.6144,1.6379,1.6379,1.6379,1.6379,1.6379,1.6128,1.5899,1.5899,1.5647,1.5394,1.5374,1.5439,1.5468,1.5435,1.5623,1.5832,1.597,1.63,1.6626,1.6882,1.696,1.7038,1.7199,1.7199,1.7199,1.7199,1.7199,1.7199,1.7199,1.7199,1.7199,1.7199,1.7275,1.7475,1.7794,1.8662,1.9101,1.9101,1.9501,1.9682,1.9682,1.9782,1.9818,1.7484,1.7158,1.6858,1.6977,1.7052,1.7166,1.7432,0.0,0.0,0.0,0.0,1.8673,1.9999,2.0027,2.0127,2.0877,2.1058,2.1006,2.0837,2.0878,2.058,1.9625,1.9829,1.9745,1.9032,1.9075,1.9163,1.9223,1.9227,1.9239,1.9335,1.9225,1.9182,1.9182,1.9094,1.9052,1.91,1.9363,1.9172,1.8386,1.8523,1.825,1.7689,1.7731,1.7607,1.7392,1.7398,1.7536,1.7788,1.7748,1.7719,1.7672,1.7567,1.7224,1.6765,1.6652,1.6203,1.57,1.5642,1.5526,1.5415,1.5371,1.5313,1.5313,1.5303,1.5303,1.543,1.5909,1.6202,1.6379,1.6379,1.6379,1.6379,1.6379,1.6027,1.5634,1.5421,1.5012,1.4676,1.4703,1.4735,1.492,1.5361,1.5617,1.5876,1.6107,1.6479,1.6797,1.6882,1.7002,1.7122,1.7199,1.7199,1.7199,1.7199,1.7199,1.7199,1.7199,1.7199,1.7199,1.7199,1.7199,1.7399,1.7794,1.8468,1.8905,1.9101,1.9501,1.9682,1.9682,1.9682,1.9682,1.8041,1.7787,1.7537,1.7562,1.7665,1.7811,0.0,0.0,0.0,0.0,0.0,0.0,0.0,1.9838,0.0,0.0,0.0,2.1371,2.1309,2.1317,2.1103,2.0555,2.0509,2.0246,1.9637,1.9543,1.9369,1.8981,1.923,1.9288,1.8921,1.8755,1.8671,1.8671,1.8629,1.876,1.9021,1.9003,1.8764,1.8253,1.8257,1.7946,1.7277,1.7228,1.6977,1.6596,0.0,0.0,1.7398,1.7679,1.759,1.7313,1.7025,1.6818,1.6708,1.6425,1.6145,1.5941,1.5941,1.541,1.477,1.4893,1.4834,1.4834,1.4893,1.4893,1.5074,1.5904,1.6259,1.6316,1.6316,1.6322,1.6379,1.6379,1.6027,1.5582,1.5183,1.4738,1.4377,1.4391,1.4388,1.4589,1.5355,1.5517,1.5706,1.612,1.6515,1.6748,1.6748,1.6996,1.7157,1.7157,1.7157,1.7157,1.7157,1.7199,1.7199,1.7199,1.7199,1.7199,1.7199,1.7199,1.7358,1.7713,1.8147,1.8584,1.9019,1.9428,1.9646,1.9682,1.9682,1.9682,1.8654,1.8654,1.8591,1.8307,1.8239,1.8259,1.851,0.0,0.0,0.0,0.0,0.0,0.0,2.0661,2.1274,0.0,0.0,2.1764,2.1371,2.1317,2.0997,2.02,2.0631,2.059,1.9603,1.9798,1.9797,1.9376,1.9113,1.8857,1.8611,1.8572,1.8533,1.8533,1.8374,1.8126,1.7789,1.7985,1.7958,1.7638,1.7032,1.695,1.7277,1.6878,1.6673,1.6606,0.0,1.6606,1.7318,1.6566,1.694,1.7924,1.7491,1.6978,1.6544,1.6487,1.5864,1.5064,1.5064,1.4715,1.4364,1.4775,1.4656,1.4369,1.4775,1.4893,1.4951,1.5069,1.5488,1.5793,1.5793,1.6087,1.6379,1.6379,1.6027,1.567,1.5603,1.5214,1.4754,1.4393,1.4299,1.4218,1.4005,1.431,1.4645,1.4691,1.554,1.6126,1.6126,1.6607,1.696,1.696,1.7002,1.7038,1.7038,1.7122,1.7199,1.7199,1.7199,1.7199,1.7199,1.7199,1.724,1.7275,1.7713,1.8108,1.8584,1.9019,1.9362,1.9682,1.9682,1.9682,1.9274,1.928,1.924,1.9132,1.8934,1.8806,1.886,0.0,0.0,0.0,0.0,0.0,0.0,0.0,2.0959,2.1765,0.0,2.167,2.1394,2.1309,2.1093,2.0512,2.0831,2.0733,1.9865,1.9967,1.9861,1.9295,1.9019,1.8798,1.851,1.8261,1.8128,1.8128,1.7814,1.7488,1.7137,1.7057,1.6923,1.6709,1.6376,1.6227,1.6197,1.5903,1.5808,1.5808,0.0,1.6164,1.6566,1.6376,1.6553,1.6877,1.6486,1.5935,1.5389,1.5074,1.4659,1.4243,1.4159,1.3992,1.3877,1.4052,1.3992,1.3877,1.4052,1.4172,1.4172,1.4172,1.4711,1.5254,1.5254,1.5614,1.6029,1.6029,1.5854,1.5618,1.537,1.4951,1.449,1.4024,1.3936,1.396,1.415,1.4398,1.468,1.5108,1.5641,1.5994,1.5994,1.6157,1.6423,1.6656,1.6644,1.6723,1.696,1.7122,1.7199,1.7199,1.7199,1.7199,1.7199,1.7199,1.7199,1.7199,1.7598,1.7915,1.8108,1.8784,1.9213,1.9391,1.961,1.9682,1.9723,1.9719,1.9712,1.9767,0.0,1.9248,1.9115,0.0,0.0,0.0,0.0,0.0,0.0,2.0722,0.0,2.1624,2.1716,2.1648,2.1417,2.1371,2.1214,2.0958,2.1055,2.086,2.0166,2.015,1.9854,1.9094,1.8943,1.8798,1.851,1.8049,1.7794,1.7794,1.7399,1.7067,1.6716,1.6497,1.6244,1.6001,1.5972,1.573,1.5351,1.521,1.5159,1.5182,1.5544,1.5785,1.5917,1.6018,1.6014,1.586,1.5378,1.4816,1.4262,1.3778,1.3477,1.3393,1.3372,1.3382,1.3446,1.3446,1.3502,1.3636,1.3571,1.3575,1.3614,1.3468,1.4045,1.4715,1.4715,1.525,1.5788,1.5735,1.5817,1.5826,1.5357,1.4971,1.4555,1.403,1.3968,1.4121,1.4547,1.4623,1.4812,1.5379,1.5641,1.5768,1.5768,1.5806,1.5938,1.6207,1.6281,1.6497,1.6954,1.708,1.7122,1.7122,1.7157,1.7199,1.7199,1.7199,1.7199,1.7199,1.7516,1.7713,1.7794,1.8468,1.8905,1.9101,1.9428,1.9617,1.9871,1.9921,1.9971,1.9981,0.0,0.0,1.9405,1.9375,0.0,1.9399,0.0,0.0,0.0,2.1867,2.2425,2.2108,2.2068,2.1903,2.1471,2.1386,2.1355,2.1277,2.1285,2.1047,2.0444,2.0376,1.998,1.8981,1.8905,1.8798,1.851,1.8049,1.7794,1.7794,1.7399,1.6989,1.6515,1.6515,1.6343,1.5994,1.5683,1.5504,1.5468,1.5351,1.5312,1.5261,1.5199,1.5429,1.5831,1.4929,1.5109,1.5822,1.4858,1.4225,1.3784,1.3396,1.2919,1.2543,1.2881,1.3135,1.3193,1.3193,1.3545,1.395,1.383,1.3885,1.387,1.3347,1.3617,1.407,1.4189,1.5181,1.6004,1.5735,1.6218,1.6576,1.6023,1.5891,1.5717,1.5132,1.5007,1.486,1.4496,1.4419,1.4425,1.4512,1.488,1.5147,1.5147,1.5564,1.5742,1.5603,1.602,1.6454,1.6876,1.6918,1.6918,1.6918,1.7122,1.7199,1.7199,1.7199,1.7199,1.7199,1.724,1.7434,1.7794,1.7875,1.8312,1.9101,1.9139,1.9354,1.9944,1.9921,1.9905,1.9981,0.0,0.0,0.0,0.0,0.0,1.9546,2.0298,0.0,0.0,0.0,2.2625,2.2376,2.222,2.1961,2.1587,2.1456,2.1301,2.1015,2.099,2.0712,2.003,1.9839,1.9515,1.8905,1.8728,1.8496,1.8088,1.7679,1.731,1.7012,1.6558,1.6262,1.605,1.6044,1.6001,1.5875,1.5703,1.5614,1.5614,1.548,1.539,1.5312,1.5261,1.5131,1.4959,1.4543,1.4238,1.3889,1.314,1.2733,1.2614,1.2614,1.2447,1.2318,1.2757,1.2893,1.2949,1.2949,1.3102,1.3217,1.3164,1.3221,1.3191,1.2989,1.3107,1.3336,1.3647,1.4466,1.5231,1.5202,1.5426,1.5584,1.5483,1.5194,1.4931,1.4722,1.4651,1.4644,1.4597,1.4569,1.4651,1.4789,1.4971,1.5108,1.5108,1.5114,1.5198,1.5463,1.5718,1.6014,1.6355,1.6497,1.6637,1.6954,1.7002,1.7038,1.708,1.708,1.7122,1.7199,1.7199,1.7275,1.7434,1.7673,1.7955,1.8305,1.8584,1.8936,2.0022,1.9963,1.9909,0.0,0.0,0.0,0.0,0.0,0.0,2.0009,2.076,0.0,2.2718,0.0,0.0,2.2704,2.2475,2.2161,2.1819,2.1683,2.1462,2.1047,2.0982,2.0704,2.0058,1.9767,1.9442,1.9004,1.8728,1.8425,1.8088,1.7523,1.7031,1.6729,1.6132,1.5792,1.5792,1.5792,1.5792,1.5792,1.5754,1.5709,1.5709,1.5424,1.5244,1.5159,1.4932,1.461,1.4186,1.3988,1.3357,1.254,1.2112,1.1927,1.1922,1.2169,1.2183,1.2082,1.2467,1.2649,1.2698,1.2486,1.2624,1.2839,1.261,1.2725,1.2868,1.2634,1.2746,1.2985,1.3081,1.3791,1.4473,1.4463,1.4767,1.5054,1.5,1.4837,1.4705,1.4638,1.4605,1.4706,1.5013,1.4947,1.4942,1.5286,1.5217,1.5108,1.5108,1.5073,1.5216,1.567,1.5612,1.5672,1.5882,1.592,1.6064,1.6386,1.6349,1.6522,1.696,1.7038,1.708,1.7157,1.7157,1.7157,1.7199,1.7434,1.7632,1.7794,1.8108,1.8507,2.0102,2.0102,2.0076,0.0,0.0,0.0,0.0,0.0,0.0,2.0834,0.0,2.3278,2.3891,2.3619,0.0,2.3126,2.2867,2.2554,2.2153,2.2096,2.1915,2.1471,2.1386,2.1182,2.0656,2.03,1.9889,1.9442,1.895,1.8718,1.868,1.7733,1.7199,1.7199,1.6306,1.5792,1.5792,1.5792,1.5792,1.5792,1.5792,1.5792,1.5792,1.5187,1.4903,1.4858,1.4134,1.3815,1.3721,1.3069,1.254,1.2076,1.2076,1.2026,1.1922,1.2268,1.2113,1.1731,1.2069,1.2302,1.2393,1.1873,1.2297,1.2949,1.2218,1.25,1.2923,1.221,1.2592,1.3186,1.2606,1.326,1.3883,1.3575,1.4478,1.5254,1.4781,1.5034,1.5342,1.512,1.5102,1.528,1.5808,1.5458,1.5292,1.5825,1.5458,1.5114,1.5119,1.559,1.5995,1.6168,1.5776,1.5518,1.5521,1.5244,1.5108,1.5108,1.5114,1.5686,1.6967,1.7122,1.7122,1.7009,1.7002,1.708,1.7199,1.708,1.7275,1.7794,1.7794,1.8028,2.0242,2.0095,0.0,2.0746,0.0,0.0,0.0,0.0,0.0,0.0,2.2442,2.3306,2.4182,2.393,0.0,2.3482,2.3025,2.2554,2.2153,2.194,2.1721,2.1448,2.119,2.0861,2.0387,1.9937,1.9537,1.916,1.892,1.8599,1.8247,1.772,1.7227,1.685,1.6355,1.6057,1.5957,1.5957,1.5736,1.5289,1.5289,1.5474,1.5792,1.5289,1.5006,1.4858,1.4316,1.3747,1.317,1.2545,1.2013,1.1523,1.1523,1.1255,1.0846,1.0953,1.0929,1.0799,1.0906,1.0991,1.0991,1.0836,1.0961,1.1156,1.0946,1.1325,1.1795,1.1575,1.1982,1.2406,1.2282,1.2434,1.2795,1.3289,1.3723,1.3957,1.3964,1.4058,1.4211,1.454,1.4605,1.4747,1.5269,1.5211,1.5292,1.5825,1.5751,1.5768,1.613,1.6313,1.6362,1.6295,1.5787,1.5516,1.5512,1.5165,1.5045,1.5226,1.5602,1.613,1.6825,1.6548,1.6697,1.7459,1.7123,1.696,1.708,1.6996,1.7122,1.7399,1.7399,1.7598,2.0499,2.0497,0.0,2.1457,2.189,2.2246,2.2763,0.0,0.0,0.0,2.3143,2.3791,2.4291,2.4125,0.0,2.3662,2.3341,2.2908,2.2402,2.2198,2.189,2.1378,2.1095,2.0755,2.0319,1.9839,1.9508,1.9302,1.904,1.8644,1.8154,1.7713,1.7269,1.6772,1.6399,1.615,1.6094,1.5856,1.554,1.5187,1.4915,1.4909,1.5187,1.4726,1.4449,1.4351,1.3747,1.3223,1.2696,1.2116,1.1673,1.1372,1.1221,1.0905,1.0588,1.0588,1.0537,1.0478,1.0478,1.0423,1.0364,1.0163,1.0214,1.0265,1.0068,1.0431,1.0901,1.1065,1.1473,1.1823,1.1977,1.2076,1.2235,1.2774,1.3027,1.3194,1.3273,1.3467,1.3758,1.4285,1.4378,1.4625,1.5279,1.524,1.5355,1.6084,1.6176,1.6348,1.6859,1.6927,1.6871,1.6769,1.6351,1.6042,1.5839,1.5397,1.5165,1.535,1.5534,1.5983,1.6625,1.6667,1.6994,1.7619,1.7282,1.7087,1.7002,1.696,1.7038,1.7199,1.7199,1.7317,2.0748,0.0,0.0,2.2043,2.306,0.0,2.3719,2.3691,2.362,2.3378,0.0,2.4513,2.4266,2.4182,2.4087,2.3756,2.3671,2.3418,2.279,2.2642,2.2265,2.1308,2.1047,2.0804,2.0368,1.996,1.9682,1.961,1.9198,1.8743,1.8266,1.7754,1.7275,1.6869,1.6399,1.615,1.61,1.554,1.522,1.5175,1.4531,1.4206,1.4165,1.38,1.3568,1.3478,1.2813,1.2426,1.2229,1.1723,1.1473,1.1318,1.0968,1.0765,1.0765,1.0765,1.0608,1.0446,1.0446,1.0383,1.0163,0.9662,0.9762,0.9965,0.9514,0.9714,1.0222,1.0706,1.107,1.1423,1.1823,1.2026,1.2076,1.2076,1.2452,1.272,1.272,1.3117,1.361,1.4134,1.428,1.465,1.5622,1.5452,1.5527,1.6537,1.6732,1.6927,1.7387,1.7444,1.7444,1.7444,1.7194,1.6828,1.6373,1.578,1.5398,1.5346,1.5185,1.5505,1.6449,1.7161,1.7534,1.7497,1.7434,1.7282,1.696,1.6924,1.7022,1.7277,1.7225,1.7225,2.0389,2.0745,0.0,0.0,2.3481,2.449,2.4398,2.4382,2.4211,2.3643,2.4104,2.4538,2.4319,2.4154,2.3978,2.3744,2.3445,2.3118,2.2747,2.2248,2.1731,2.1253,2.0853,2.0439,1.9965,1.9775,1.9457,1.8815,1.8662,1.8397,1.7875,1.7475,1.7018,1.6454,1.6064,1.5668,1.5181,1.4937,1.4577,1.4134,1.3847,1.3573,1.3205,1.3478,1.3334,1.2866,1.273,1.2328,1.1823,1.1723,1.1103,1.0328,1.0226,0.9925,0.9573,0.9573,0.9472,0.9372,0.9372,0.9263,0.911,0.9012,0.9008,0.9057,0.8959,0.9312,0.9817,1.0375,1.0897,1.1423,1.1927,1.2076,1.2076,1.2076,1.217,1.226,1.226,1.2363,1.2554,1.3059,1.3457,1.3978,1.4603,1.5293,1.6072,1.7065,1.7559,1.7804,1.7907,1.7978,1.7978,1.7978,1.7339,1.6799,1.6558,1.582,1.5294,1.5096,1.5392,1.5842,1.646,1.6256,1.6487,1.7351,1.6939,1.6743,1.6761,1.6761,1.7113,1.7735,1.7245,1.7369,2.0556,0.0,0.0,2.3284,0.0,2.4734,2.466,2.4654,2.4548,2.4198,2.4272,2.4374,2.4275,2.4106,2.3937,2.3735,2.3526,2.3236,2.2773,2.2231,2.1668,2.1063,2.0597,2.0042,1.9398,1.9221,1.8884,1.8226,1.8147,1.7955,1.7475,1.7089,1.6618,1.6095,1.5662,1.5311,1.5006,1.4577,1.4061,1.3494,1.3079,1.2603,1.2112,1.2652,1.2554,1.1968,1.1972,1.1723,1.1372,1.1116,1.0651,1.0083,0.9869,0.9662,0.9413,0.9413,0.9263,0.911,0.911,0.8959,0.8808,0.8808,0.8808,0.8808,0.8808,0.9008,0.9312,0.9865,1.023,1.0592,1.1145,1.151,1.1723,1.1723,1.1923,1.2076,1.2026,1.2071,1.2215,1.2623,1.2962,1.3415,1.3894,1.507,1.626,1.726,1.7817,1.809,1.809,1.809,1.809,1.809,1.7628,1.7254,1.7163,1.6488,1.6024,1.5867,1.5993,1.6179,1.644,1.6157,1.6536,1.7661,1.7697,1.7638,1.7511,1.7511,1.7747,1.8203,1.7856,1.7828,0.0,0.0,2.2549,2.3978,2.4327,0.0,2.4454,2.4461,2.4457,2.4531,2.44,2.4248,2.4182,2.4077,2.3896,2.3637,2.3593,2.3382,2.2704,2.2277,2.1711,2.0909,2.0292,1.966,1.8898,1.8584,1.8266,1.7754,1.7713,1.7468,1.6976,1.6612,1.6126,1.5573,1.5181,1.492,1.4829,1.4118,1.3584,1.3135,1.2398,1.1669,1.1103,1.1565,1.1565,1.1158,1.1167,1.107,1.0922,1.0407,1.0198,1.0043,0.9721,0.9614,0.9614,0.9614,0.9465,0.9208,0.9211,0.9061,0.8857,0.8808,0.8808,0.8808,0.8808,0.8808,0.8906,0.9562,0.9662,0.9766,1.0375,1.0842,1.1167,1.1272,1.1623,1.1927,1.1877,1.2026,1.217,1.2433,1.2667,1.3035,1.3756,1.4908,1.6108,1.7123,1.7611,1.7855,1.7887,1.7893,1.7933,1.8024,1.7761,1.754,1.7595,1.7094,1.6705,1.6705,1.6545,1.6379,1.6379,1.6483,1.6994,1.7942,1.8331,1.8388,1.8065,1.8065,1.8223,1.8453,1.8405,1.8309,0.0,0.0,2.1609,0.0,2.2458,2.2654,0.0,0.0,2.3503,0.0,2.4238,2.4453,2.4173,2.4057,2.3813,2.3262,2.3175,2.2976,2.2358,2.1977,2.1513,2.0885,1.9984,1.9266,1.886,1.8266,1.7713,1.7317,1.7275,1.6879,1.6008,1.592,1.5478,1.4599,1.4518,1.4274,1.38,1.3233,1.2895,1.2847,1.2116,1.1314,1.0502,1.0604,1.0812,1.112,1.1158,1.0858,1.03,1.0352,1.0091,0.9669,0.9614,0.9614,0.9614,0.9614,0.9514,0.9361,0.9263,0.911,0.8959,0.8857,0.8808,0.8808,0.8808,0.8808,0.9012,1.0012,0.9965,0.9821,1.0901,1.0842,1.0631,1.1011,1.1171,1.1372,1.1773,1.2026,1.2076,1.2017,1.2437,1.327,1.465,1.5072,1.5526,1.6546,1.6784,1.6877,1.7036,1.7034,1.7261,1.7716,1.7262,1.7032,1.7245,1.6761,1.6431,1.6431,1.6436,1.6379,1.6379,1.6842,1.7174,1.7324,1.6937,1.6738,1.6659,1.6659,1.724,1.8338,1.7982,1.8386,2.0784,2.0941,2.1284,0.0,2.203,2.2188,2.2819,2.2905,2.2977,2.3323,2.3605,2.3698,2.3468,2.3346,2.317,2.291,2.2867,2.2686,2.22,2.1538,2.0895,2.0408,1.9463,1.8633,1.8108,1.7794,1.7297,1.649,1.6411,1.6101,1.5451,1.5175,1.472,1.4066,1.3784,1.3415,1.3002,1.2666,1.2269,1.1714,1.0897,1.0336,0.9928,0.9928,1.0083,1.0237,1.0285,1.0131,0.988,0.9928,0.9825,0.9614,0.9614,0.9614,0.9614,0.9614,0.951,0.9413,0.9309,0.9159,0.9008,0.8906,0.8857,0.8808,0.8808,0.8808,0.8959,0.971,0.9562,0.9417,1.0486,1.0525,1.0423,1.0964,1.1272,1.1473,1.1623,1.1823,1.1972,1.1923,1.2112,1.2674,1.3836,1.4372,1.4933,1.5936,1.6367,1.6751,1.7144,1.7155,1.73,1.7655,1.7323,1.7043,1.6976,1.6591,1.6379,1.6379,1.6379,1.6379,1.6379,1.6637,1.674,1.674,1.7131,1.7337,1.7363,1.7363,1.7798,1.8718,1.8488,1.8809,0.0,0.0,2.099,2.083,2.0931,2.1176,0.0,0.0,2.1893,0.0,2.286,2.2718,2.2539,2.2573,2.2529,2.2233,2.2169,2.1992,2.1508,2.0775,2.0107,1.9675,1.8805,1.7947,1.7229,1.7076,1.6612,1.5706,1.5617,1.54,1.4971,1.4501,1.4071,1.3632,1.3117,1.2745,1.248,1.2116,1.146,1.0506,0.9877,0.9566,0.9562,0.9669,0.9725,0.9829,0.9721,0.9725,0.9825,0.9825,0.9773,0.9721,0.9721,0.9666,0.9614,0.9614,0.951,0.9465,0.9409,0.9263,0.9061,0.9008,0.891,0.8808,0.8808,0.8808,0.8906,0.9465,0.926,0.9162,1.0115,1.0265,1.0273,1.0858,1.1226,1.1477,1.1523,1.1673,1.1828,1.1823,1.1877,1.2159,1.29,1.3501,1.4171,1.5028,1.5642,1.6199,1.6801,1.6924,1.7087,1.754,1.7267,1.6992,1.6812,1.654,1.6379,1.6379,1.6379,1.6327,1.6208,1.6317,1.6322,1.6203,1.7174,1.7716,1.7869,1.7869,1.8261,1.8993,1.904,1.9238,0.0,2.0607,0.0,1.8142,1.8021,0.0,0.0,0.0,1.9745,2.2055,2.2247,2.1851,2.1446,2.1955,2.205,2.091,2.0703,2.0467,1.975,1.9473,1.917,1.8657,1.7963,1.7206,1.6353,1.5858,1.5463,1.5147,1.5153,1.4926,1.4471,1.4066,1.3579,1.3059,1.2706,1.2529,1.248,1.1434,1.0419,0.9465,0.9413,0.9409,0.9413,0.9784,1.0154,1.0415,1.0102,1.0154,1.0466,1.0466,1.0261,0.9999,0.9999,0.9832,0.9614,0.9614,0.9614,0.9562,0.9465,0.9312,0.9162,0.9061,0.891,0.8808,0.8808,0.8808,0.8906,0.9465,0.9462,0.9514,1.0064,1.0111,1.0123,1.0612,1.0722,1.0922,1.1573,1.1623,1.1573,1.1678,1.1823,1.2071,1.255,1.2749,1.3055,1.363,1.4045,1.4586,1.5417,1.5605,1.6111,1.7141,1.6761,1.6545,1.6761,1.654,1.6379,1.6379,1.6379,1.6182,1.5742,1.6146,1.6172,1.5732,1.6207,1.6745,1.7257,1.7257,1.7869,1.8993,1.9133,1.9534,0.0,0.0,0.0,1.917,1.8536,1.8241,1.7986,1.8045,1.8413,1.941,2.0463,2.0935,2.0047,2.0709,2.1227,2.0805,2.0495,2.0096,1.9559,1.8705,1.7972,1.7464,1.6834,1.6262,1.5852,1.5662,1.5266,1.4525,1.434,1.3978,1.3339,1.3094,1.2793,1.2452,1.222,1.1972,1.1723,1.0956,1.0289,0.9662,0.9312,0.905,0.8886,0.9047,0.9312,0.9681,0.9877,1.019,1.047,1.0261,1.0106,0.9995,0.9832,0.9669,0.9614,0.9614,0.9614,0.9614,0.9566,0.9361,0.9211,0.9162,0.8959,0.8808,0.8808,0.8808,0.8959,0.9865,0.981,0.9817,1.0994,1.0952,1.0651,1.1019,1.1074,1.1171,1.1372,1.1473,1.1523,1.1573,1.1623,1.1669,1.1755,1.2133,1.2516,1.2764,1.33,1.4014,1.4826,1.5247,1.5717,1.6411,1.6576,1.6653,1.6545,1.6436,1.6379,1.6379,1.6379,1.6172,1.5706,1.5846,1.5722,1.5256,1.5406,1.5883,1.6689,1.7051,1.7644,1.8429,1.8869,1.9454,2.0794,0.0,0.0,0.0,0.0,1.8014,1.6178,1.6135,1.678,1.7799,1.8837,1.9443,1.9024,1.9461,1.9733,1.9381,1.9134,1.8809,1.8327,1.7531,1.6828,1.6352,1.5872,1.5394,1.4892,1.4846,1.452,1.3642,1.3452,1.318,1.2725,1.2426,1.2071,1.1569,1.1619,1.1314,1.0604,1.0245,0.9769,0.9134,0.8781,0.8577,0.8524,0.8732,0.8995,0.9361,0.9921,1.0241,1.0462,1.0458,1.036,1.0304,0.9988,0.9829,0.9725,0.9614,0.9614,0.9614,0.9614,0.9413,0.9211,0.9211,0.9008,0.8808,0.8808,0.891,0.9159,0.9714,0.9972,1.0285,1.1099,1.1217,1.112,1.1276,1.1322,1.1322,1.1322,1.1377,1.1423,1.1423,1.1477,1.1473,1.1372,1.1755,1.2084,1.2133,1.2659,1.3308,1.4092,1.4635,1.509,1.5669,1.599,1.6192,1.6192,1.6151,1.6213,1.6368,1.6379,1.6172,1.5706,1.5841,1.5701,1.5235,1.538,1.5763,1.6379,1.6794,1.7384,1.8093,1.8715,1.9356,0.0,0.0,0.0,0.0,0.0,0.0,1.3619,0.0,1.492,1.7381,1.7467,1.7394,1.8318,1.8152,1.7531,1.6473,1.6579,1.6538,1.5914,1.5888,1.5806,1.5311,1.5142,1.4634,1.351,1.3415,1.3132,1.2524,1.2475,1.2529,1.2681,1.2175,1.1418,1.0454,1.0964,1.06,0.9211,0.9187,0.8761,0.7928,0.7925,0.8093,0.8424,0.8893,0.9309,0.9562,1.0138,1.0348,1.0399,1.1019,1.112,1.0871,1.062,1.0312,0.9947,0.9721,0.9614,0.9614,0.9614,0.9413,0.9211,0.9211,0.9008,0.8808,0.8808,0.9162,0.9462,0.9012,0.994,1.0964,1.0375,1.0893,1.1473,1.1322,1.1322,1.1322,1.1322,1.1322,1.1322,1.1322,1.1427,1.1473,1.1473,1.1623,1.1678,1.1673,1.2015,1.2511,1.3104,1.358,1.4106,1.4794,1.4929,1.5183,1.5649,1.5675,1.5866,1.6327,1.6358,1.6151,1.5691,1.6115,1.6141,1.5675,1.611,1.6348,1.6358,1.6449,1.704,1.8093,1.8709,1.9356,2.1225,0.0,0.0,0.0,0.0,0.0,1.6707,0.0,1.6654,1.5671,1.6394,1.6525,1.4379,1.4809,1.5033,1.3677,1.5156,1.6342,1.5915,1.5472,1.5045,1.4686,1.417,1.3795,1.3563,1.3213,1.2817,0.0,1.221,1.1977,1.1823,1.1263,1.0808,1.0399,1.0186,0.9825,0.9364,0.9138,0.8771,0.8259,0.8037,0.7877,0.7883,0.8043,0.8203,0.8421,0.8988,0.9454,0.9873,1.0659,1.0972,1.0871,1.062,1.0312,0.9999,0.9943,0.9781,0.9614,0.9614,0.9462,0.9312,0.9208,0.9057,0.891,0.8808,0.891,0.9159,0.9762,1.0273,1.0681,1.115,1.1314,1.1326,1.1326,1.1322,1.1322,1.1322,1.1322,1.1322,1.1322,1.1326,1.1372,1.1372,1.1377,1.1423,1.1523,1.167,1.1888,1.2337,1.3052,1.3615,1.4012,1.463,1.5183,1.5649,1.538,1.5385,1.5851,1.5877,1.567,1.5204,1.5634,1.5665,1.5199,1.5313,1.5546,1.5882,1.6649,1.7186,1.7479,1.8542,1.9099,0.0,0.0,0.0,0.0,0.0,0.0,1.58,1.554,1.5408,1.3538,1.3923,1.4092,1.2492,1.281,1.2889,1.1563,1.3196,1.4742,1.5227,1.4886,1.4449,1.4041,1.3505,1.3117,1.2992,1.2638,1.229,1.2039,1.181,1.1573,1.1423,1.0702,1.0186,1.0083,0.9721,0.9249,0.8672,0.8662,0.8405,0.7949,0.778,0.7771,0.7771,0.778,0.8049,0.8477,0.8676,0.9246,0.998,1.034,1.0659,1.0871,1.062,1.0312,0.9999,0.9888,0.9725,0.9614,0.9614,0.9462,0.9312,0.9211,0.9057,0.891,0.8808,0.8959,0.926,0.9913,1.0379,1.0842,1.1469,1.1523,1.1377,1.1322,1.1322,1.1322,1.1322,1.1322,1.1322,1.1322,1.1322,1.1322,1.1322,1.1322,1.1326,1.1423,1.1423,1.1573,1.1977,1.2584,1.3077,1.3402,1.3997,1.4609,1.5075,1.5038,1.5194,1.5659,1.5872,1.5856,1.5587,1.5835,1.5851,1.5582,1.5572,1.5706,1.5975,1.6356,1.6801,1.7196,1.8207,1.8768,0.0,0.0,0.0,0.0,1.9295,0.0,1.3481,1.2959,1.3212,1.1866,1.1399,1.1368,1.1854,1.176,1.1245,1.018,1.1098,1.2406,1.3806,1.4079,1.3889,1.3314,1.2919,1.2535,1.2121,1.1972,1.1773,1.1523,1.1322,1.1217,1.1217,1.0233,0.9658,0.951,0.9305,0.8728,0.767,0.7925,0.7774,0.7314,0.7416,0.7619,0.7874,0.7839,0.8321,0.9054,0.8834,0.9354,1.0297,1.0075,1.0336,1.0871,1.062,1.0312,0.9947,0.9725,0.9614,0.9614,0.9614,0.9409,0.9211,0.9211,0.9008,0.8808,0.8808,0.9106,0.951,0.961,1.034,1.112,1.1423,1.1477,1.1427,1.1326,1.1322,1.1322,1.1322,1.1322,1.1322,1.1322,1.1322,1.1322,1.1322,1.1322,1.1322,1.1322,1.1322,1.1427,1.1778,1.2224,1.2613,1.2924,1.3319,1.3802,1.4267,1.4681,1.5116,1.5582,1.6048,1.6301,1.6301,1.6353,1.6379,1.6379,1.6379,1.6379,1.6379,1.5965,1.6227,1.7157,1.7705,1.8315,0.0,0.0,0.0,0.0,1.953,0.0,1.7843,1.7089,1.6047,1.3919,1.3382,1.271,1.0732,1.0637,1.0724,1.0179,1.0473,1.0969,1.137,1.266,1.3261,1.2365,1.2143,1.2067,1.2076,1.1773,1.1573,1.1523,1.0913,1.0557,1.0557,0.9558,0.8984,0.8932,0.8471,0.8002,0.7518,0.7566,0.7518,0.7314,0.7314,0.7416,0.7568,0.7571,0.7895,0.8374,0.8325,0.889,0.9769,0.9718,1.0135,1.0871,1.062,1.0312,0.9999,0.9943,0.9777,0.9614,0.9614,0.9514,0.9364,0.9208,0.911,0.8959,0.8857,0.8857,0.911,0.9862,1.0383,1.0812,1.1368,1.1423,1.1322,1.1326,1.1322,1.1322,1.1322,1.1322,1.1322,1.1322,1.1322,1.1322,1.1322,1.1322,1.1322,1.1322,1.1322,1.1326,1.1427,1.2071,1.2524,1.2569,1.319,1.3802,1.4267,1.4386,1.464,1.5106,1.5572,1.582,1.582,1.6177,1.6379,1.6379,1.6379,1.6379,1.6379,1.6291,1.6337,1.6586,1.7112,1.7705,0.0,0.0,0.0,1.8278,1.7942,0.0,0.0,1.5786,1.4819,1.2722,1.2259,1.1615,0.9694,0.9861,0.987,0.8624,0.9144,0.9511,0.894,1.0388,1.1422,1.1148,1.1145,1.1213,1.1314,1.1368,1.1272,1.0964,1.0344,0.998,0.998,0.8939,0.8468,0.8774,0.815,0.7678,0.7521,0.7339,0.7178,0.7023,0.6954,0.7315,0.7948,0.7899,0.8391,0.9309,0.8689,0.8977,0.9772,0.9208,0.9388,1.0011,1.0041,0.9857,0.9589,0.9421,0.9255,0.9149,0.9093,0.9044,0.9003,0.8755,0.8765,0.8883,0.8686,0.9044,0.951,0.9562,1.0083,1.0655,1.0913,1.0909,1.0918,1.1221,1.1322,1.1322,1.1322,1.1322,1.1322,1.1322,1.1322,1.1322,1.1322,1.1322,1.1322,1.1322,1.1322,1.1372,1.1573,1.1972,1.2318,1.2701,1.3079,1.3458,1.3893,1.4386,1.4754,1.4987,1.5649,1.6032,1.6032,1.6255,1.6379,1.6379,1.6379,1.6379,1.6379,1.6379,1.6379,1.6436,1.6944,1.7368,0.0,0.0,0.0,0.0,0.0,1.5668,0.0,0.0,0.0,1.1393,1.0894,1.0423,0.9475,0.9477,0.904,0.7283,0.78,0.0,0.0,0.8106,0.0,0.9617,1.0004,1.0224,1.036,1.0744,1.0749,1.0127,0.9607,0.9347,0.9458,0.8474,0.8106,0.862,0.804,0.7596,0.7449,0.714,0.6866,0.6668,0.672,0.7241,0.8196,0.815,0.8882,1.0038,0.8994,0.9002,0.9674,0.878,0.8627,0.9031,0.9304,0.9272,0.9051,0.8787,0.8685,0.8634,0.8576,0.8548,0.8522,0.8235,0.8386,0.8691,0.8612,0.9264,0.9917,0.9472,0.9936,1.0553,1.0553,1.0553,1.071,1.1171,1.1322,1.1322,1.1322,1.1322,1.1322,1.1322,1.1322,1.1322,1.1322,1.1322,1.1322,1.1322,1.1322,1.1423,1.1723,1.1927,1.2264,1.2832,1.3021,1.3266,1.3563,1.4381,1.4904,1.4992,1.5784,1.6286,1.6374,1.6379,1.6379,1.6379,1.6379,1.6379,1.6379,1.6379,1.6379,1.6436,1.6842,1.7101,0.0,0.0,0.0,0.0,1.5392,1.4716,1.4695,0.0,1.3165,1.2862,0.0,1.1411,1.1159,0.0,0.0,0.0,0.7253,0.6753,0.6975,0.6555,0.663,0.7687,0.8783,0.946,0.953,0.9677,0.9574,0.9093,0.8475,0.833,0.8879,0.8262,0.7955,0.8005,0.778,0.7568,0.7252,0.7059,0.6834,0.6436,0.7015,0.7372,0.75,0.78,0.8216,0.8688,0.8283,0.835,0.8834,0.8699,0.8688,0.8739,0.8776,0.879,0.874,0.8699,0.8631,0.8526,0.8634,0.8468,0.8201,0.8261,0.8338,0.8565,0.9137,0.9284,0.9469,1.0304,1.0458,1.0557,1.107,1.1221,1.1221,1.1272,1.1322,1.1322,1.1322,1.1322,1.1322,1.1322,1.1322,1.1322,1.1322,1.1322,1.1322,1.1322,1.1322,1.1322,1.1372,1.1972,1.2475,1.2573,1.3137,1.3563,1.3615,1.4086,1.4557,1.4971,1.5484,1.5954,1.6358,1.6379,1.6379,1.6379,1.6379,1.6379,1.6379,1.6379,1.6379,1.6379,1.6488,1.674,0.0,0.0,0.0,0.0,0.0,0.0,1.2619,0.0,1.2039,1.2008,0.0,0.0,0.0,0.0,0.0,0.0,0.7857,0.7441,0.7105,0.0,0.553,0.6818,0.0,0.0,0.7969,0.8089,0.8065,0.7912,0.7744,0.7854,0.8253,0.7943,0.7717,0.7625,0.7463,0.7238,0.6836,0.6641,0.642,0.618,0.675,0.7086,0.7273,0.7968,0.839,0.8569,0.8389,0.8392,0.8392,0.8202,0.8125,0.8125,0.8125,0.8238,0.8385,0.8194,0.8074,0.8023,0.7986,0.8101,0.8369,0.8693,0.8896,0.9022,0.9294,0.9519,0.9718,0.9984,0.998,1.0083,1.0655,1.0761,1.0863,1.1221,1.1322,1.1322,1.1322,1.1322,1.1322,1.1322,1.1322,1.1322,1.1322,1.1322,1.1322,1.1322,1.1322,1.1322,1.1322,1.1573,1.1977,1.2426,1.2764,1.3142,1.3568,1.404,1.45,1.4966,1.5685,1.6177,1.6374,1.6379,1.6379,1.6379,1.6379,1.6379,1.6379,1.6379,1.6379,1.6379,1.6379,1.6534,1.0257,0.0,0.0,0.0,0.0,0.0,0.0,0.0,0.0,0.0,1.0893,0.0,0.0,0.0,0.0,0.0,0.0,0.8153,0.0,0.5849,0.5129,0.5986,0.6178,0.0,0.0,0.6629,0.6699,0.6771,0.6704,0.7025,0.7766,0.754,0.7424,0.7505,0.7289,0.6979,0.6582,0.6288,0.6164,0.6202,0.6527,0.6878,0.7309,0.8003,0.835,0.8336,0.8331,0.8237,0.8052,0.781,0.7715,0.7715,0.7666,0.7812,0.7987,0.7754,0.7625,0.7587,0.7458,0.773,0.8234,0.8742,0.8891,0.8902,0.9092,0.9471,0.9879,0.973,0.9904,1.0182,1.0553,1.0659,1.0761,1.1221,1.1322,1.1322,1.1322,1.1322,1.1322,1.1322,1.1322,1.1322,1.1322,1.1322,1.1322,1.1322,1.1322,1.1322,1.1322,1.1423,1.1678,1.2274,1.2426,1.2759,1.3372,1.3769,1.4265,1.4961,1.5747,1.6249,1.6374,1.6379,1.6379,1.6379,1.6379,1.6317,1.6193,1.6193,1.6193,1.6193,1.6322,1.6379,0.0,0.0,0.0,0.9868,0.0,0.0,0.0,0.0,1.0817,0.0,0.0,0.0,0.0,0.0,0.0,0.0,0.0,0.0,0.0,0.655,0.5439,0.4829,0.5089,0.5398,0.0,0.5534,0.5587,0.5663,0.5045,0.5535,0.7514,0.6934,0.6906,0.7688,0.7266,0.687,0.6582,0.6189,0.6247,0.6663,0.6705,0.7025,0.7693,0.7693,0.7743,0.7726,0.7734,0.773,0.773,0.7719,0.7715,0.767,0.7569,0.753,0.7538,0.7527,0.7447,0.7416,0.7416,0.7342,0.732,0.7924,0.7887,0.767,0.8243,0.8985,0.9682,0.9922,1.0574,1.1272,1.1272,1.1272,1.1272,1.1322,1.1322,1.1322,1.1322,1.1322,1.1322,1.1322,1.1322,1.1322,1.1322,1.1322,1.1322,1.1322,1.1322,1.1322,1.1322,1.1623,1.1873,1.1927,1.2278,1.2662,1.2967,1.3025,1.361,1.494,1.5442,1.5913,1.6358,1.6379,1.6379,1.6379,1.6379,1.6161,1.5711,1.5711,1.5711,1.5722,1.6172,1.6379,0.0,0.0,0.7117,0.7233,0.0,0.0,0.0,0.0,0.0,0.0,0.0,0.0,0.0,0.0,0.0,0.0,0.0,0.0,0.0,0.4903,0.3958,0.3463,0.3616,0.3767,0.3676,0.3588,0.4095,0.5391,0.5249,0.5922,0.7779,0.7567,0.7297,0.7255,0.6978,0.6675,0.649,0.6309,0.6233,0.625,0.669,0.6733,0.6404,0.7281,0.7439,0.7075,0.7504,0.7715,0.7715,0.7715,0.7666,0.7572,0.7523,0.7485,0.745,0.7731,0.7814,0.7818,0.807,0.7859,0.7625,0.8078,0.8298,0.8444,0.8832,0.9175,0.9528,0.9866,1.0069,1.0182,1.0182,1.0442,1.0706,1.0706,1.1015,1.1322,1.1322,1.1322,1.1322,1.1322,1.1322,1.1322,1.1322,1.1322,1.1322,1.1322,1.1322,1.1322,1.1322,1.1423,1.1623,1.1873,1.2026,1.2363,1.2967,1.3538,1.4046,1.4521,1.4976,1.5437,1.5903,1.5628,1.5608,1.5913,1.5618,1.539,1.523,1.523,1.523,1.5235,1.5396,1.5993,0.4048,0.4385,0.0,0.5427,0.5592,0.0,0.6509,0.0,0.7157,0.0,0.0,0.0,0.0,0.0,0.0,0.0,0.0,0.0,0.0,0.4173,0.3462,0.2801,0.29,0.2953,0.2718,0.2755,0.3424,0.4962,0.5083,0.5836,0.7536,0.7502,0.7291,0.7116,0.6832,0.6614,0.6517,0.6433,0.6405,0.6376,0.6537,0.6502,0.6238,0.7006,0.7161,0.6901,0.7458,0.7715,0.7715,0.7666,0.7572,0.7478,0.7402,0.737,0.7374,0.7617,0.7693,0.7686,0.8099,0.7893,0.7516,0.7897,0.8118,0.8294,0.8341,0.8708,0.9131,0.9332,0.9466,0.9614,0.9614,0.998,1.0403,1.0403,1.0863,1.1322,1.1322,1.1322,1.1322,1.1322,1.1322,1.1322,1.1322,1.1322,1.1322,1.1322,1.1322,1.1322,1.1322,1.1322,1.1423,1.1673,1.1678,1.1968,1.274,1.3441,1.3974,1.4298,1.4588,1.4961,1.5427,1.5158,1.5214,1.568,1.5235,1.4997,1.4997,1.4831,1.4754,1.4754,1.4754,1.5453]},{"header":{"parameterUnit":"m.s-1","parameterCategory":1,"la1":30.6,"la2":29.2853,"lo1":-89.7004,"lo2":-87.6739,"dy":0.0162,"dx":0.0183,"nx":112,"ny":82,"refTime":"2023-07-23T18:00:00:Z","depth":0,"parameterNumber":3,"parameterNumberName":"V-component_of_WINDS"},"data":[0.0,0.0,0.0,0.0,0.0,0.0,0.0,0.0,0.0,0.0,0.0,0.0,0.0,0.0,0.0,0.0,0.0,0.0,0.0,0.0,0.0,0.0,0.0,0.0,0.0,0.0,0.0,0.0,0.0,0.0,0.0,0.0,0.0,0.0,0.0,0.0,0.0,0.0,0.0,0.0,0.0,0.0,0.0,0.0,0.0,0.0,0.0,0.0,0.0,0.0,0.0,0.0,0.0,0.0,0.0,0.0,0.0,0.0,0.0,0.0,0.0,0.0,0.0,0.0,0.0,0.0,0.0,0.0,0.0,0.0,0.0,0.0,0.0,0.0,0.0,0.0,0.0,0.0,0.0,0.0,0.0,0.0,0.0,0.0,0.0,0.0,0.0,0.0,0.0,0.0,-0.5421,-0.5283,-0.5024,-0.4891,-0.4924,-0.4779,-0.4635,-0.456,0.0,0.0,0.0,0.0,0.0,0.0,0.0,0.0,0.0,0.0,0.0,0.0,0.0,0.0,0.0,0.0,0.0,0.0,0.0,0.0,0.0,0.0,0.0,0.0,0.0,0.0,0.0,0.0,0.0,0.0,0.0,0.0,0.0,0.0,0.0,0.0,0.0,0.0,0.0,0.0,0.0,0.0,0.0,0.0,0.0,0.0,0.0,0.0,0.0,0.0,0.0,0.0,0.0,0.0,0.0,0.0,0.0,0.0,0.0,0.0,0.0,0.0,0.0,0.0,0.0,0.0,0.0,0.0,0.0,0.0,0.0,0.0,0.0,0.0,0.0,0.0,0.0,0.0,0.0,0.0,0.0,0.0,0.0,0.0,0.0,0.0,0.0,0.0,0.0,0.0,0.0,0.0,0.0,0.0,0.0,0.0,0.0,0.0,0.0,0.0,0.0,0.0,0.0,0.0,-0.5148,-0.4671,-0.4507,-0.4335,-0.4095,-0.4089,-0.4163,-0.4254,0.0,0.0,0.0,0.0,0.0,0.0,0.0,0.0,0.0,0.0,0.0,0.0,0.0,0.0,0.0,0.0,0.0,0.0,0.0,0.0,0.0,0.0,0.0,0.0,0.0,0.0,0.0,0.0,0.0,0.0,0.0,0.0,0.0,0.0,0.0,0.0,0.0,0.0,0.0,0.0,0.0,0.0,0.0,0.0,0.0,0.0,0.0,0.0,0.0,0.0,0.0,0.0,0.0,0.0,0.0,0.0,0.0,0.0,0.0,0.0,0.0,0.0,0.0,0.0,0.0,0.0,0.0,0.0,0.0,0.0,0.0,0.0,0.0,0.0,0.0,0.0,0.0,0.0,0.0,0.0,0.0,0.0,0.0,0.0,0.0,0.0,0.0,0.0,0.0,0.0,0.0,0.0,0.0,0.0,0.0,0.0,0.0,0.0,0.0,0.0,0.0,0.0,0.0,-0.5312,-0.5139,-0.4707,-0.4524,-0.4299,-0.4081,-0.3934,-0.3896,-0.4021,-0.4277,0.0,0.0,0.0,0.0,0.0,0.0,0.0,0.0,0.0,0.0,0.0,0.0,0.0,0.0,0.0,0.0,0.0,0.0,0.0,0.0,0.0,0.0,0.0,0.0,0.0,0.0,0.0,0.0,0.0,0.0,0.0,0.0,0.0,0.0,0.0,0.0,0.0,0.0,0.0,0.0,0.0,0.0,0.0,0.0,0.0,0.0,0.0,0.0,0.0,0.0,0.0,0.0,0.0,0.0,0.0,0.0,0.0,0.0,0.0,0.0,0.0,0.0,0.0,0.0,0.0,0.0,0.0,0.0,0.0,0.0,0.0,0.0,0.0,0.0,0.0,0.0,0.0,0.0,0.0,0.0,0.0,0.0,0.0,0.0,0.0,0.0,0.0,0.0,0.0,0.0,0.0,0.0,0.0,0.0,0.0,0.0,0.0,0.0,0.0,0.0,0.0,0.0,-0.5214,-0.5122,-0.4774,-0.4601,-0.4372,-0.4115,-0.3838,-0.3706,-0.3806,-0.3911,0.0,0.0,0.0,0.0,0.0,0.0,0.0,0.0,0.0,0.0,0.0,0.0,0.0,0.0,0.0,0.0,0.0,0.0,0.0,0.0,0.0,0.0,0.0,0.0,0.0,0.0,0.0,0.0,0.0,0.0,0.0,0.0,0.0,0.0,0.0,0.0,0.0,0.0,0.0,0.0,0.0,0.0,0.0,0.0,0.0,0.0,0.0,0.0,0.0,0.0,0.0,0.0,0.0,0.0,0.0,0.0,0.0,0.0,0.0,0.0,0.0,0.0,0.0,0.0,0.0,0.0,0.0,0.0,0.0,0.0,0.0,0.0,0.0,0.0,0.0,0.0,0.0,0.0,0.0,0.0,0.0,0.0,0.0,0.0,0.0,0.0,0.0,0.0,0.0,0.0,0.0,0.0,0.0,0.0,0.0,0.0,0.0,0.0,0.0,0.0,0.0,0.0,-0.5023,-0.4925,-0.4634,-0.4491,-0.4234,-0.3787,-0.3649,-0.3573,-0.353,-0.3697,0.0,0.0,0.0,0.0,0.0,0.0,0.0,0.0,0.0,0.0,0.0,0.0,0.0,0.0,0.0,0.0,0.0,0.0,0.0,0.0,0.0,0.0,0.0,0.0,0.0,0.0,0.0,0.0,0.0,0.0,0.0,0.0,0.0,0.0,0.0,0.0,0.0,0.0,0.0,0.0,0.0,0.0,0.0,0.0,0.0,0.0,0.0,0.0,0.0,0.0,0.0,0.0,0.0,0.0,0.0,0.0,0.0,0.0,0.0,0.0,0.0,0.0,0.0,0.0,0.0,0.0,0.0,0.0,0.0,0.0,0.0,0.0,0.0,0.0,0.0,0.0,0.0,0.0,0.0,0.0,0.0,0.0,0.0,0.0,0.0,0.0,0.0,0.0,0.0,0.0,0.0,0.0,0.0,0.0,0.0,0.0,0.0,0.0,0.0,0.0,0.0,0.0,-0.4992,-0.496,-0.4861,-0.4454,-0.4136,-0.3948,-0.3632,-0.3447,-0.3501,0.0,0.0,0.0,0.0,0.0,0.0,0.0,0.0,0.0,0.0,0.0,0.0,0.0,0.0,0.0,0.0,0.0,0.0,0.0,0.0,0.0,0.0,0.0,0.0,0.0,0.0,0.0,0.0,0.0,0.0,0.0,0.0,0.0,0.0,0.0,0.0,0.0,0.0,0.0,0.0,0.0,0.0,0.0,0.0,0.0,0.0,0.0,0.0,0.0,0.0,0.0,0.0,0.0,0.0,0.0,0.0,0.0,0.0,0.0,0.0,0.0,0.0,0.0,0.0,0.0,0.0,0.0,0.0,0.0,0.0,0.0,0.0,0.0,0.0,0.0,0.0,0.0,0.0,0.0,0.0,0.0,0.0,0.0,0.0,0.0,0.0,0.0,0.0,0.0,0.0,0.0,0.0,0.0,0.0,0.0,0.0,0.0,0.0,0.0,0.0,0.0,0.0,-0.4968,-0.4931,-0.4928,-0.4957,-0.4436,-0.4075,-0.4105,-0.3595,-0.3266,-0.3315,0.0,0.0,0.0,0.0,0.0,0.0,0.0,0.0,0.0,0.0,0.0,0.0,0.0,0.0,0.0,0.0,0.0,0.0,0.0,0.0,0.0,0.0,0.0,0.0,0.0,0.0,0.0,0.0,0.0,0.0,0.0,0.0,0.0,0.0,0.0,0.0,0.0,0.0,0.0,0.0,0.0,0.0,0.0,0.0,0.0,0.0,0.0,0.0,0.0,0.0,0.0,0.0,0.0,0.0,0.0,0.0,0.0,0.0,0.0,0.0,0.0,0.0,0.0,0.0,0.0,0.0,0.0,0.0,0.0,0.0,0.0,0.0,0.0,0.0,0.0,0.0,0.0,0.0,0.0,0.0,0.0,0.0,0.0,0.0,0.0,0.0,0.0,0.0,0.0,0.0,0.0,0.0,0.0,0.0,0.0,0.0,0.0,0.0,0.0,0.0,0.0,0.0,-0.4852,-0.4815,-0.4838,-0.4893,-0.4377,-0.4021,-0.4105,-0.356,-0.3113,0.0,0.0,0.0,0.0,0.0,0.0,0.0,0.0,0.0,0.0,0.0,0.0,0.0,0.0,0.0,0.0,0.0,0.0,0.0,0.0,0.0,0.0,0.0,0.0,0.0,0.0,0.0,0.0,0.0,0.0,0.0,0.0,0.0,0.0,0.0,0.0,0.0,0.0,0.0,0.0,0.0,0.0,0.0,0.0,0.0,0.0,0.0,0.0,0.0,0.0,0.0,0.0,0.0,0.0,0.0,0.0,0.0,0.0,0.0,0.0,0.0,0.0,0.0,0.0,0.0,0.0,0.0,0.0,0.0,0.0,0.0,0.0,0.0,0.0,0.0,0.0,0.0,0.0,0.0,0.0,0.0,0.0,0.0,0.0,0.0,0.0,0.0,0.0,0.0,0.0,0.0,0.0,0.0,0.0,0.0,0.0,0.0,0.0,0.0,0.0,0.0,0.0,0.0,-0.5101,-0.4925,-0.4882,-0.5172,-0.4677,-0.4272,-0.4105,-0.3751,-0.335,-0.2865,0.0,0.0,0.0,0.0,0.0,0.0,0.0,0.0,0.0,0.0,0.0,0.0,0.0,0.0,0.0,0.0,0.0,0.0,0.0,0.0,0.0,0.0,0.0,0.0,0.0,0.0,0.0,0.0,0.0,0.0,0.0,0.0,0.0,0.0,0.0,0.0,0.0,0.0,0.0,0.0,0.0,0.0,0.0,0.0,0.0,0.0,0.0,0.0,0.0,0.0,0.0,0.0,0.0,0.0,0.0,0.0,0.0,0.0,0.0,0.0,0.0,0.0,0.0,0.0,0.0,0.0,0.0,0.0,0.0,0.0,0.0,0.0,0.0,0.0,0.0,0.0,0.0,0.0,0.0,0.0,0.0,0.0,0.0,0.0,0.0,0.0,0.0,0.0,0.0,0.0,0.0,0.0,0.0,0.0,0.0,0.0,0.0,0.0,0.0,0.0,0.0,0.0,-0.5216,-0.5162,-0.5149,-0.5097,-0.4881,-0.4573,-0.4145,-0.3844,-0.3484,-0.3022,0.0,0.0,0.0,0.0,0.0,0.0,0.0,0.0,0.0,0.0,0.0,0.0,0.0,0.0,0.0,0.0,0.0,0.0,0.0,0.0,0.0,0.0,0.0,0.0,0.0,0.0,0.0,0.0,0.0,0.0,0.0,0.0,0.0,0.0,0.0,0.0,0.0,0.0,0.0,0.0,0.0,0.0,0.0,0.0,0.0,0.0,0.0,0.0,0.0,0.0,0.0,0.0,0.0,0.0,0.0,0.0,0.0,0.0,0.0,0.0,0.0,0.0,0.0,0.0,0.0,0.0,0.0,0.0,0.0,0.0,0.0,0.0,0.0,0.0,0.0,0.0,0.0,0.0,0.0,0.0,0.0,0.0,0.0,0.0,0.0,0.0,0.0,0.0,0.0,0.0,0.0,0.0,0.0,0.0,0.0,0.0,0.0,0.0,0.0,0.0,0.0,0.0,-0.5304,-0.5505,-0.5483,-0.4941,-0.5051,-0.4888,-0.419,-0.3888,-0.3628,-0.3316,0.0,0.0,0.0,0.0,0.0,0.0,0.0,0.0,0.0,0.0,0.0,0.0,0.0,0.0,0.0,0.0,0.0,0.0,0.0,0.0,0.0,0.0,0.0,0.0,0.0,0.0,0.0,0.0,0.0,0.0,0.0,0.0,0.0,0.0,0.0,0.0,0.0,0.0,0.0,0.0,0.0,0.0,0.0,0.0,0.0,0.0,0.0,0.0,0.0,0.0,0.0,0.0,0.0,0.0,0.0,0.0,0.0,0.0,0.0,0.0,-0.8144,0.0,0.0,0.0,0.0,0.0,0.0,0.0,0.0,0.0,0.0,0.0,0.0,0.0,0.0,0.0,0.0,0.0,0.0,0.0,0.0,0.0,0.0,0.0,0.0,0.0,0.0,0.0,0.0,0.0,0.0,0.0,0.0,0.0,0.0,0.0,0.0,0.0,0.0,0.0,0.0,0.0,-0.5806,-0.5737,-0.5622,-0.5451,-0.5453,-0.5214,-0.4464,-0.4217,-0.3833,-0.3245,-0.3458,0.0,0.0,0.0,0.0,0.0,0.0,0.0,0.0,0.0,0.0,0.0,0.0,0.0,0.0,0.0,0.0,0.0,0.0,0.0,0.0,0.0,0.0,0.0,0.0,0.0,0.0,0.0,0.0,0.0,0.0,0.0,0.0,0.0,0.0,0.0,0.0,0.0,0.0,0.0,0.0,0.0,0.0,0.0,0.0,0.0,0.0,0.0,0.0,0.0,0.0,0.0,0.0,0.0,0.0,0.0,0.0,0.0,0.0,0.0,0.0,-0.8809,0.0,0.0,0.0,0.0,0.0,0.0,0.0,0.0,0.0,0.0,0.0,0.0,0.0,0.0,0.0,0.0,0.0,0.0,0.0,0.0,0.0,0.0,0.0,0.0,0.0,0.0,0.0,0.0,0.0,0.0,0.0,0.0,0.0,0.0,0.0,0.0,0.0,0.0,0.0,0.0,-0.581,-0.5985,-0.5948,-0.5633,-0.5676,-0.5486,-0.4786,-0.4513,-0.4175,-0.3714,-0.3552,0.0,0.0,0.0,0.0,0.0,0.0,0.0,0.0,0.0,0.0,0.0,0.0,0.0,0.0,0.0,0.0,0.0,0.0,0.0,0.0,0.0,0.0,0.0,0.0,0.0,0.0,0.0,0.0,0.0,0.0,0.0,0.0,0.0,0.0,0.0,0.0,0.0,0.0,0.0,0.0,0.0,0.0,0.0,0.0,0.0,0.0,0.0,0.0,0.0,0.0,0.0,0.0,0.0,-0.9414,-0.9617,-0.9964,-0.9964,-1.0358,-1.0953,-0.99,-0.9564,-0.968,-0.8907,0.0,0.0,0.0,0.0,0.0,0.0,0.0,0.0,0.0,0.0,0.0,0.0,0.0,0.0,0.0,0.0,0.0,0.0,0.0,0.0,0.0,0.0,-0.7209,-0.7041,-0.7031,-0.7112,-0.7209,0.0,0.0,0.0,0.0,0.0,0.0,0.0,0.0,0.0,0.0,0.0,-0.5774,-0.6172,-0.6271,-0.5695,-0.5787,-0.5651,-0.5101,-0.4771,-0.45,-0.4274,-0.3684,-0.3354,0.0,0.0,0.0,0.0,0.0,0.0,0.0,0.0,0.0,0.0,0.0,0.0,0.0,0.0,0.0,0.0,0.0,0.0,0.0,0.0,0.0,0.0,0.0,0.0,0.0,0.0,0.0,0.0,0.0,0.0,0.0,0.0,-0.6517,-0.7641,0.0,0.0,0.0,0.0,0.0,0.0,0.0,0.0,0.0,0.0,0.0,0.0,0.0,-0.9174,-0.9533,-0.9904,-1.0291,-1.0657,-1.1041,-1.1286,-1.1344,-1.1344,-1.1417,-1.1509,-1.131,0.0,-1.0164,-0.9645,0.0,0.0,0.0,0.0,0.0,0.0,0.0,0.0,0.0,0.0,0.0,0.0,0.0,0.0,0.0,0.0,0.0,0.0,0.0,0.0,0.0,0.0,-0.7443,-0.737,-0.7332,-0.737,-0.7374,-0.6901,-0.6496,-0.6419,-0.6263,-0.6102,0.0,0.0,0.0,0.0,0.0,0.0,-0.6274,-0.6422,-0.6295,-0.5834,-0.5854,-0.5692,-0.5208,-0.4808,-0.4599,-0.4567,-0.4131,-0.3811,-0.3575,-0.3328,0.0,0.0,0.0,0.0,0.0,0.0,0.0,0.0,0.0,0.0,0.0,0.0,0.0,0.0,0.0,0.0,0.0,0.0,0.0,0.0,0.0,0.0,0.0,0.0,0.0,0.0,0.0,0.0,0.0,-0.5916,-0.6553,-0.7031,-0.7328,-0.7525,0.0,0.0,0.0,0.0,0.0,0.0,0.0,0.0,0.0,-0.9606,-1.0164,-1.0535,-1.0707,-1.0927,-1.1108,-1.1295,-1.1519,-1.1738,-1.1934,-1.1934,-1.207,-1.2336,-1.2041,-1.1737,-1.1284,-1.0354,-0.9749,-0.9319,0.0,0.0,0.0,0.0,-0.9148,-0.937,-0.9652,-0.9689,-0.9632,-0.9673,0.0,0.0,0.0,0.0,0.0,0.0,0.0,-0.7651,0.0,0.0,-0.8175,-0.8186,-0.8065,-0.7845,-0.7497,-0.7125,-0.6875,-0.6956,-0.6696,-0.6443,-0.6297,-0.6483,0.0,0.0,0.0,-0.6575,-0.6696,-0.6741,-0.6656,-0.6441,-0.6299,-0.6098,-0.5743,-0.5395,-0.5177,-0.5101,-0.4701,-0.4377,-0.4238,-0.3639,-0.3502,0.0,0.0,0.0,0.0,0.0,0.0,0.0,0.0,0.0,0.0,0.0,0.0,0.0,0.0,0.0,0.0,0.0,0.0,0.0,0.0,0.0,0.0,0.0,0.0,0.0,0.0,0.0,0.0,-0.6398,-0.6799,-0.6499,-0.7389,-0.785,0.0,0.0,0.0,0.0,0.0,0.0,-0.9537,-0.9965,-1.0256,-1.0398,-1.1137,-1.1621,-1.1684,-1.1733,-1.1832,-1.1944,-1.2069,-1.2207,-1.2397,-1.2616,-1.2842,-1.305,-1.2849,-1.2598,-1.2306,-1.1128,-1.0419,-1.0098,-0.979,-0.9657,-0.9644,-0.9666,-0.9853,-1.018,-1.0517,-1.0559,-1.0493,-1.0479,-1.0058,-0.9533,-0.8972,0.0,0.0,0.0,0.0,-0.8293,-0.9209,-0.9109,-0.8783,-0.8836,-0.8666,-0.8353,-0.777,-0.7535,-0.7387,-0.7391,-0.7165,-0.689,-0.6682,-0.6985,0.0,-0.6483,-0.6696,-0.6953,-0.7031,-0.7037,-0.6999,-0.6917,-0.6661,-0.6368,-0.6117,-0.5834,-0.5639,-0.5556,-0.5235,-0.4966,-0.4779,-0.409,-0.3881,-0.423,0.0,0.0,0.0,0.0,0.0,0.0,0.0,0.0,0.0,0.0,0.0,0.0,0.0,0.0,0.0,0.0,0.0,0.0,0.0,0.0,0.0,0.0,0.0,0.0,0.0,0.0,0.0,0.0,0.0,-0.68,-0.8108,0.0,0.0,0.0,0.0,-0.9354,-0.9247,-0.9602,-1.0496,-1.0462,-1.0642,-1.1118,-1.1318,-1.1608,-1.1956,-1.21,-1.2402,-1.2861,-1.3273,-1.3288,-1.2895,-1.381,-1.3956,-1.3568,-1.3998,-1.3701,-1.2872,-1.1939,-1.1514,-1.1494,-1.1494,-1.1451,-1.1451,-1.1451,-1.1465,-1.1485,-1.1523,-1.1523,-1.1548,-1.1651,-1.1248,-1.0669,-1.0383,-0.9847,0.0,0.0,-0.9312,-0.9296,-0.9681,-0.9348,-0.8901,-0.8901,-0.8905,-0.8768,-0.8416,-0.8158,-0.7845,0.0,-0.7262,-0.7142,-0.6985,0.0,-0.6985,-0.6872,-0.6946,-0.7027,-0.7167,-0.7293,-0.7248,-0.6917,-0.6661,-0.6365,-0.6031,-0.5831,-0.5683,-0.568,-0.568,-0.5456,-0.4984,-0.493,-0.4655,-0.4108,-0.366,0.0,0.0,0.0,0.0,0.0,0.0,0.0,0.0,0.0,0.0,0.0,0.0,0.0,0.0,0.0,0.0,0.0,0.0,0.0,0.0,0.0,0.0,0.0,0.0,0.0,0.0,0.0,0.0,-0.7379,-0.8336,0.0,-0.8827,-0.9268,-0.9715,-1.0036,-1.0195,-1.0457,-1.0781,-1.1095,-1.1306,-1.1504,-1.2112,-1.2602,-1.2897,-1.3227,-1.3492,-1.38,-1.3983,-1.3978,-1.38,-1.4165,-1.4212,-1.4071,-1.4206,-1.4114,-1.3814,-1.3461,-1.2638,-1.1606,-1.1606,-1.1606,-1.1606,-1.1606,-1.1743,-1.1992,-1.1992,-1.1906,-1.1746,-1.1345,-1.1077,-1.0798,-1.0569,-1.0286,-1.0135,-1.0237,-1.0035,-0.9964,-1.0601,-1.031,-0.9795,-0.9779,-0.9684,-0.9392,-0.8843,-0.858,-0.8386,-0.8101,-0.7704,-0.736,-0.7314,-0.7652,-0.7742,-0.729,-0.7412,-0.7663,-0.784,-0.7753,-0.7666,-0.7541,-0.7276,-0.6925,-0.6591,-0.63,-0.6162,-0.6197,-0.5949,-0.5747,-0.5789,-0.5189,-0.4971,-0.514,-0.4471,-0.4147,0.0,0.0,0.0,0.0,0.0,0.0,0.0,0.0,0.0,0.0,0.0,0.0,0.0,0.0,0.0,0.0,0.0,0.0,0.0,0.0,0.0,0.0,0.0,0.0,0.0,-0.7418,-0.8001,-0.7711,-0.8751,-0.9384,-0.9108,-0.9735,-1.0308,-1.0629,-1.0933,-1.1173,-1.1306,-1.1776,-1.2025,-1.2025,-1.2738,-1.3213,-1.3415,-1.3784,-1.4019,-1.4077,-1.4398,-1.4438,-1.4206,-1.4628,-1.472,-1.4588,-1.472,-1.4726,-1.4582,-1.4582,-1.3748,-1.2522,-1.2522,-1.2393,-1.2263,-1.2263,-1.2325,-1.2446,-1.2399,-1.2262,-1.2026,-1.1547,-1.1361,-1.1269,-1.0991,-1.0986,-1.104,-1.0915,-1.0707,-1.0591,-1.1044,-1.0793,-1.0372,-1.0352,-1.0253,-0.995,-0.9374,-0.9148,-0.9003,-0.8643,-0.8112,-0.7739,-0.7776,-0.8118,-0.8209,-0.7701,-0.787,-0.8081,-0.8122,-0.8185,-0.8211,-0.8085,-0.7964,-0.7762,-0.7419,-0.6987,-0.6762,-0.6795,-0.6315,-0.6047,-0.605,-0.5359,-0.5089,-0.5377,-0.5023,-0.4813,-0.4795,0.0,0.0,0.0,0.0,0.0,0.0,0.0,0.0,0.0,0.0,0.0,0.0,0.0,0.0,0.0,0.0,0.0,0.0,0.0,0.0,0.0,0.0,0.0,-0.7455,-0.8447,-0.8835,-0.7889,-0.9465,-1.0238,-0.9081,-0.9885,-1.0698,-1.1097,-1.1361,-1.1677,-1.2107,-1.248,-1.2681,-1.273,-1.319,-1.3415,-1.3415,-1.3836,-1.3889,-1.3663,-1.464,-1.4731,-1.4118,-1.5283,-1.5564,-1.5159,-1.5608,-1.5564,-1.5108,-1.5108,-1.4823,-1.4346,-1.4299,-1.4025,-1.361,-1.361,-1.3344,-1.2881,-1.2774,-1.2627,-1.2475,-1.2328,-1.2229,-1.2071,-1.1773,-1.1877,-1.1977,-1.1473,-1.1322,-1.1226,-1.0972,-1.0722,-1.0522,-1.0522,-1.0518,-1.0371,-1.0002,-0.9926,-0.972,-0.9036,-0.8585,-0.8307,-0.8418,-0.8414,-0.8328,-0.8062,-0.8279,0.0,-0.8073,-0.8551,-0.8818,-0.8474,-0.8701,-0.8784,-0.8414,-0.7786,-0.7408,-0.7408,-0.6874,-0.637,-0.5887,-0.5534,-0.5198,-0.4815,-0.529,-0.5744,-0.6213,0.0,0.0,0.0,0.0,0.0,0.0,0.0,0.0,0.0,0.0,0.0,0.0,0.0,0.0,0.0,0.0,0.0,0.0,0.0,0.0,0.0,-0.709,-0.7551,-0.7592,-0.8412,-0.9041,-0.9223,-0.9733,-1.0148,-1.0351,-1.0615,-1.1006,-1.1514,-1.1617,-1.1912,-1.252,-1.2627,-1.2813,-1.3035,-1.3472,-1.3836,-1.4185,-1.4403,-1.4737,-1.5193,-1.5328,-1.5373,-1.5322,-1.5653,-1.5748,-1.5608,-1.5748,-1.5748,-1.5614,-1.5614,-1.5513,-1.5322,-1.4577,-1.4212,-1.4118,-1.4118,-1.3747,-1.3233,-1.3132,-1.2749,-1.2323,-1.2175,-1.2126,-1.2081,-1.2022,-1.1927,-1.1773,-1.1623,-1.1326,-1.0968,-1.0922,-1.0722,-1.062,-1.0972,-1.0769,-1.0519,-1.0485,-1.0494,-1.0275,-0.9491,-0.9558,-0.9528,-0.8941,-0.8818,-0.8854,-0.8918,-0.9115,0.0,-0.9455,-0.9368,-0.9406,-0.9538,-0.9147,-0.8835,-0.8652,-0.8293,-0.8108,-0.8108,-0.7978,-0.7743,-0.7487,-0.6808,-0.6124,-0.547,-0.598,-0.6207,0.0,0.0,0.0,0.0,0.0,0.0,0.0,0.0,0.0,0.0,0.0,0.0,0.0,0.0,0.0,0.0,0.0,0.0,0.0,0.0,0.0,0.0,-0.7764,-0.8307,-0.84,-0.8852,-0.939,-0.9926,-1.026,-1.0586,-1.1053,-1.1368,-1.1665,-1.2049,-1.2201,-1.2452,-1.29,-1.3055,-1.3243,-1.3467,-1.3852,-1.432,-1.4923,-1.4884,-1.5263,-1.6065,-1.5915,-1.606,-1.6463,-1.633,-1.6386,-1.6578,-1.6361,-1.6269,-1.6269,-1.6269,-1.6269,0.0,0.0,0.0,0.0,0.0,-1.3972,-1.36,-1.3362,-1.303,-1.2754,-1.2598,-1.2554,-1.255,-1.2501,-1.2349,-1.2201,-1.2062,-1.1764,-1.1514,-1.1414,-1.1267,-1.1217,-1.1514,-1.1364,-1.1149,-1.1217,-1.1217,-1.108,-1.0458,-1.0605,0.0,-0.9963,-0.9515,-0.9244,-0.9279,-0.9654,-0.9862,-0.9734,-1.0082,-1.0316,-1.0337,-1.0254,-1.0159,-1.0111,-0.9494,0.0,0.0,0.0,-0.8239,-0.7969,-0.7406,0.0,0.0,0.0,-0.679,-0.6775,0.0,0.0,0.0,-0.6369,-0.6206,0.0,0.0,0.0,0.0,0.0,0.0,0.0,0.0,0.0,0.0,0.0,0.0,0.0,0.0,0.0,0.0,-0.8684,-0.9471,-0.9562,-0.9768,-1.0015,-1.0332,-1.0959,-1.1369,-1.1377,-1.1963,-1.2442,-1.2565,-1.2812,-1.3064,-1.3351,-1.3752,0.0,0.0,0.0,-1.5037,-1.5669,-1.5418,-1.5659,-1.6452,-1.6334,-1.6667,-1.7314,-1.7007,-1.7138,-1.7599,-1.713,-1.6882,-1.6882,-1.6882,-1.6882,-1.684,-1.6094,-1.5564,-1.5102,-1.4398,-1.4066,-1.3972,-1.36,0.0,0.0,-1.3266,-1.3213,-1.316,-1.3064,-1.2962,-1.2871,-1.2496,-1.2358,-1.2304,-1.2053,-1.2004,-1.2004,-1.2103,-1.2049,-1.2004,-1.2103,-1.2098,-1.1983,-1.1667,-1.1631,-1.1571,-1.1264,-1.0454,-0.9753,-0.9518,-1.0053,-1.0321,-0.9762,-1.0835,-1.1546,-1.1224,0.0,0.0,-1.2093,-1.112,-1.0488,-1.0395,-0.9301,-0.841,-0.7926,-0.7703,-0.7462,-0.7305,-0.7359,-0.7503,-0.7688,-0.7887,-0.7955,-0.7848,-0.6745,-0.6532,0.0,0.0,0.0,0.0,0.0,0.0,0.0,0.0,0.0,0.0,0.0,0.0,0.0,0.0,0.0,-0.8616,-0.9653,-1.0442,-1.0713,-1.1333,-1.1572,-1.0934,-1.1386,-1.1766,-1.1841,-1.2008,-1.2241,-1.2565,-1.2667,-1.3135,-1.4179,-1.4801,-1.5409,-1.6126,-1.6652,-1.6913,-1.6889,-1.6556,-1.6469,-1.666,0.0,0.0,-1.6832,-1.6774,-1.6871,-1.7072,-1.6969,-1.6882,-1.6882,-1.6882,-1.6882,-1.6833,-1.6219,-1.5907,-1.5768,-1.5142,-1.4593,-1.4129,-1.4077,-1.3695,-1.3213,-1.3218,-1.3213,-1.316,-1.3064,-1.2866,0.0,-1.2447,-1.2255,-1.2058,-1.2004,-1.2004,-1.2098,-1.2526,-1.2286,-1.2103,-1.253,-1.2672,-1.2546,-1.2126,-1.2371,-1.2612,-1.2631,-1.1803,-1.097,-1.0555,-1.1266,-1.1897,-1.2084,-1.241,-1.2843,-1.3386,-1.3325,-1.2994,-1.2536,-1.2363,-1.2131,-1.1679,-1.0775,-0.9899,-0.9081,-0.878,-0.8579,-0.8454,-0.8469,-0.8467,-0.8387,-0.8445,-0.8262,-0.7901,-0.7625,-0.7515,0.0,0.0,0.0,0.0,0.0,0.0,0.0,0.0,0.0,0.0,0.0,-0.7868,-0.7977,0.0,-0.9492,-1.0083,-1.0854,-1.1505,-1.1963,-1.2237,-1.2133,-1.1482,-1.1916,-1.2369,-1.2505,-1.2735,-1.3025,-1.3394,-1.3394,-1.3815,-1.4755,-1.5368,-1.6032,-1.6658,-1.7242,-1.7477,-1.752,-1.7386,-1.73,-1.7236,-1.7111,-1.7236,-1.7561,-1.7531,-1.7793,-1.8199,-1.8199,-1.8077,-1.7836,-1.7538,-1.7343,-1.726,-1.6637,-1.6374,-1.625,-1.5552,-1.5102,-1.4823,-1.4414,-1.4082,-1.3795,-1.3795,-1.3747,-1.37,-1.3563,-1.3367,-1.3165,-1.303,-1.2885,-1.2788,-1.2788,-1.2788,-1.2885,-1.3122,-1.2977,-1.288,-1.3122,-1.3213,-1.3195,-1.3305,-1.3499,-1.3669,-1.3706,-1.3434,-1.3016,-1.2316,-1.2818,-1.3294,-1.3206,-1.3663,-1.3966,-1.385,-1.3894,-1.3761,-1.3493,-1.3278,-1.2981,-1.2409,-1.1749,-1.1066,-1.0384,-0.9983,-0.9592,-0.9093,-0.905,-0.883,-0.8413,-0.8554,-0.8365,-0.7901,-0.7901,-0.7848,0.0,0.0,0.0,0.0,0.0,0.0,0.0,0.0,-0.8532,-0.8262,-0.8814,-0.9473,-0.9703,-1.0478,-1.1176,-1.1626,-1.2178,-1.2699,-1.3086,-1.3078,-1.2814,-1.2377,-1.2774,-1.3138,-1.3299,-1.3789,-1.4222,-1.4438,-1.449,-1.472,-1.5328,-1.6039,-1.6657,-1.7128,-1.7784,-1.8158,-1.8209,-1.824,-1.82,-1.8054,-1.7994,-1.8157,-1.8518,-1.8419,-1.8792,-1.9519,-1.9519,-1.9249,-1.885,-1.8261,-1.7936,-1.7751,-1.7154,-1.6892,-1.6735,-1.6021,-1.5706,-1.5661,-1.5062,-1.4836,-1.482,-1.4719,-1.4593,-1.4449,-1.4186,-1.4051,-1.3905,-1.3663,-1.3615,-1.3615,-1.3615,-1.3663,-1.3758,-1.3758,-1.3852,-1.3899,-1.3899,-1.3899,-1.4041,-1.4466,-1.4558,-1.4563,-1.4644,-1.4945,-1.4815,-1.3755,-1.4143,-1.4359,-1.3947,-1.4659,-1.4963,-1.4258,-1.4508,-1.4667,-1.4581,-1.4156,-1.3611,-1.3019,-1.2565,-1.1999,-1.1322,-1.0968,-1.0457,-0.9631,-0.9543,-0.9191,-0.8535,-0.8719,-0.8577,-0.8162,-0.8162,-0.8058,-1.0191,-0.9966,-0.9901,-1.0,-1.0069,-1.0184,0.0,0.0,-1.0745,-1.0694,-1.1267,-1.1787,-1.1791,-1.2218,-1.2652,-1.2946,-1.3634,-1.4038,-1.377,-1.4503,-1.4813,-1.4185,-1.412,-1.4183,-1.431,-1.4875,-1.5293,-1.541,-1.5448,-1.5688,-1.6293,-1.7364,-1.8153,-1.8623,-1.9733,-2.0156,-1.9743,-1.9654,-1.9367,-1.8937,-1.838,-1.84,-1.9008,-1.8473,-1.8678,-1.9519,-1.9519,-1.9396,-1.9206,-1.8575,-1.8335,-1.8239,-1.7596,-1.7315,-1.7242,-1.6761,-1.6574,-1.6568,-1.6476,-1.6429,-1.6346,-1.5817,-1.5528,-1.5355,-1.4801,-1.4536,-1.4316,-1.3758,-1.3615,-1.3615,-1.3615,-1.3947,-1.4332,-1.4332,-1.4651,-1.492,-1.492,-1.492,-1.4966,-1.5017,-1.5017,-1.517,-1.5584,-1.5698,-1.5232,-1.3883,-1.4382,-1.4935,-1.4911,-1.5378,-1.584,-1.6126,-1.6213,-1.6071,-1.566,-1.5186,-1.4531,-1.3569,-1.3426,-1.2759,-1.1368,-1.1279,-1.0956,-1.0407,-1.036,-1.014,-0.9607,-0.964,-0.9458,-0.9054,-0.9054,-0.8636,-1.1046,-1.1098,-1.1339,-1.1277,-1.145,-1.1658,-1.1787,-1.176,-1.174,-1.1799,-1.2192,-1.2644,-1.2866,-1.3368,-1.3756,-1.3918,-1.4316,-1.4698,-1.4877,-1.4881,-1.48,-1.4712,-1.5068,-1.5234,-1.5034,-1.5248,-1.5472,-1.5688,-1.5732,-1.5964,-1.6472,-1.7301,-1.8097,-1.8898,-1.9721,-2.0096,-1.9902,-2.0181,-1.9887,-1.897,-1.9041,-1.9028,-1.897,-1.9068,-1.9575,-2.032,-2.0007,-1.99,-1.9767,-1.9174,-1.8684,-1.8259,-1.7972,-1.785,-1.7728,-1.6905,-1.6596,-1.6546,-1.6272,-1.6182,-1.614,-1.5784,-1.5573,-1.5498,-1.5516,-1.5422,-1.5276,-1.4987,-1.494,-1.4879,-1.4567,-1.4645,-1.4834,-1.4915,-1.5045,-1.5226,-1.5226,-1.5271,-1.5355,-1.5591,-1.5635,-1.5774,-1.6256,-1.625,-1.6089,-1.5786,-1.5792,-1.5862,-1.5898,-1.631,-1.6667,-1.6796,-1.6567,-1.6363,-1.6185,-1.5744,-1.5344,-1.4909,-1.4381,-1.3632,-1.2662,-1.233,-1.1796,-1.0972,-1.0972,-1.0604,-0.9814,-0.9814,-0.9614,-0.9211,-0.9211,-0.9005,-1.1951,-1.222,-1.2648,-1.2699,-1.3073,-1.3468,-1.3461,-1.3472,-1.3528,-1.3537,-1.3824,-1.4205,-1.4548,-1.5056,-1.5356,-1.52,-1.5359,-1.554,-1.5696,-1.5152,-1.4792,-1.4907,-1.5496,-1.5828,-1.5584,-1.5742,-1.5958,-1.6343,-1.6343,-1.6563,-1.7047,-1.7629,-1.8328,-1.9279,-1.9894,-2.0287,-2.0441,-2.0862,-2.0635,-1.978,-2.0067,-2.0054,-1.9793,-2.0159,-2.0556,-2.1003,-2.0565,-2.0372,-2.0271,-1.9694,-1.91,-1.8602,-1.8438,-1.8341,-1.822,-1.7434,-1.7143,-1.7093,-1.6765,-1.6676,-1.6607,-1.6339,-1.626,-1.6305,-1.6462,-1.6421,-1.6319,-1.6165,-1.6013,-1.5828,-1.5435,-1.5336,-1.5367,-1.5451,-1.5623,-1.5756,-1.5756,-1.5794,-1.5888,-1.6207,-1.6337,-1.6509,-1.682,-1.6899,-1.7018,-1.731,-1.706,-1.685,-1.685,-1.7144,-1.7316,-1.7238,-1.6851,-1.6618,-1.6618,-1.6222,-1.5926,-1.5832,-1.517,-1.4438,-1.3616,-1.3241,-1.2521,-1.1519,-1.1372,-1.0956,-1.023,-1.0079,-0.9829,-0.9577,-0.9577,-0.9577,-1.2808,-1.3201,-1.3663,-1.4491,-1.518,-1.5652,-1.5775,-1.6358,-1.6813,-1.6696,-1.7079,-1.7478,-1.749,-1.7665,-1.7622,-1.7042,-1.7115,-1.6883,-1.593,-1.5669,-1.5412,-1.5018,-1.5444,-1.5763,0.0,-1.6577,-1.715,-1.7707,-1.7747,-1.7948,-1.8422,-1.8964,-1.9538,-2.0238,-2.0831,-2.144,-2.2,-2.2028,-2.2021,-2.2018,-2.1489,-2.1517,-2.1979,-2.1704,-2.1499,-2.1375,-2.1053,-2.0799,-2.0633,-2.0015,-1.9767,-1.9688,-1.9107,-1.8878,-1.8878,-1.8858,-1.8806,-1.8806,-1.8806,-1.8806,-1.8715,-1.8028,-1.8125,-1.8395,-1.7761,-1.7521,-1.7321,-1.6796,-1.6284,-1.5909,-1.5891,-1.5901,-1.5988,-1.5994,-1.6436,-1.6833,-1.6833,-1.6833,-1.6876,-1.6876,-1.7199,-1.7427,-1.7312,-1.7652,-1.7915,-1.7794,-1.7754,-1.7754,-1.7754,-1.7754,-1.7787,-1.7767,-1.7414,-1.7173,-1.7173,-1.6765,-1.6287,-1.5832,-1.5788,-1.5096,-1.3663,-1.3569,-1.3049,-1.2004,-1.1519,-1.1272,-1.1272,-1.0718,-1.0466,-1.047,-1.047,-1.047,-1.406,-1.4492,-1.5189,-1.6449,-1.666,-1.6758,-1.7461,-1.7495,-1.7441,-1.7495,-1.7059,-1.6721,-1.6808,-1.6559,-1.6186,-1.5646,-1.5978,-1.6155,-1.5729,-1.5709,-1.5668,-1.548,-1.5916,0.0,0.0,0.0,0.0,-1.7754,-1.7794,-1.7988,-1.8468,-1.9044,-1.9439,-1.9642,-2.0695,-2.1334,-2.1507,-2.1892,-2.2081,-2.2081,-2.1924,-2.1931,-2.2081,-2.1995,-2.1915,-2.1867,-2.1732,-2.1677,-2.1616,-2.1055,-2.065,-2.0254,-2.0046,-1.9754,-1.9539,-1.9834,-1.9754,-1.9394,-1.8636,-1.8604,-1.8767,-1.8029,-1.8164,-1.8576,-1.8527,-1.8487,-1.8461,-1.8153,-1.795,-1.7729,-1.7279,-1.7171,-1.7242,-1.7381,-1.7325,-1.7317,-1.7399,-1.7475,-1.7475,-1.7434,-1.7693,-1.7874,-1.7827,-1.7848,-1.7955,-1.8226,-1.7988,-1.7915,-1.8226,-1.8266,-1.839,-1.8623,-1.8305,-1.7955,-1.7639,-1.7227,-1.6765,-1.6287,-1.597,-1.5599,-1.5096,-1.4474,-1.3779,-1.3102,-1.257,-1.195,-1.1322,-1.1124,-1.0875,-1.0522,-1.0522,-1.0522,-1.5763,-1.6405,-1.7288,-1.8446,-1.8493,-1.8356,-1.8966,-1.8709,-1.8341,-1.8219,-1.7516,-1.6877,-1.678,-1.6285,-1.5734,-1.5174,-1.5567,-1.5923,-1.5819,-1.584,-1.5942,-1.6137,-1.6488,-1.66,0.0,0.0,0.0,-1.8028,-1.8187,-1.8461,-1.8929,-1.9533,-1.994,-2.017,-2.1225,-2.1873,-2.2067,-2.244,-2.2634,-2.2634,-2.2634,-2.2634,-2.2634,-2.2459,-2.2367,-2.2367,-2.2175,-2.2081,-2.2088,-2.1772,-2.1396,-2.1079,-2.1079,-2.0906,-2.0644,-2.0946,-2.086,-2.0422,-1.916,-1.9022,-1.9344,-1.88,-1.9081,-1.967,-1.9592,-1.9695,-1.9756,-1.9281,-1.9107,-1.8952,-1.8279,-1.8018,-1.7928,-1.8066,-1.7974,-1.7875,-1.7955,-1.8028,-1.8028,-1.7995,-1.8198,-1.838,-1.8355,-1.8291,-1.839,-1.8662,-1.8468,-1.839,-1.8669,-1.8707,-1.8822,-1.9064,-1.8745,-1.8312,-1.7834,-1.7434,-1.6983,-1.6515,-1.6201,-1.597,-1.5794,-1.522,-1.4674,-1.4149,-1.3426,-1.2759,-1.2138,-1.176,-1.1267,-1.0773,-1.0773,-1.0671,-1.7714,-1.8738,-1.9624,-2.0279,-2.0422,-2.037,-2.0194,-1.9978,-1.9611,-1.8921,-1.8413,-1.7955,0.0,0.0,-1.6258,-1.5702,-1.5964,-1.627,-1.6263,-1.6171,-1.6329,0.0,0.0,0.0,0.0,0.0,0.0,-1.85,-1.8867,-1.9302,-1.9735,-2.0393,-2.1051,-2.1672,-2.2368,-2.2989,-2.3542,-2.358,-2.3602,-2.3602,-2.3602,-2.3602,-2.3595,-2.3128,-2.2905,-2.2889,-2.2385,-2.2146,-2.2175,-2.2128,-2.2128,-2.2128,-2.2093,-2.21,-2.2074,-2.2093,-2.2107,-2.1911,-2.0393,-2.0166,-2.0435,-2.0268,-2.084,-2.1465,-2.0858,-2.0966,-2.1103,-2.0015,-1.9661,-1.9466,-1.8867,-1.8433,-1.8178,-1.8178,-1.8362,-1.85,-1.85,-1.8546,-1.8546,-1.85,-1.8755,-1.89,-1.886,-1.8981,-1.9101,-1.9101,-1.9101,-1.9101,-1.9101,-1.9101,-1.9101,-1.9101,-1.8745,-1.8351,-1.7875,-1.7475,-1.7025,-1.6558,-1.6515,-1.6287,-1.5832,-1.5832,-1.5573,-1.5147,-1.4149,-1.3621,-1.3616,-1.253,-1.181,-1.1322,-1.1322,-1.1023,-1.8085,-1.8856,-1.9662,-2.084,-2.0792,-2.0292,-1.9963,-1.9718,-1.9298,-1.8332,-1.7646,-1.7056,-1.6407,-1.6208,-1.6024,-1.5646,-1.6599,0.0,-1.7053,-1.7217,0.0,-1.759,0.0,-1.7644,-1.7762,-1.8717,0.0,0.0,-1.8974,-1.95,-2.0385,-2.1089,-2.1523,-2.1687,-2.2787,-2.3221,-2.2914,-2.337,-2.3602,-2.3602,-2.3602,-2.3602,-2.358,-2.2996,-2.299,-2.3399,-2.2802,-2.2811,-2.3187,-2.283,-2.2701,-2.2651,-2.2139,-2.2008,-2.2072,-2.1983,-2.1984,-2.1955,-2.158,-2.1525,-2.1496,-2.0782,-2.1056,-2.1554,-2.1286,-2.092,-2.0589,-2.0244,-1.9763,-1.9349,-1.9191,-1.9058,-1.9042,-1.9169,-1.8997,-1.8786,-1.8786,-1.8884,-1.8936,-1.8831,-1.9161,-1.9369,-1.9183,-1.9221,-1.9258,-1.9258,-1.9139,-1.9101,-1.9101,-1.9101,-1.9101,-1.9101,-1.9019,-1.8784,-1.8351,-1.7915,-1.7468,-1.7031,-1.6686,-1.6429,-1.6337,-1.5976,-1.5744,-1.5617,-1.4669,-1.4019,-1.3616,-1.2904,-1.2335,-1.181,-1.1469,-1.1226,-1.9064,-1.9435,-1.9806,-2.0858,-2.0528,-1.9876,-1.964,-1.9324,-1.8759,-1.7615,-1.6877,-1.6282,-1.5652,-1.5405,-1.5194,0.0,0.0,0.0,-1.6941,-1.7452,-1.7928,0.0,-1.839,0.0,-1.8468,-1.9122,-1.9573,-1.9577,-1.9713,-2.0078,-2.0662,-2.1343,-2.1829,-2.2113,-2.3086,-2.3438,-2.3086,-2.3423,-2.3602,-2.3602,-2.3325,-2.3198,-2.3183,-2.2832,-2.2862,-2.3191,-2.3116,-2.3281,-2.3595,-2.3334,-2.3201,-2.3165,-2.2804,-2.2695,-2.2727,-2.2651,-2.2636,-2.2639,-2.2586,-2.2548,-2.236,-2.1657,-2.1783,-2.213,-2.1827,-2.1631,-2.1373,-2.0862,-2.0359,-1.9984,-1.9703,-1.9485,-1.9339,-1.9457,-1.9288,-1.9109,-1.9109,-1.9206,-1.9295,-1.9236,-1.9406,-1.9538,-1.9376,-1.9339,-1.9339,-1.9302,-1.9221,-1.9183,-1.9101,-1.9101,-1.9101,-1.9101,-1.9101,-1.8943,-1.8546,-1.8266,-1.7834,-1.724,-1.6941,-1.6729,-1.6515,-1.6244,-1.6107,-1.6107,-1.5394,-1.476,-1.4247,-1.3726,-1.3112,-1.2335,-1.2093,-1.185,-2.0083,-2.0099,-2.006,-2.0536,-2.0017,-1.9337,-1.919,-1.8728,-1.7983,-1.6891,-1.6278,-1.5787,-1.5332,-1.4854,-1.4467,-1.4349,0.0,-1.5938,-1.6571,-1.7376,-1.8214,-1.8998,-1.9101,-1.9101,-1.9101,-1.9411,-1.987,-2.0349,-2.0749,-2.0938,-2.0969,-2.1515,-2.2128,-2.2779,-2.3325,-2.3602,-2.3602,-2.352,-2.352,-2.3587,-2.2884,-2.2634,-2.2667,-2.2536,-2.251,-2.2739,-2.3153,-2.3438,-2.3602,-2.3602,-2.3602,-2.3587,-2.3505,-2.3527,-2.3587,-2.3505,-2.3499,-2.3466,-2.3363,-2.3201,-2.3037,-2.2608,-2.2654,-2.2797,-2.2417,-2.2505,-2.2538,-2.1457,-2.1012,-2.0734,-2.0171,-1.9659,-1.9302,-1.9302,-1.9376,-1.942,-1.942,-1.9501,-1.9618,-1.9618,-1.9685,-1.9678,-1.9472,-1.9487,-1.9516,-1.9354,-1.9339,-1.9258,-1.9139,-1.9101,-1.9101,-1.9101,-1.9101,-1.8943,-1.8623,-1.8546,-1.8187,-1.7441,-1.7317,-1.7067,-1.6601,-1.6601,-1.6558,-1.6515,-1.6064,-1.5617,-1.5193,-1.4651,-1.3936,-1.3006,-1.2861,-1.253,-1.9869,-2.0158,-2.0268,-2.042,-1.9936,-1.921,-1.8559,-1.7819,0.0,-1.6725,-1.6379,-1.6135,-1.6035,-1.5845,-1.5625,-1.5454,-1.6425,-1.7267,-1.7402,-1.8108,-1.8738,0.0,-1.9101,-1.9101,-1.9101,-2.0177,0.0,0.0,-2.1502,-2.2248,-2.2338,-2.2443,-2.2794,-2.3415,-2.3542,-2.3602,-2.3602,-2.3093,-2.3093,-2.3587,-2.2428,-2.2151,-2.2679,-2.1545,-2.165,-2.2694,-2.2211,0.0,-2.3602,-2.3602,-2.3602,-2.355,-2.3034,-2.3146,-2.3542,-2.3026,-2.3133,-2.3466,-2.3363,-2.3201,-2.3082,-2.2895,-2.285,-2.2895,-2.2797,-2.2488,-2.2019,-2.126,-2.0679,-2.0149,-1.9564,-1.9353,-1.9302,-1.9376,-1.9384,-1.942,-1.942,-1.9501,-1.9618,-1.9618,-2.0094,-2.0296,-1.9671,-1.9998,-2.0123,-1.9612,-1.942,-1.9302,-1.9339,-1.9183,-1.9101,-1.9101,-1.9101,-1.9064,-1.8981,-1.8707,-1.8429,-1.8266,-1.7915,-1.7509,-1.7115,-1.7067,-1.6905,-1.6515,-1.6064,-1.5744,-1.5662,-1.4817,-1.4321,-1.4082,-1.3203,-1.2764,-1.9271,-1.9107,-1.8876,-1.9169,-1.8663,-1.7961,-1.76,0.0,0.0,-1.575,-1.5433,-1.5241,-1.529,-1.5273,-1.5223,-1.5244,-1.5935,-1.6599,-1.7028,-1.7618,-1.8214,-1.8731,-1.8874,-1.8943,-1.8943,-1.9997,-2.0731,-2.0793,-2.1854,-2.2584,-2.2675,-2.2981,-2.3288,-2.3587,-2.3602,-2.3602,-2.3602,-2.2989,-2.2989,-2.358,-2.2308,-2.1859,-2.2158,-2.1867,-2.1889,-2.2188,-2.2532,-2.3034,-2.3602,-2.3602,-2.3602,-2.3565,-2.3273,-2.334,-2.3565,-2.345,-2.3575,-2.3789,-2.3739,-2.3703,-2.3718,-2.3553,-2.3201,-2.2933,-2.309,-2.2959,-2.262,-2.2117,-2.1568,-2.0935,-2.0288,-1.9907,-1.9669,-1.9705,-1.9632,-1.9641,-1.9901,-1.9768,-1.9781,-2.0307,-2.0294,-2.0108,-1.995,-2.0017,-1.9975,-1.9663,-1.9538,-1.942,-1.9376,-1.9258,-1.9183,-1.9183,-1.9139,-1.9101,-1.9101,-1.8905,-1.8707,-1.8507,-1.8305,-1.7875,-1.724,-1.7199,-1.6989,-1.6515,-1.6293,-1.6064,-1.5788,-1.535,-1.4863,-1.4378,-1.3889,-1.35,-1.8961,-1.839,-1.7827,-1.8215,-1.7588,-1.6803,-1.674,-1.5957,-1.5157,-1.4934,-1.4632,-1.451,-1.4711,-1.4757,-1.4788,0.0,-1.5214,-1.5786,-1.6459,-1.6971,-1.7602,-1.8401,-1.8651,0.0,-1.8791,-1.972,0.0,-2.1171,-2.2123,-2.2785,-2.2877,-2.3206,-2.346,-2.3602,-2.3602,-2.3602,-2.3602,-2.2989,-2.2989,-2.358,-2.2308,-2.1769,-2.1919,-2.2293,-2.2263,-2.1956,-2.3077,-2.3638,-2.3774,-2.3844,-2.3887,-2.3879,-2.3844,-2.3802,-2.3844,-2.4009,-2.4094,-2.412,-2.4113,-2.4162,-2.4219,-2.4067,-2.3589,-2.3194,-2.3472,-2.3551,-2.3453,-2.3035,-2.2578,-2.2071,-2.1364,-2.0845,-2.0508,-2.0543,-2.0464,-2.0485,-2.0918,-2.0504,-2.0339,-2.1152,-2.0694,-2.0183,-2.0315,-2.0172,-1.9948,-1.9763,-1.9647,-1.9538,-1.9376,-1.9339,-1.9302,-1.9302,-1.9183,-1.9101,-1.9101,-1.9101,-1.8981,-1.8662,-1.8623,-1.8226,-1.7358,-1.7317,-1.7067,-1.6515,-1.6515,-1.6337,-1.597,-1.5832,-1.5439,-1.4691,-1.4512,-1.4186,-1.951,-1.9226,-1.8848,-1.8769,-1.7875,-1.6831,-1.6316,0.0,-1.4536,-1.4992,-1.4951,-1.5015,-1.5508,-1.5644,-1.5506,-1.4969,0.0,-1.6145,-1.6381,-1.6934,-1.7602,-1.8401,0.0,0.0,-1.8784,-1.9931,-2.0793,-2.1167,-2.2579,-2.3456,-2.3512,-2.3034,-2.3019,-2.358,-2.3602,-2.3602,-2.3602,-2.2989,-2.2989,-2.358,-2.2308,-2.2009,-2.2611,-2.2031,-2.2076,-2.2626,-2.3109,-2.3669,0.0,-2.4631,-2.4784,-2.4744,-2.4575,-2.4502,-2.4502,-2.4336,-2.4268,-2.4261,-2.412,-2.4113,-2.4128,-2.4017,-2.3932,-2.389,-2.394,-2.3932,-2.383,-2.3173,-2.2937,-2.2804,-2.2286,-2.2138,-2.2129,-2.2313,-2.2439,-2.2535,-2.2598,-2.2071,-2.1642,-2.1731,-2.1615,-2.1345,-2.0823,-2.0907,-2.0845,-2.0239,-1.9833,-1.9582,-1.9574,-1.942,-1.9302,-1.9302,-1.9183,-1.9101,-1.9101,-1.9101,-1.9064,-1.9064,-1.9026,-1.8662,-1.7794,-1.7754,-1.7345,-1.6515,-1.6515,-1.6479,-1.6429,-1.6014,-1.5744,-1.5656,-1.4823,-1.4378,-1.8457,-1.8461,-1.8222,-1.7808,-1.6945,-1.6089,-1.5544,0.0,-1.3734,-1.4063,-1.4175,-1.4334,-1.4886,-1.5249,-1.5405,0.0,0.0,0.0,-1.6109,-1.6382,-1.6968,-1.8006,-1.8242,-1.8354,0.0,-1.9492,-2.0621,-2.1723,-2.232,-2.2906,-2.3516,-2.3327,-2.334,-2.3587,-2.3602,-2.3423,-2.3049,-2.2405,-2.2553,-2.3404,-2.2483,-2.2539,-2.3429,-2.3568,-2.3553,-2.3452,-2.3879,-2.4301,0.0,-2.4704,-2.4704,-2.4704,-2.4623,-2.4517,-2.441,-2.4467,-2.4581,-2.4647,-2.4662,-2.4703,-2.472,-2.4146,-2.4262,-2.4556,-2.4359,-2.44,-2.4393,-2.3881,-2.3792,-2.3784,-2.3187,-2.3032,-2.2996,-2.2961,-2.3004,-2.3124,-2.3399,-2.2932,-2.2539,-2.2719,-2.2237,-2.1668,-2.1167,-2.0824,-2.0524,-2.0247,-1.9882,-1.9632,-1.9501,-1.942,-1.9302,-1.9183,-1.9139,-1.9101,-1.9101,-1.9101,-1.9101,-1.9101,-1.9101,-1.8822,-1.8266,-1.7955,-1.7503,-1.6941,-1.6644,-1.6515,-1.6515,-1.6287,-1.6064,-1.5788,-1.5439,-1.4954,-1.7369,-1.7403,-1.7174,-1.6932,-1.6091,-1.5217,0.0,0.0,-1.3267,-1.349,-1.3746,-1.4024,-1.4482,-1.5063,-1.5337,0.0,0.0,-1.5532,-1.5941,-1.6187,-1.6698,-1.776,0.0,-1.8123,-1.8202,-1.9105,-2.0359,-2.1938,-2.2011,-2.241,-2.3341,-2.3443,-2.3559,-2.3602,-2.3696,-2.3528,-2.3168,-2.2544,-2.272,-2.37,-2.3049,-2.3233,-2.4115,-2.4603,-2.4556,-2.4122,-2.4532,-2.4784,0.0,-2.4918,-2.4918,-2.4871,-2.4839,-2.4735,-2.4597,-2.4678,-2.4823,-2.4934,-2.4997,-2.5092,-2.5129,-2.4565,-2.4724,-2.513,-2.5044,-2.4974,-2.4918,-2.4676,-2.477,-2.481,-2.4341,-2.4245,-2.4245,-2.4132,-2.3974,-2.3979,-2.4292,-2.3756,-2.3163,-2.3218,-2.2471,-2.1702,-2.1239,-2.0704,-2.0353,-2.0208,-2.0015,-1.9754,-1.945,-1.942,-1.9339,-1.9101,-1.9101,-1.9101,-1.9101,-1.9101,-1.9101,-1.9101,-1.9101,-1.8905,-1.8507,-1.8028,-1.7598,-1.7199,-1.6735,-1.6515,-1.6515,-1.6515,-1.6337,-1.6014,-1.5876,-1.5311,-1.6458,-1.6161,-1.5863,-1.6472,-1.5505,-1.4368,-1.4158,-1.3638,-1.3276,-1.3551,-1.4019,-1.4474,-1.4671,-1.5298,-1.5532,-1.4738,0.0,0.0,-1.5965,-1.6442,-1.706,0.0,-1.7882,-1.7963,-1.8163,-1.8916,-2.0034,-2.1577,-2.178,0.0,-2.3046,-2.3238,-2.3392,-2.3595,-2.3839,-2.4101,-2.4294,-2.373,-2.3833,-2.4567,-2.4021,-2.4053,-2.4567,-2.4615,-2.4615,-2.4608,-2.4823,-2.4902,0.0,-2.5394,-2.5592,-2.5567,-2.5363,-2.5294,-2.5256,-2.5053,-2.5013,-2.5013,-2.5013,-2.5013,-2.5045,-2.5397,-2.5494,-2.5569,-2.6043,-2.5758,-2.5333,-2.5522,-2.5717,-2.5881,-2.5873,-2.6026,-2.6187,-2.6159,-2.5832,-2.5478,-2.5486,-2.4593,-2.3601,-2.2915,-2.2213,-2.1526,-2.0913,-2.0794,-2.0646,-2.025,-2.0208,-2.0007,-1.9487,-1.942,-1.9339,-1.9101,-1.9101,-1.9101,-1.9101,-1.9101,-1.9101,-1.9101,-1.9101,-1.8905,-1.8507,-1.8028,-1.7598,-1.7199,-1.6735,-1.6515,-1.6515,-1.6515,-1.6515,-1.6472,-1.602,-1.5311,-1.5566,-1.5555,-1.5366,-1.5132,-1.4595,-1.3984,-1.3549,-1.3142,-1.2913,-1.3192,-1.3682,-1.4198,-1.469,-1.5502,-1.5753,-1.467,-1.5252,0.0,0.0,0.0,-1.6572,-1.719,-1.7659,-1.7963,-1.8163,-1.8795,-1.9691,-2.0926,-2.1463,-2.2119,-2.3046,-2.3127,-2.3238,-2.34,-2.3494,-2.3322,-2.2959,-2.2776,-2.2821,-2.308,-2.339,-2.3886,-2.4564,-2.5053,-2.5277,-2.5277,-2.5224,-2.5262,-2.5362,-2.5402,-2.5402,-2.5402,-2.5325,-2.5347,-2.5422,-2.5376,-2.5527,-2.575,-2.5799,-2.5705,-2.5491,-2.5198,-2.5442,-2.5762,-2.5368,-2.5663,-2.6139,-2.626,-2.6187,-2.6096,-2.6096,-2.6132,-2.6212,-2.6212,-2.6087,-2.599,-2.599,-2.511,-2.412,-2.3412,-2.2474,-2.1568,-2.0905,-2.0571,-2.0361,-2.0208,-2.0015,-1.9754,-1.945,-1.942,-1.9339,-1.9101,-1.9101,-1.9101,-1.9101,-1.9101,-1.9101,-1.9101,-1.9101,-1.9026,-1.8905,-1.8507,-1.8068,-1.7639,-1.7186,-1.682,-1.6515,-1.6515,-1.6515,-1.6479,-1.6014,-1.5662,0.0,-1.4489,-1.4364,-1.3924,-1.3585,-1.3289,-1.2811,-1.2591,-1.2596,-1.2945,-1.3306,-1.3732,-1.4365,-1.4976,-1.5175,-1.4445,-1.5012,0.0,0.0,0.0,-1.6316,-1.6912,-1.7345,-1.77,-1.8036,-1.8446,-1.9065,-2.002,-2.0791,-2.1599,-2.2504,-2.2629,-2.2717,-2.279,-2.3186,-2.3243,-2.2912,-2.2715,-2.2793,-2.3111,-2.3312,-2.3833,-2.4644,-2.5085,-2.5378,-2.547,-2.5278,-2.524,0.0,-2.524,-2.5278,-2.537,-2.537,-2.5422,-2.5503,-2.5503,-2.5631,-2.5795,-2.586,-2.5787,-2.5685,-2.5433,-2.5766,-2.6205,-2.5712,-2.593,-2.6383,-2.6434,-2.6345,-2.6212,-2.6212,-2.6212,-2.6212,-2.6212,-2.5881,-2.556,-2.556,-2.4676,-2.3646,-2.2793,-2.2047,-2.1327,-2.0519,-2.0292,-2.0147,-2.0015,-1.9925,-1.9754,-1.945,-1.9376,-1.9302,-1.9101,-1.9101,-1.9101,-1.9101,-1.9101,-1.9101,-1.9101,-1.9101,-1.9101,-1.9101,-1.8707,-1.8351,-1.8068,-1.7516,-1.7073,-1.6772,-1.6607,-1.6515,-1.6479,-1.6014,-1.5788,0.0,-1.299,-1.2996,-1.2803,-1.2556,-1.2335,-1.2077,-1.2035,0.0,-1.2716,-1.2792,-1.3009,-1.3781,-1.3924,-1.3923,-1.4124,-1.4571,-1.4922,0.0,-1.5556,-1.6182,-1.6815,-1.6925,-1.716,-1.7733,-1.7814,-1.8194,-1.9003,-1.9859,-2.0684,-2.1577,-2.1787,-2.1888,-2.1888,-2.2861,-2.3495,-2.3701,-2.332,-2.3458,-2.4115,-2.3684,-2.3897,-2.4704,-2.4791,-2.4989,0.0,-2.5044,-2.4966,-2.5013,-2.495,-2.5129,-2.5465,-2.5465,-2.5511,-2.554,-2.554,-2.5468,-2.5402,-2.5402,-2.55,-2.5709,-2.6041,-2.6428,-2.6791,-2.6791,-2.6504,-2.6247,-2.6247,-2.6203,-2.6212,-2.6212,-2.6212,-2.6212,-2.6212,-2.5368,-2.4527,-2.4527,-2.3567,-2.2396,-2.1484,-2.1214,-2.0875,-1.9924,-2.0015,-2.0077,-1.9782,-1.9925,-1.9897,-1.9457,-1.9339,-1.9258,-1.9101,-1.9101,-1.9101,-1.9101,-1.9101,-1.9101,-1.9101,-1.9101,-1.9101,-1.9101,-1.8745,-1.8546,-1.8507,-1.7632,-1.7199,-1.7199,-1.6729,-1.6515,-1.6479,-1.6064,-1.5832,-1.1726,0.0,-1.2478,-1.221,-1.2144,-1.2035,0.0,-1.1436,-1.1572,-1.1837,0.0,-1.1995,-1.3038,-1.3543,-1.3711,-1.3542,-1.4306,-1.4642,-1.3966,-1.4775,-1.5594,-1.5976,-1.6365,-1.6606,-1.6517,-1.7114,-1.7845,-1.8676,-1.9141,-1.9803,-2.0663,-2.0741,-2.0791,-2.0791,-2.1176,-2.1495,-2.1681,-2.2091,-2.2231,-2.2176,-2.2816,-2.3332,-2.3763,-2.4587,-2.5013,-2.5021,-2.4435,-2.4476,-2.4966,-2.4389,-2.4553,-2.5107,-2.5107,-2.5354,-2.5742,-2.5742,-2.6005,-2.6383,-2.6436,-2.6332,-2.6243,-2.6408,-2.6555,-2.6666,-2.664,-2.6589,-2.6511,-2.6511,-2.6345,-2.6212,-2.6212,-2.6212,-2.6212,-2.6212,-2.5562,-2.4956,-2.4956,-2.364,-2.2398,-2.2162,-2.1446,-2.0808,-2.0577,-2.0361,-2.0174,-2.0077,-1.9861,-1.964,-1.942,-1.9339,-1.9258,-1.9101,-1.9101,-1.9101,-1.9101,-1.9101,-1.9101,-1.9101,-1.9101,-1.9101,-1.9101,-1.9019,-1.8822,-1.8507,-1.7632,-1.7199,-1.7199,-1.6729,-1.6515,-1.6515,-1.638,-1.6337,-1.0454,-1.1089,-1.1695,-1.1505,-1.134,-1.1148,-1.084,0.0,0.0,0.0,0.0,-1.1054,-1.2315,-1.282,-1.3133,-1.3557,-1.4204,-1.4505,-1.3989,-1.4484,-1.5021,-1.5471,-1.5843,-1.6133,-1.6255,-1.6802,-1.7407,-1.8004,-1.8567,-1.9155,-1.9761,-1.9908,-1.995,-1.995,-2.0034,-2.0342,-2.0844,-2.179,-2.1958,-2.1527,-2.247,-2.2943,-2.2949,-2.353,-2.3903,-2.4048,-2.3947,-2.4136,-2.4484,-2.4428,-2.4727,-2.5238,-2.5323,-2.5535,-2.5815,-2.5888,-2.6183,-2.6521,-2.6556,-2.6624,-2.67,-2.6759,-2.6792,-2.6792,-2.6775,-2.6775,-2.6725,-2.6477,-2.631,-2.6212,-2.6212,-2.6212,-2.6212,-2.6212,-2.5648,-2.5019,-2.4679,-2.3564,-2.2491,-2.2005,-2.144,-2.0917,-2.0571,-2.0353,-2.0139,-1.998,-1.9726,-1.9494,-1.942,-1.9302,-1.9183,-1.9101,-1.9101,-1.9101,-1.9101,-1.9101,-1.9101,-1.9101,-1.9101,-1.9101,-1.9101,-1.9101,-1.8905,-1.8507,-1.7834,-1.7399,-1.7199,-1.6729,-1.6515,-1.6515,-1.6515,-1.6515,-0.9292,-0.991,-1.0537,-1.0552,-1.0302,-1.0026,0.0,0.0,0.0,0.0,0.0,0.0,0.0,-1.1979,0.0,0.0,0.0,-1.428,-1.4373,-1.4378,-1.4571,-1.5071,-1.5315,-1.5676,-1.6188,-1.6544,-1.6911,-1.7317,-1.8011,-1.8545,-1.8921,-1.9085,-1.9167,-1.9167,-1.9207,-1.9597,-2.0398,-2.1574,-2.1873,-2.1372,-2.2247,-2.2561,-2.2415,-2.2452,-2.2631,-2.2948,0.0,0.0,-2.3947,-2.4334,-2.489,-2.5427,-2.548,-2.5652,-2.5852,-2.6033,-2.6218,-2.64,-2.64,-2.6691,-2.7062,-2.7006,-2.7038,-2.7038,-2.7006,-2.7006,-2.6916,-2.6468,-2.6274,-2.6239,-2.6239,-2.6247,-2.6212,-2.6212,-2.5648,-2.4936,-2.4299,-2.3586,-2.2787,-2.1743,-2.1534,-2.1327,-2.0563,-2.0405,-2.0285,-1.9995,-1.9682,-1.9523,-1.9523,-1.9295,-1.9139,-1.9139,-1.9139,-1.9139,-1.9139,-1.9101,-1.9101,-1.9101,-1.9101,-1.9101,-1.9101,-1.9101,-1.8943,-1.8584,-1.8147,-1.7713,-1.7275,-1.6814,-1.6558,-1.6515,-1.6515,-1.6515,-0.8403,-0.8354,-0.8423,-0.8979,-0.9094,-0.9054,-0.8829,0.0,0.0,0.0,0.0,0.0,0.0,-1.1453,-1.2097,0.0,0.0,-1.36,-1.428,-1.4378,-1.4363,-1.421,-1.4581,-1.4891,-1.4974,-1.5678,-1.6392,-1.6918,-1.7361,-1.7738,-1.8052,-1.8092,-1.8133,-1.8133,-1.8294,-1.8607,-1.9077,-2.0062,-2.0568,-2.0651,-2.1316,-2.1891,-2.2415,-2.2705,-2.2844,-2.2856,0.0,-2.2856,-2.3836,-2.2801,-2.3423,-2.5012,-2.4409,-2.4935,-2.5969,-2.6005,-2.6401,-2.6899,-2.6899,-2.7103,-2.7301,-2.707,-2.7135,-2.731,-2.707,-2.7006,-2.6973,-2.6908,-2.6691,-2.6546,-2.6546,-2.638,-2.6212,-2.6212,-2.5648,-2.5077,-2.4969,-2.4348,-2.3611,-2.2811,-2.2663,-2.2425,-2.1669,-2.1316,-2.1111,-2.1079,-2.0436,-2.0003,-2.0003,-1.9617,-1.9339,-1.9339,-1.9302,-1.9258,-1.9258,-1.9183,-1.9101,-1.9101,-1.9101,-1.9101,-1.9101,-1.9101,-1.9064,-1.9019,-1.8584,-1.8187,-1.7713,-1.7275,-1.6905,-1.6515,-1.6515,-1.6515,-0.7063,-0.7017,-0.7098,-0.7248,-0.7698,-0.808,-0.8054,0.0,0.0,0.0,0.0,0.0,0.0,0.0,-1.1919,-1.3207,0.0,-1.3805,-1.4228,-1.4373,-1.4429,-1.4564,-1.4654,-1.4926,-1.545,-1.5811,-1.63,-1.6996,-1.7275,-1.7529,-1.7875,-1.8102,-1.8208,-1.8208,-1.8528,-1.8836,-1.9117,-1.9708,-2.0079,-2.027,-2.1149,-2.1533,-2.1494,-2.1689,-2.1758,-2.1758,0.0,-2.2248,-2.2801,-2.254,-2.3099,-2.4103,-2.3875,-2.4305,-2.5113,-2.5848,-2.6309,-2.6647,-2.7199,-2.7461,-2.7531,-2.743,-2.7461,-2.7531,-2.743,-2.7369,-2.7369,-2.7369,-2.7094,-2.6825,-2.6825,-2.664,-2.6415,-2.6415,-2.5744,-2.4994,-2.4597,-2.3926,-2.3189,-2.2443,-2.2303,-2.2126,-2.1481,-2.1245,-2.1063,-2.0794,-2.0384,-2.0108,-2.0108,-1.9952,-1.9747,-1.9589,-1.9574,-1.9493,-1.9339,-1.9183,-1.9101,-1.9101,-1.9101,-1.9101,-1.9101,-1.9101,-1.9101,-1.9101,-1.8707,-1.839,-1.8187,-1.7516,-1.7073,-1.6856,-1.6601,-1.6515,-0.5795,-0.5841,-0.5933,-0.5715,0.0,-0.7245,-0.7482,0.0,0.0,0.0,0.0,0.0,0.0,-1.0845,0.0,-1.3512,-1.3768,-1.3858,-1.4176,-1.428,-1.4512,-1.488,-1.4743,-1.5017,-1.5969,-1.5957,-1.6293,-1.7192,-1.7358,-1.7529,-1.7875,-1.8286,-1.8507,-1.8507,-1.8905,-1.9206,-1.9486,-1.966,-1.9882,-2.0115,-2.1004,-2.1161,-2.0652,-2.0744,-2.0769,-2.0801,-2.1395,-2.1726,-2.1908,-2.2353,-2.2871,-2.3404,-2.3455,-2.3826,-2.4456,-2.5777,-2.6167,-2.6144,-2.7116,-2.7438,-2.7417,-2.7417,-2.7531,-2.7651,-2.7672,-2.768,-2.7607,-2.7461,-2.7269,-2.7103,-2.7103,-2.6817,-2.6537,-2.658,-2.5938,-2.5083,-2.4339,-2.3728,-2.3068,-2.2128,-2.1925,-2.1745,-2.1166,-2.1079,-2.0958,-2.0595,-2.0384,-2.0273,-2.0273,-2.0231,-2.0127,-1.9925,-1.9839,-1.966,-1.9332,-1.9221,-1.9183,-1.9183,-1.9139,-1.9101,-1.9101,-1.9101,-1.9101,-1.9101,-1.8784,-1.8584,-1.8507,-1.7834,-1.7399,-1.7199,-1.6814,-1.6607,-0.4908,-0.4829,-0.4703,-0.4705,0.0,0.0,-0.6872,-0.6956,0.0,-0.6917,0.0,0.0,0.0,-1.0724,-1.2176,-1.2957,-1.3064,-1.3357,-1.4077,-1.4222,-1.4269,-1.4419,-1.4425,-1.4737,-1.5546,-1.5635,-1.6107,-1.7317,-1.7399,-1.7529,-1.7875,-1.8286,-1.8507,-1.8507,-1.8905,-1.9288,-1.9682,-1.9682,-1.9826,-2.0108,-2.0438,-2.0574,-2.0527,-2.0652,-2.0693,-2.0718,-2.0824,-2.1237,-2.179,-2.152,-2.219,-2.3347,-2.2989,-2.3558,-2.4739,-2.6011,-2.6055,-2.5576,-2.6411,-2.6635,-2.6606,-2.6606,-2.7019,-2.7526,-2.7587,-2.7548,-2.737,-2.6769,-2.7016,-2.7465,-2.7404,-2.6833,-2.6374,-2.658,-2.6208,-2.5647,-2.4911,-2.4705,-2.4202,-2.2646,-2.2354,-2.2135,-2.1391,-2.1277,-2.1285,-2.1214,-2.0958,-2.0753,-2.0753,-2.0467,-2.0331,-2.0426,-2.005,-1.9696,-1.9413,-1.9376,-1.9376,-1.9376,-1.9183,-1.9101,-1.9101,-1.9101,-1.9101,-1.9101,-1.9064,-1.886,-1.8507,-1.8429,-1.7995,-1.7199,-1.7157,-1.6899,-0.4604,-0.4829,-0.5055,-0.4705,0.0,0.0,0.0,0.0,0.0,-0.6492,-0.7188,0.0,0.0,0.0,-1.2093,-1.2467,-1.2764,-1.3261,-1.3952,-1.4134,-1.4368,-1.4783,-1.4834,-1.5187,-1.6076,-1.6281,-1.6667,-1.7399,-1.7618,-1.7862,-1.8247,-1.863,-1.8974,-1.9229,-1.9646,-1.9904,-2.0088,-2.008,-2.0115,-2.0227,-2.0373,-2.0441,-2.0441,-2.0543,-2.061,-2.0693,-2.0718,-2.1018,-2.1463,-2.1359,-2.182,-2.2665,-2.2758,-2.3089,-2.3598,-2.4623,-2.4828,-2.4707,-2.5448,-2.5719,-2.5691,-2.5691,-2.5854,-2.608,-2.6118,-2.6089,-2.6028,-2.5769,-2.5863,-2.6173,-2.664,-2.6782,-2.6648,-2.6067,-2.5296,-2.4462,-2.3503,-2.2956,-2.2451,-2.1827,-2.1722,-2.1609,-2.1239,-2.1199,-2.1119,-2.1023,-2.0893,-2.0794,-2.0794,-2.0802,-2.0728,-2.052,-2.03,-2.0042,-1.9752,-1.966,-1.9566,-1.9332,-1.9302,-1.9258,-1.9221,-1.9221,-1.9183,-1.9101,-1.9101,-1.9019,-1.886,-1.8623,-1.8351,-1.7988,-1.7713,-1.7352,-0.4301,-0.4609,-0.4918,0.0,0.0,0.0,0.0,0.0,0.0,-0.6165,-0.6896,0.0,-0.9179,0.0,0.0,-1.1882,-1.233,-1.2924,-1.3568,-1.3747,-1.4071,-1.4737,-1.4829,-1.5181,-1.6026,-1.6367,-1.6752,-1.7262,-1.7618,-1.7949,-1.8247,-1.8791,-1.925,-1.9501,-2.001,-2.0304,-2.0304,-2.0304,-2.0304,-2.0304,-2.0346,-2.0381,-2.0381,-2.0561,-2.0695,-2.0769,-2.0933,-2.1159,-2.1433,-2.154,-2.1903,-2.2392,-2.2659,-2.279,-2.2903,-2.3754,-2.3911,-2.3842,-2.4599,-2.4825,-2.4788,-2.4907,-2.5045,-2.5199,-2.5292,-2.5246,-2.5118,-2.4931,-2.5016,-2.5212,-2.5536,-2.5937,-2.611,-2.5433,-2.4577,-2.363,-2.2663,-2.1997,-2.1496,-2.1199,-2.1151,-2.1199,-2.1342,-2.115,-2.1045,-2.1136,-2.0944,-2.0794,-2.0794,-2.1132,-2.1234,-2.0889,-2.0908,-2.0704,-2.0147,-2.0104,-2.0015,-1.979,-1.9833,-1.969,-1.9339,-1.9258,-1.9221,-1.9139,-1.9139,-1.9139,-1.9101,-1.886,-1.8662,-1.8507,-1.8187,-1.7794,-0.3907,-0.3907,-0.4039,0.0,0.0,0.0,0.0,0.0,0.0,-0.5925,0.0,-0.8015,-0.8992,-0.9965,0.0,-1.1217,-1.1714,-1.2246,-1.2919,-1.3016,-1.3299,-1.4077,-1.4222,-1.449,-1.5215,-1.5718,-1.625,-1.6752,-1.7365,-1.7686,-1.7726,-1.8606,-1.9101,-1.9101,-1.9869,-2.0304,-2.0304,-2.0304,-2.0304,-2.0304,-2.0304,-2.0304,-2.0304,-2.0712,-2.0893,-2.0926,-2.1456,-2.1686,-2.1746,-2.2076,-2.2392,-2.2712,-2.2712,-2.2738,-2.2903,-2.3692,-2.3519,-2.3023,-2.3816,-2.4015,-2.3935,-2.4208,-2.4663,-2.5142,-2.5473,-2.5347,-2.4958,-2.4357,-2.458,-2.4798,-2.4088,-2.417,-2.4538,-2.4744,-2.4215,-2.3489,-2.276,-2.2394,-2.1911,-2.1003,-2.0786,-2.1031,-2.1758,-2.1276,-2.1047,-2.1782,-2.1276,-2.0802,-2.081,-2.1458,-2.1815,-2.1651,-2.1914,-2.1655,-2.0598,-2.0695,-2.0794,-2.0794,-2.0802,-2.035,-1.9347,-1.9183,-1.9183,-1.931,-1.9302,-1.9221,-1.9101,-1.9221,-1.9019,-1.8507,-1.8507,-1.8266,-0.3524,-0.4043,0.0,-0.4647,0.0,0.0,0.0,0.0,0.0,0.0,-0.7346,-0.8082,-0.8268,-0.9246,0.0,-1.0332,-1.1292,-1.2246,-1.2919,-1.3314,-1.3705,-1.4129,-1.4496,-1.4949,-1.5573,-1.6145,-1.6686,-1.7177,-1.7413,-1.7727,-1.8088,-1.8592,-1.9049,-1.9384,-1.9841,-2.0096,-2.015,-2.015,-2.0323,-2.0662,-2.0662,-2.0535,-2.0304,-2.0662,-2.0844,-2.0926,-2.1324,-2.1683,-2.2027,-2.24,-2.2712,-2.2986,-2.2986,-2.3075,-2.3259,-2.349,-2.3436,-2.3292,-2.3522,-2.3569,-2.3569,-2.3641,-2.3777,-2.3923,-2.402,-2.3876,-2.3658,-2.3473,-2.3389,-2.3333,-2.31,-2.3141,-2.3322,-2.3729,-2.365,-2.3229,-2.2239,-2.196,-2.1779,-2.1255,-2.1151,-2.1159,-2.1112,-2.0936,-2.1047,-2.1782,-2.1679,-2.1703,-2.2201,-2.2453,-2.2623,-2.2635,-2.2338,-2.1955,-2.1647,-2.1163,-2.0803,-2.0671,-2.1085,-2.1116,-2.0592,-2.0074,-1.9899,-2.0084,-1.9612,-1.9339,-1.9221,-1.9295,-1.9183,-1.8905,-1.8905,-1.8707,-0.431,-0.4685,0.0,-0.525,-0.561,-0.5909,-0.594,0.0,0.0,0.0,-0.7464,-0.796,-0.8128,-0.8781,0.0,-0.9862,-1.0576,-1.1484,-1.2482,-1.288,-1.3415,-1.4217,-1.4634,-1.5079,-1.5662,-1.6281,-1.6735,-1.7002,-1.7295,-1.7693,-1.8154,-1.8584,-1.9011,-1.9464,-1.9805,-2.0033,-2.0053,-2.0204,-2.0436,-2.0712,-2.0909,-2.0901,-2.0712,-2.1031,-2.1222,-2.1276,-2.1683,-2.2007,-2.2326,-2.2668,-2.291,-2.3061,-2.3135,-2.3253,-2.3368,-2.3368,-2.3391,-2.3396,-2.3396,-2.341,-2.3414,-2.3513,-2.3491,-2.3468,-2.3575,-2.3427,-2.3245,-2.3199,-2.3011,-2.2833,-2.2764,-2.2712,-2.2771,-2.3044,-2.3025,-2.2738,-2.209,-2.1869,-2.17,-2.1379,-2.1317,-2.1279,-2.1225,-2.0976,-2.1134,-2.2137,-2.2264,-2.2501,-2.3204,-2.3299,-2.3328,-2.3401,-2.3135,-2.2804,-2.2516,-2.2194,-2.1962,-2.1821,-2.2289,-2.2511,-2.2467,-2.143,-2.0707,-2.0448,-2.0056,-1.9656,-1.9302,-1.9339,-1.9258,-1.9101,-1.9101,-1.8981,-0.5462,0.0,0.0,-0.6061,-0.5964,0.0,-0.63,-0.6403,-0.655,-0.7036,0.0,-0.7729,-0.8415,-0.8623,-0.8886,-0.9658,-0.9865,-1.0427,-1.1801,-1.2103,-1.2725,-1.4305,-1.4669,-1.4977,-1.5629,-1.6163,-1.6515,-1.6601,-1.7135,-1.7631,-1.8028,-1.8546,-1.9019,-1.9406,-1.9805,-2.0033,-2.0061,-2.0436,-2.0663,-2.0697,-2.1142,-2.1362,-2.1401,-2.1661,-2.1819,-2.1886,-2.2304,-2.2533,-2.2641,-2.2885,-2.3011,-2.3077,-2.3256,-2.3351,-2.3351,-2.3351,-2.3412,-2.3463,-2.3463,-2.3459,-2.3513,-2.3765,-2.3714,-2.3619,-2.3846,-2.3744,-2.3509,-2.3357,-2.3208,-2.3036,-2.2833,-2.2738,-2.2712,-2.2712,-2.2463,-2.2256,-2.2256,-2.2047,-2.1781,-2.1456,-2.1371,-2.1416,-2.17,-2.1268,-2.1371,-2.2761,-2.303,-2.3299,-2.3931,-2.401,-2.401,-2.401,-2.4105,-2.3922,-2.3275,-2.3505,-2.371,-2.3744,-2.3951,-2.4222,-2.4502,-2.2981,-2.1652,-2.0668,-2.0594,-2.0146,-1.9339,-1.9384,-1.9324,-1.9188,-1.913,-1.913,-0.3595,-0.4694,0.0,0.0,-0.6127,-0.6849,-0.7169,-0.7222,-0.7114,-0.6612,-0.7026,-0.7619,-0.8137,-0.8672,-0.9204,-0.9714,-1.0438,-1.1213,-1.1904,-1.2716,-1.3579,-1.4403,-1.4943,-1.5472,-1.6095,-1.6374,-1.6765,-1.7468,-1.7632,-1.7922,-1.8429,-1.8822,-1.9236,-1.9696,-2.0015,-2.0326,-2.0704,-2.0845,-2.1111,-2.1456,-2.1631,-2.1827,-2.2086,-2.1886,-2.1974,-2.2285,-2.2386,-2.2587,-2.2833,-2.2885,-2.3149,-2.3473,-2.3518,-2.3667,-2.3843,-2.3843,-2.3894,-2.3944,-2.3944,-2.3976,-2.4045,-2.4103,-2.4094,-2.4065,-2.4122,-2.3946,-2.3701,-2.3441,-2.3236,-2.3036,-2.279,-2.2712,-2.2712,-2.2712,-2.265,-2.258,-2.258,-2.2535,-2.2417,-2.2059,-2.1853,-2.1628,-2.1448,-2.1539,-2.2122,-2.3488,-2.4168,-2.4617,-2.476,-2.4744,-2.4744,-2.4744,-2.4422,-2.4216,-2.4205,-2.3901,-2.3777,-2.3926,-2.4513,-2.4748,-2.4518,-2.3653,-2.2797,-2.1911,-2.1391,-2.0584,-1.9538,-1.9538,-1.9686,-1.9958,-1.9492,-1.946,-0.4276,0.0,0.0,-0.5913,0.0,-0.6918,-0.7246,-0.7303,-0.7213,-0.6768,-0.7421,-0.8096,-0.8299,-0.8834,-0.9309,-0.971,-1.023,-1.0897,-1.1855,-1.2706,-1.3606,-1.468,-1.5311,-1.6014,-1.6788,-1.7005,-1.738,-1.8068,-1.8147,-1.8351,-1.8822,-1.9147,-1.9544,-1.9965,-2.0319,-2.0597,-2.0844,-2.1111,-2.1446,-2.1807,-2.2093,-2.239,-2.2659,-2.2362,-2.2417,-2.2747,-2.2756,-2.2885,-2.3061,-2.3175,-2.3371,-2.3611,-2.368,-2.3765,-2.3896,-2.3896,-2.3976,-2.4045,-2.4045,-2.4122,-2.4199,-2.4199,-2.4199,-2.4199,-2.4199,-2.4094,-2.3946,-2.3671,-2.3526,-2.3376,-2.3107,-2.296,-2.2885,-2.2885,-2.2782,-2.2712,-2.2738,-2.2703,-2.2615,-2.2311,-2.2116,-2.189,-2.1601,-2.2134,-2.2901,-2.3757,-2.4523,-2.5013,-2.5013,-2.5013,-2.5013,-2.5013,-2.4828,-2.4756,-2.4855,-2.4793,-2.4794,-2.4906,-2.5347,-2.5518,-2.5316,-2.4999,-2.4172,-2.2809,-2.2248,-2.1492,-2.0503,-2.0503,-2.0596,-2.0756,-2.045,-2.024,0.0,0.0,-0.5674,-0.6425,-0.6632,0.0,-0.7012,-0.713,-0.7245,-0.7441,-0.7987,-0.8468,-0.8623,-0.8942,-0.9413,-0.9972,-1.0075,-1.0533,-1.1945,-1.2604,-1.3501,-1.4915,-1.5712,-1.6497,-1.7393,-1.7713,-1.8028,-1.8546,-1.8584,-1.8815,-1.9273,-1.9536,-1.9914,-2.0387,-2.0704,-2.0917,-2.0982,-2.1432,-2.1739,-2.1968,-2.2482,-2.2902,-2.3149,-2.2944,-2.2944,-2.3133,-2.3151,-2.3208,-2.3289,-2.3513,-2.3594,-2.366,-2.3762,-2.3795,-2.3795,-2.3795,-2.3876,-2.3987,-2.3996,-2.4074,-2.417,-2.4199,-2.4199,-2.4199,-2.4199,-2.4199,-2.4142,-2.3816,-2.3765,-2.3723,-2.3441,-2.3251,-2.3151,-2.3111,-2.2936,-2.279,-2.2816,-2.2738,-2.265,-2.2429,-2.2275,-2.213,-2.1908,-2.2631,-2.3329,-2.3676,-2.4239,-2.4689,-2.4846,-2.4854,-2.491,-2.5037,-2.5248,-2.5402,-2.5363,-2.5704,-2.597,-2.597,-2.6096,-2.6212,-2.6212,-2.6123,-2.5313,-2.3702,-2.3253,-2.2606,-2.1721,-2.1721,-2.1717,-2.1701,-2.155,-2.1156,0.0,0.0,-0.5288,0.0,-0.6706,-0.6764,0.0,0.0,-0.7807,0.0,-0.8346,-0.7886,-0.862,-0.8995,-0.9621,-1.0909,-1.1116,-1.1456,-1.2521,-1.314,-1.3904,-1.4966,-1.6039,-1.6896,-1.7434,-1.8028,-1.8584,-1.8981,-1.9019,-1.9332,-2.0035,-2.0104,-2.0447,-2.1143,-2.1222,-2.1363,-2.1661,-2.2023,-2.2223,-2.2251,-2.2668,-2.3068,-2.3449,-2.3403,-2.3319,-2.3184,-2.3133,-2.3286,-2.3549,-2.3526,-2.3629,-2.3783,-2.3795,-2.3795,-2.3795,-2.3795,-2.3846,-2.3917,-2.3976,-2.4045,-2.4122,-2.417,-2.4199,-2.4199,-2.4199,-2.4199,-2.4103,-2.3588,-2.3619,-2.371,-2.3245,-2.3251,-2.3327,-2.3214,-2.316,-2.3061,-2.2859,-2.2738,-2.2712,-2.2721,-2.2438,-2.2195,-2.2239,-2.2345,-2.2591,-2.2984,-2.3101,-2.3444,-2.4217,-2.4327,-2.4537,-2.5184,-2.5592,-2.5733,-2.5567,-2.5934,-2.6168,-2.6168,-2.6176,-2.6212,-2.6212,-2.5811,-2.5462,-2.5207,-2.4643,-2.3794,-2.2721,-2.2721,-2.2775,-2.2848,-2.2206,-2.1912,-0.4134,-0.4931,-0.5803,0.0,-0.6999,-0.7209,-0.7969,-0.828,-0.8705,-0.996,-0.9717,-0.9515,-1.0143,-1.0517,-1.099,-1.161,-1.1714,-1.1999,-1.2817,-1.3721,-1.4631,-1.5448,-1.6623,-1.7605,-1.8187,-1.8507,-1.8959,-1.9652,-1.9732,-1.9972,-2.0504,-2.0697,-2.1023,-2.1454,-2.1637,-2.189,-2.2183,-2.2388,-2.2597,-2.2867,-2.3236,-2.3491,-2.3676,-2.3676,-2.3611,-2.3544,-2.3513,-2.358,-2.3707,-2.3676,-2.3719,-2.3795,-2.3795,-2.3795,-2.3795,-2.3795,-2.3837,-2.3896,-2.3937,-2.4016,-2.4094,-2.4142,-2.417,-2.4199,-2.4199,-2.4199,-2.4122,-2.3735,-2.3816,-2.3905,-2.3413,-2.3364,-2.341,-2.3247,-2.3111,-2.3011,-2.2936,-2.2833,-2.2756,-2.2782,-2.2659,-2.263,-2.2914,-2.2778,-2.2777,-2.3187,-2.3052,-2.3161,-2.3925,-2.405,-2.4366,-2.5214,-2.5562,-2.5749,-2.577,-2.6043,-2.6212,-2.6212,-2.6212,-2.6212,-2.6212,-2.599,-2.5901,-2.5901,-2.5161,-2.4531,-2.4008,-2.4008,-2.3943,-2.3744,-2.3452,-2.2918,0.0,0.0,-0.6019,-0.6518,-0.675,-0.7188,0.0,0.0,-0.9181,0.0,-1.1273,-1.1513,-1.2047,-1.2066,-1.2169,-1.2643,-1.2735,-1.3019,-1.3768,-1.4682,-1.5568,-1.6219,-1.7307,-1.8263,-1.8968,-1.9132,-1.9536,-2.0285,-2.0353,-2.053,-2.0893,-2.1198,-2.1462,-2.171,-2.2047,-2.2298,-2.2515,-2.2668,-2.2985,-2.3458,-2.3698,-2.3825,-2.3816,-2.3783,-2.3771,-2.3728,-2.3762,-2.3771,-2.3719,-2.3719,-2.3741,-2.3762,-2.3762,-2.3774,-2.3795,-2.3795,-2.3837,-2.3876,-2.3887,-2.3976,-2.4074,-2.4094,-2.4151,-2.4199,-2.4199,-2.4199,-2.4142,-2.3876,-2.3967,-2.4025,-2.3544,-2.3468,-2.3486,-2.3286,-2.3144,-2.302,-2.2986,-2.291,-2.2842,-2.2833,-2.2816,-2.2867,-2.3153,-2.2921,-2.2789,-2.3031,-2.2973,-2.3135,-2.3773,-2.4058,-2.4516,-2.5283,-2.56,-2.5795,-2.5889,-2.6087,-2.6212,-2.6212,-2.6212,-2.6129,-2.5938,-2.6112,-2.612,-2.593,-2.5462,-2.5184,-2.5051,-2.5051,-2.4791,-2.431,-2.4261,-2.3652,0.0,-0.49,0.0,-0.5074,-0.5553,0.0,0.0,0.0,-0.8688,-1.1542,-1.2459,-1.3065,-1.4061,-1.3062,-1.2667,-1.4438,-1.4767,-1.5076,-1.6065,-1.634,-1.6664,-1.7322,-1.8041,-1.8777,-1.9576,-2.0116,-2.052,-2.0753,-2.0761,-2.0925,-2.1254,-2.1454,-2.1731,-2.2059,-2.2343,-2.2487,-2.2515,-2.2933,-2.3401,-2.3876,-2.3896,-2.3887,-2.3896,-2.3768,-2.3634,-2.353,-2.3656,-2.3634,-2.3508,-2.3508,-2.3598,-2.37,-2.37,-2.3738,-2.3795,-2.3795,-2.3795,-2.3816,-2.3876,-2.3946,-2.4025,-2.4074,-2.4151,-2.4199,-2.4199,-2.4199,-2.4142,-2.3876,-2.3867,-2.3846,-2.3566,-2.3535,-2.3562,-2.3421,-2.3392,-2.3289,-2.2961,-2.2936,-2.2961,-2.2919,-2.2833,-2.2703,-2.2409,-2.2307,-2.2163,-2.1918,-2.2477,-2.3117,-2.3628,-2.4495,-2.5168,-2.5532,-2.5934,-2.6096,-2.5934,-2.6087,-2.6212,-2.6212,-2.6212,-2.5897,-2.5193,-2.5839,-2.588,-2.5176,-2.5812,-2.5909,-2.5465,-2.5465,-2.5051,-2.431,-2.4162,-2.3802,0.0,0.0,0.0,-0.577,-0.5934,-0.6325,-0.7588,-0.8511,-0.9739,-1.1836,-1.3352,-1.4659,-1.5804,-1.4909,-1.425,-1.4909,-1.5235,-1.563,-1.6267,-1.714,-1.7894,-1.8403,-1.9112,-1.9728,-2.0108,-2.0319,-2.063,-2.1134,-2.126,-2.1524,-2.1982,-2.2118,-2.2271,-2.2463,-2.2624,-2.2756,-2.2885,-2.323,-2.3522,-2.3765,-2.3946,-2.4047,-2.4087,-2.4037,-2.3946,-2.381,-2.3698,-2.3576,-2.3517,-2.3598,-2.3665,-2.3691,-2.3738,-2.3783,-2.3795,-2.3795,-2.3795,-2.3795,-2.3825,-2.3917,-2.3996,-2.4025,-2.4122,-2.4199,-2.4199,-2.4199,-2.4122,-2.3671,-2.3683,-2.3701,-2.3179,-2.3221,-2.3371,-2.3232,-2.3217,-2.316,-2.3061,-2.3011,-2.2986,-2.2961,-2.2936,-2.2902,-2.2824,-2.2581,-2.2349,-2.222,-2.2245,-2.2427,-2.294,-2.3703,-2.4434,-2.5031,-2.5647,-2.6015,-2.6096,-2.6176,-2.6212,-2.6212,-2.6212,-2.588,-2.5135,-2.5359,-2.516,-2.4414,-2.4655,-2.5174,-2.5946,-2.5639,-2.5198,-2.4679,-2.4369,-2.3917,-0.504,0.0,0.0,0.0,0.0,-0.678,-0.7288,-0.8489,-1.0033,-1.1893,-1.3498,-1.5054,-1.6683,-1.6475,-1.6194,-1.6553,-1.678,-1.7085,-1.7544,-1.8394,-1.9104,-1.9488,-2.0043,-2.0522,-2.0878,-2.091,-2.1126,-2.1726,-2.1845,-2.2044,-2.2377,-2.2533,-2.2703,-2.2952,-2.2927,-2.3068,-2.3403,-2.3562,-2.3732,-2.3952,-2.4125,-2.422,-2.4238,-2.4154,-2.4057,-2.3917,-2.3658,-2.3553,-2.3499,-2.349,-2.3544,-2.3558,-2.3673,-2.3728,-2.3771,-2.3795,-2.3795,-2.3795,-2.3795,-2.3896,-2.3996,-2.3996,-2.4094,-2.4199,-2.4199,-2.4151,-2.4016,-2.3744,-2.3637,-2.3513,-2.314,-2.3126,-2.3184,-2.3119,-2.3086,-2.3086,-2.3086,-2.307,-2.3036,-2.3036,-2.302,-2.3011,-2.3061,-2.2824,-2.2608,-2.2581,-2.2605,-2.2706,-2.2884,-2.3535,-2.4149,-2.4477,-2.4979,-2.5417,-2.5787,-2.5847,-2.5947,-2.6195,-2.6212,-2.588,-2.5135,-2.535,-2.5127,-2.4381,-2.4613,-2.5226,-2.6212,-2.5493,-2.5059,-2.4902,-2.45,-2.4009,0.0,0.0,0.0,0.0,0.0,0.0,-0.6716,0.0,-0.9459,-1.1779,-1.2925,-1.4211,-1.6566,-1.7529,-1.8313,-1.9373,-1.9411,-1.9535,-2.0097,-2.0154,-2.0231,-2.0597,-2.0745,-2.1095,-2.1832,-2.189,-2.2073,-2.2479,-2.2506,-2.2487,-2.2413,-2.2659,-2.3028,-2.3481,-2.3247,-2.3394,-2.3996,-2.3932,-2.407,-2.4399,-2.4389,-2.4365,-2.4294,-2.4105,-2.3937,-2.3816,-2.3598,-2.3517,-2.3495,-2.3232,-2.3184,-2.3313,-2.3439,-2.3576,-2.3721,-2.3762,-2.3795,-2.3795,-2.3795,-2.3896,-2.3996,-2.3996,-2.4094,-2.4199,-2.4199,-2.4025,-2.3867,-2.4103,-2.3703,-2.3247,-2.3441,-2.3227,-2.3011,-2.3086,-2.3086,-2.3086,-2.3086,-2.3086,-2.3086,-2.3086,-2.3045,-2.3011,-2.3011,-2.2936,-2.2919,-2.291,-2.358,-2.3906,-2.352,-2.4126,-2.4433,-2.4023,-2.4008,-2.4299,-2.5044,-2.5085,-2.5392,-2.6129,-2.6178,-2.5847,-2.511,-2.5789,-2.5831,-2.5085,-2.5781,-2.6162,-2.6178,-2.5089,-2.4679,-2.4902,-2.4492,-2.4009,-0.8307,0.0,0.0,0.0,0.0,0.0,-0.9118,0.0,-1.1128,-1.1075,-1.2354,-1.3622,-1.4069,-1.5538,-1.7067,-1.8233,-1.9053,-1.9649,-2.0008,-2.0439,-2.0803,-2.1071,-2.1409,-2.1653,-2.1811,-2.199,-2.22,0.0,-2.2606,-2.2764,-2.2833,-2.3093,-2.331,-2.3495,-2.3567,-2.3719,-2.3926,-2.3961,-2.4098,-2.433,-2.4373,-2.4425,-2.4444,-2.4392,-2.4338,-2.4284,-2.4039,-2.3849,-2.3689,-2.3389,-2.3265,-2.3313,-2.3439,-2.3576,-2.37,-2.3712,-2.3759,-2.3795,-2.3795,-2.3867,-2.3946,-2.3987,-2.4065,-2.4151,-2.4199,-2.4151,-2.4016,-2.3714,-2.3486,-2.3303,-2.3116,-2.3068,-2.3095,-2.3095,-2.3086,-2.3086,-2.3086,-2.3086,-2.3086,-2.3086,-2.3095,-2.3061,-2.3061,-2.307,-2.3036,-2.2986,-2.3153,-2.3206,-2.296,-2.3426,-2.3702,-2.3435,-2.3757,-2.4299,-2.5044,-2.4613,-2.4621,-2.5367,-2.5408,-2.5077,-2.4332,-2.5019,-2.5069,-2.4323,-2.4506,-2.4878,-2.5417,-2.5273,-2.5242,-2.5313,-2.4606,-2.4227,0.0,0.0,0.0,0.0,0.0,0.0,-0.9541,-1.0334,-1.1041,-0.9926,-0.9977,-1.0475,-1.1199,-1.2643,-1.4005,-1.4933,-1.7275,-1.9387,-2.0391,-2.087,-2.1222,-2.1518,-2.1823,-2.2047,-2.2166,-2.2337,-2.2519,-2.2643,-2.2807,-2.2961,-2.3036,-2.3348,-2.3567,-2.3611,-2.3762,-2.3939,-2.4154,-2.4127,-2.4238,-2.4464,-2.4487,-2.4459,-2.4459,-2.4487,-2.441,-2.4275,-2.4164,-2.393,-2.3655,-2.3499,-2.3389,-2.3313,-2.3439,-2.3576,-2.37,-2.3725,-2.3771,-2.3795,-2.3795,-2.3867,-2.3946,-2.3996,-2.4065,-2.4151,-2.4199,-2.4122,-2.3967,-2.364,-2.345,-2.3251,-2.3003,-2.2986,-2.307,-2.3086,-2.3086,-2.3086,-2.3086,-2.3086,-2.3086,-2.3086,-2.3086,-2.3086,-2.3086,-2.3086,-2.3095,-2.3036,-2.3036,-2.2961,-2.2764,-2.2937,-2.2997,-2.2752,-2.2954,-2.3379,-2.4125,-2.4067,-2.4315,-2.506,-2.54,-2.5375,-2.4944,-2.5342,-2.5367,-2.4936,-2.492,-2.5135,-2.5566,-2.5428,-2.5383,-2.5494,-2.4831,-2.4459,0.0,0.0,0.0,0.0,-1.2711,0.0,-0.9705,-1.0125,-1.0794,-0.9523,-0.7982,-0.7453,-0.9303,-1.045,-1.1294,-1.1815,-1.5487,-1.8923,-2.076,-2.1271,-2.1593,-2.194,-2.2153,-2.2383,-2.2677,-2.2756,-2.2859,-2.2986,-2.3086,-2.3126,-2.3126,-2.3535,-2.3756,-2.3837,-2.3928,-2.4145,-2.4512,-2.4389,-2.4469,-2.4691,-2.4641,-2.4538,-2.4416,-2.4489,-2.4339,-2.4056,-2.4106,-2.3899,-2.354,-2.3593,-2.3491,-2.3313,-2.3439,-2.3576,-2.3721,-2.3771,-2.3795,-2.3795,-2.3795,-2.3887,-2.3996,-2.3996,-2.4094,-2.4199,-2.4199,-2.4036,-2.3837,-2.3786,-2.3499,-2.3184,-2.3036,-2.302,-2.3045,-2.3095,-2.3086,-2.3086,-2.3086,-2.3086,-2.3086,-2.3086,-2.3086,-2.3086,-2.3086,-2.3086,-2.3086,-2.3086,-2.3086,-2.3045,-2.2868,-2.2632,-2.2407,-2.2161,-2.1949,-2.2087,-2.2833,-2.3495,-2.4191,-2.4936,-2.5682,-2.6087,-2.6087,-2.617,-2.6212,-2.6212,-2.6212,-2.6212,-2.6212,-2.5549,-2.5349,-2.5556,-2.5168,-2.4752,0.0,0.0,0.0,0.0,-1.5466,0.0,-1.5106,-1.5797,-1.6187,-1.4861,-1.4413,-1.4115,-1.3736,-1.5476,-1.7078,-1.7454,-1.8231,-1.8903,-1.9302,-2.0761,-2.1961,-2.2422,-2.2599,-2.2694,-2.2712,-2.2859,-2.2961,-2.2986,-2.3271,-2.3435,-2.3435,-2.3807,-2.403,-2.4049,-2.4257,-2.4446,-2.4589,-2.4554,-2.4589,-2.4691,-2.4691,-2.4641,-2.4564,-2.4573,-2.4481,-2.4321,-2.4349,-2.4096,-2.3732,-2.3753,-2.3589,-2.3313,-2.3439,-2.3576,-2.37,-2.3712,-2.375,-2.3795,-2.3795,-2.3846,-2.3926,-2.3987,-2.4045,-2.4122,-2.417,-2.417,-2.4045,-2.3662,-2.3459,-2.3319,-2.3052,-2.3036,-2.3086,-2.3095,-2.3086,-2.3086,-2.3086,-2.3086,-2.3086,-2.3086,-2.3086,-2.3086,-2.3086,-2.3086,-2.3086,-2.3086,-2.3086,-2.3095,-2.3045,-2.2703,-2.2479,-2.2443,-2.2061,-2.2087,-2.2833,-2.3023,-2.3429,-2.4174,-2.492,-2.5317,-2.5317,-2.5889,-2.6212,-2.6212,-2.6212,-2.6212,-2.6212,-2.6071,-2.6019,-2.6035,-2.561,-2.5168,0.0,0.0,0.0,-1.7497,-1.7786,0.0,0.0,-1.7152,-1.7047,-1.5432,-1.429,-1.3479,-1.3042,-1.4149,-1.5272,-1.5719,-1.6581,-1.7793,-1.9504,-2.0277,-2.1257,-2.2856,-2.3107,-2.3118,-2.3068,-2.3052,-2.3111,-2.3247,-2.3508,-2.3655,-2.3655,-2.4067,-2.4248,-2.4107,-2.4356,-2.454,-2.4599,-2.4194,-2.4039,-2.4095,-2.3667,-2.3558,-2.3754,-2.3781,-2.3861,-2.3937,-2.3712,-2.3385,-2.3022,-2.279,-2.2526,-2.2353,-2.282,-2.3081,-2.3151,-2.2745,-2.2623,-2.2645,-2.2647,-2.2961,-2.3302,-2.2957,-2.3444,-2.4078,-2.3703,-2.3715,-2.3837,-2.3816,-2.3611,-2.338,-2.3271,-2.3262,-2.328,-2.3135,-2.3086,-2.3086,-2.3086,-2.3086,-2.3086,-2.3086,-2.3086,-2.3086,-2.3086,-2.3086,-2.3086,-2.3086,-2.3086,-2.3061,-2.2961,-2.2756,-2.257,-2.2335,-2.2093,-2.207,-2.2341,-2.3023,-2.3611,-2.3984,-2.5044,-2.5657,-2.5657,-2.6013,-2.6212,-2.6212,-2.6212,-2.6212,-2.6212,-2.6212,-2.6212,-2.6176,-2.5721,-2.5389,0.0,0.0,0.0,0.0,0.0,-1.9091,0.0,0.0,0.0,-1.5972,-1.4326,-1.3222,-1.3345,-1.3725,-1.4122,-1.445,-1.5644,0.0,0.0,-2.0318,0.0,-2.3362,-2.3145,-2.2963,-2.3405,-2.3307,-2.3315,-2.3571,-2.3777,-2.3881,-2.3858,-2.4266,-2.4402,-2.4173,-2.4382,-2.4463,-2.4365,-2.3724,-2.3367,-2.3252,-2.2688,-2.2619,-2.2987,-2.3014,-2.3139,-2.3365,-2.2833,-2.2421,-2.2117,-2.1731,-2.1487,-2.1405,-2.2053,-2.2384,-2.2401,-2.1749,-2.1495,-2.1505,-2.1497,-2.198,-2.2493,-2.188,-2.2731,-2.3878,-2.3345,-2.3367,-2.3649,-2.3894,-2.3694,-2.3426,-2.3426,-2.3426,-2.3365,-2.316,-2.3086,-2.3086,-2.3086,-2.3086,-2.3086,-2.3086,-2.3086,-2.3086,-2.3086,-2.3086,-2.3086,-2.3086,-2.3086,-2.3036,-2.2885,-2.279,-2.2588,-2.2226,-2.2104,-2.1969,-2.1811,-2.3015,-2.3851,-2.3992,-2.5259,-2.6063,-2.6203,-2.6212,-2.6212,-2.6212,-2.6212,-2.6212,-2.6212,-2.6212,-2.6212,-2.6176,-2.5811,-2.5594,0.0,0.0,0.0,0.0,-2.0242,-2.0727,-2.0225,0.0,-2.1379,-2.1301,0.0,-2.1461,-2.155,0.0,0.0,0.0,-2.0917,-2.094,-2.2815,-2.1779,-2.1685,-2.4014,-2.1877,-2.1123,-2.3439,-2.3654,-2.3696,-2.3843,-2.41,-2.4192,-2.4069,-2.4339,-2.4482,-2.4456,-2.4487,-2.4185,-2.3537,-2.3453,-2.3072,-2.2445,-2.2946,-2.3203,-2.3254,-2.3145,-2.3042,-2.2931,-2.2154,-2.1753,-2.1593,-2.1532,-2.1504,-2.1494,-2.1585,-2.1621,-2.1631,-2.1532,-2.1496,-2.1506,-2.1505,-2.1634,-2.1789,-2.1662,-2.2301,-2.3217,-2.3648,-2.3874,-2.3885,-2.3558,-2.349,-2.3435,-2.3208,-2.3135,-2.3135,-2.3111,-2.3086,-2.3086,-2.3086,-2.3086,-2.3086,-2.3086,-2.3086,-2.3086,-2.3086,-2.3086,-2.3086,-2.3086,-2.3086,-2.3086,-2.3061,-2.2756,-2.2506,-2.2451,-2.2081,-2.1811,-2.1789,-2.2543,-2.3296,-2.3959,-2.4779,-2.5532,-2.6178,-2.6212,-2.6212,-2.6212,-2.6212,-2.6212,-2.6212,-2.6212,-2.6212,-2.6212,-2.6132,-2.5901,0.0,0.0,0.0,0.0,0.0,0.0,-2.2078,0.0,-2.2643,-2.2703,0.0,0.0,0.0,0.0,0.0,0.0,-2.1884,-2.1306,-2.3796,0.0,-2.0285,-2.4174,0.0,0.0,-2.1896,-2.1351,-2.1287,-2.1885,-2.2978,-2.3817,-2.4311,-2.4445,-2.4292,-2.3819,-2.385,-2.349,-2.2714,-2.2242,-2.185,-2.1553,-2.174,-2.1807,-2.1735,-2.2041,-2.2145,-2.2035,-2.1161,-2.0771,-2.0771,-2.03,-2.011,-2.011,-2.011,-2.0391,-2.0753,-2.0282,-2.011,-2.0109,-2.0145,-2.0435,-2.0844,-2.1249,-2.161,-2.2054,-2.2861,-2.3412,-2.3753,-2.3664,-2.3655,-2.3611,-2.338,-2.3342,-2.3295,-2.3135,-2.3086,-2.3086,-2.3086,-2.3086,-2.3086,-2.3086,-2.3086,-2.3086,-2.3086,-2.3086,-2.3086,-2.3086,-2.3086,-2.3086,-2.3086,-2.2961,-2.2764,-2.2533,-2.2332,-2.2089,-2.1819,-2.2468,-2.3205,-2.3951,-2.5102,-2.5889,-2.6203,-2.6212,-2.6212,-2.6212,-2.6212,-2.6212,-2.6212,-2.6212,-2.6212,-2.6212,-2.6212,-2.6079,-2.3173,0.0,0.0,0.0,0.0,0.0,0.0,0.0,0.0,0.0,-2.3227,0.0,0.0,0.0,0.0,0.0,0.0,-2.1953,0.0,-2.1453,-2.0763,-2.4464,-2.4778,0.0,0.0,-2.0867,-2.0619,-2.1313,-2.1928,-2.28,-2.4081,-2.3733,-2.3545,-2.3622,-2.3474,-2.3008,-2.2219,-2.14,-2.0978,-2.0937,-2.0858,-2.0858,-2.0928,-2.1123,-2.1198,-2.1161,-2.0237,-1.9885,-1.9929,-1.9331,-1.9096,-1.9096,-1.9095,-1.9457,-1.9892,-1.9312,-1.9111,-1.9137,-1.9177,-1.95,-2.0002,-2.0721,-2.0945,-2.1099,-2.1951,-2.2724,-2.3273,-2.3346,-2.3475,-2.3558,-2.3426,-2.3389,-2.3342,-2.3135,-2.3086,-2.3086,-2.3086,-2.3086,-2.3086,-2.3086,-2.3086,-2.3086,-2.3086,-2.3086,-2.3086,-2.3086,-2.3086,-2.3086,-2.3086,-2.3036,-2.2919,-2.2605,-2.2533,-2.2324,-2.1928,-2.236,-2.3052,-2.3942,-2.5201,-2.6005,-2.6203,-2.6212,-2.6212,-2.6212,-2.6212,-2.6112,-2.5913,-2.5913,-2.5913,-2.5913,-2.612,-2.6212,0.0,0.0,0.0,-2.3532,0.0,0.0,0.0,0.0,-2.3198,0.0,0.0,0.0,0.0,0.0,0.0,0.0,0.0,0.0,0.0,-2.4025,-2.4791,-2.5136,-2.5015,-2.486,0.0,-2.3969,-2.3495,-2.3588,-2.1426,-2.1022,-2.3126,-2.1825,-2.207,-2.4383,-2.3767,-2.301,-2.2219,-2.1408,-2.0923,-2.0815,-2.0791,-2.1149,-2.1725,-2.0853,-2.0438,-2.0392,-1.9509,-1.9132,-1.9132,-1.9105,-1.9096,-1.9104,-1.9092,-1.9117,-1.9135,-1.9108,-1.915,-1.9193,-1.9193,-1.9253,-1.9449,-2.0117,-2.0414,-2.0653,-2.1334,-2.1963,-2.2401,-2.2285,-2.2675,-2.3111,-2.3111,-2.3111,-2.3111,-2.3086,-2.3086,-2.3086,-2.3086,-2.3086,-2.3086,-2.3086,-2.3086,-2.3086,-2.3086,-2.3086,-2.3086,-2.3086,-2.3086,-2.3086,-2.3086,-2.2936,-2.2808,-2.279,-2.2614,-2.2379,-2.2124,-2.2113,-2.2651,-2.3909,-2.4713,-2.5466,-2.6178,-2.6212,-2.6212,-2.6212,-2.6212,-2.5864,-2.5143,-2.5143,-2.5143,-2.516,-2.588,-2.6212,0.0,0.0,-2.4617,-2.442,0.0,0.0,0.0,0.0,0.0,0.0,0.0,0.0,0.0,0.0,0.0,0.0,0.0,0.0,0.0,-2.4933,-2.5347,-2.5449,-2.3839,-2.2509,-2.197,-2.0092,-1.9267,-2.012,-1.942,-2.0154,-2.2915,-2.2615,-2.2796,-2.373,-2.3558,-2.3088,-2.2267,-2.2004,-2.1558,-2.0932,-2.138,-2.1192,-2.0467,-2.042,-2.0166,-1.9706,-1.9295,-1.9096,-1.9096,-1.9096,-1.9095,-1.9101,-1.9099,-1.9124,-1.9159,-1.9016,-1.8982,-1.8991,-1.8896,-1.8974,-1.9111,-1.9264,-1.9669,-2.0137,-2.0311,-2.1355,-2.2446,-2.2289,-2.2883,-2.3558,-2.3558,-2.3454,-2.3357,-2.3357,-2.3223,-2.3086,-2.3086,-2.3086,-2.3086,-2.3086,-2.3086,-2.3086,-2.3086,-2.3086,-2.3086,-2.3086,-2.3086,-2.3086,-2.3086,-2.3036,-2.2936,-2.2808,-2.2738,-2.2535,-2.2124,-2.2421,-2.2809,-2.3238,-2.3967,-2.4704,-2.545,-2.5011,-2.4978,-2.5466,-2.4994,-2.463,-2.4373,-2.4373,-2.4373,-2.4381,-2.4638,-2.5104,-2.4858,-2.5188,0.0,-2.4994,-2.4967,0.0,-2.4724,0.0,-2.4554,0.0,0.0,0.0,0.0,0.0,0.0,0.0,0.0,0.0,0.0,-2.5273,-2.5439,-2.5579,-2.4054,-2.2433,-2.0997,-1.9602,-1.8703,-1.8517,-1.8484,-1.9701,-2.2523,-2.2421,-2.2777,-2.3833,-2.3632,-2.3257,-2.2727,-2.2436,-2.1976,-2.1354,-2.155,-2.1101,-2.0089,-2.0062,-1.981,-1.9353,-1.9177,-1.9096,-1.9096,-1.9095,-1.9101,-1.9106,-1.9157,-1.92,-1.9209,-1.9093,-1.9042,-1.9024,-1.8851,-1.8939,-1.9081,-1.8948,-1.9479,-2.0147,-2.0138,-2.1286,-2.26,-2.2529,-2.3138,-2.3795,-2.3795,-2.3655,-2.3504,-2.3504,-2.3295,-2.3086,-2.3086,-2.3086,-2.3086,-2.3086,-2.3086,-2.3086,-2.3086,-2.3086,-2.3086,-2.3086,-2.3086,-2.3086,-2.3086,-2.3086,-2.3036,-2.291,-2.2919,-2.2747,-2.229,-2.248,-2.2693,-2.2882,-2.3346,-2.3942,-2.4688,-2.4257,-2.4348,-2.5094,-2.4381,-2.4,-2.4,-2.3735,-2.3611,-2.3611,-2.3611,-2.4024]}]]